[[{"header":{"parameterUnit":"m.s-1","parameterCategory":1,"la1":30.6,"la2":28.766,"lo1":-90.7593,"lo2":-88.6598,"dx":0.0162,"dy":0.0183,"nx":116,"ny":114,"refTime":"2022-12-13T18:00:00:Z","depth":0,"parameterNumber":2,"parameterNumberName":"U-component_of_WINDS"},"data":[0.0,0.0,0.0,0.0,0.0,0.0,0.0,0.0,0.0,0.0,0.0,0.0,0.0,0.0,0.0,0.0,0.0,0.0,0.0,0.0,0.0,0.0,0.0,0.0,0.0,0.0,0.0,0.0,0.0,0.0,0.0,0.0,0.0,0.0,0.0,0.0,0.0,0.0,0.0,0.0,0.0,0.0,0.0,0.0,0.0,0.0,0.0,0.0,0.0,0.0,0.0,0.0,0.0,0.0,0.0,0.0,0.0,0.0,0.0,0.0,0.0,0.0,0.0,0.0,0.0,0.0,0.0,0.0,0.0,0.0,0.0,0.0,0.0,0.0,0.0,0.0,0.0,0.0,0.0,0.0,0.0,0.0,0.0,0.0,0.0,0.0,0.0,0.0,0.0,0.0,0.0,0.0,0.0,0.0,0.0,0.0,0.0,0.0,0.0,0.0,0.0,0.0,0.0,0.0,0.0,0.0,0.0,0.0,0.0,0.0,0.0,0.0,0.0,0.0,0.0,0.0,0.0,0.0,0.0,0.0,0.0,0.0,0.0,0.0,0.0,0.0,0.0,0.0,0.0,0.0,0.0,0.0,0.0,0.0,0.0,0.0,0.0,0.0,0.0,0.0,0.0,0.0,0.0,0.0,0.0,0.0,0.0,0.0,0.0,0.0,0.0,0.0,0.0,0.0,0.0,0.0,0.0,0.0,0.0,0.0,0.0,0.0,0.0,0.0,0.0,0.0,0.0,0.0,0.0,0.0,0.0,0.0,0.0,0.0,0.0,0.0,0.0,0.0,0.0,0.0,0.0,0.0,0.0,0.0,0.0,0.0,0.0,0.0,0.0,0.0,0.0,0.0,0.0,0.0,0.0,0.0,0.0,0.0,0.0,0.0,0.0,0.0,0.0,0.0,0.0,0.0,0.0,0.0,0.0,0.0,0.0,0.0,0.0,0.0,0.0,0.0,0.0,0.0,0.0,0.0,0.0,0.0,0.0,0.0,0.0,0.0,0.0,0.0,0.0,0.0,0.0,0.0,0.0,0.0,0.0,0.0,0.0,0.0,0.0,0.0,0.0,0.0,0.0,0.0,0.0,0.0,0.0,0.0,0.0,0.0,0.0,0.0,0.0,0.0,0.0,0.0,0.0,0.0,0.0,0.0,0.0,0.0,0.0,0.0,0.0,0.0,0.0,0.0,0.0,0.0,0.0,0.0,0.0,0.0,0.0,0.0,0.0,0.0,0.0,0.0,0.0,0.0,0.0,0.0,0.0,0.0,0.0,0.0,0.0,0.0,0.0,0.0,0.0,0.0,0.0,0.0,0.0,0.0,0.0,0.0,0.0,0.0,0.0,0.0,0.0,0.0,0.0,0.0,0.0,0.0,0.0,0.0,0.0,0.0,0.0,0.0,0.0,0.0,0.0,0.0,0.0,0.0,0.0,0.0,0.0,0.0,0.0,0.0,0.0,0.0,0.0,0.0,0.0,0.0,0.0,0.0,0.0,0.0,0.0,0.0,0.0,0.0,0.0,0.0,0.0,0.0,0.0,0.0,0.0,0.0,0.0,0.0,0.0,0.0,0.0,0.0,0.0,0.0,0.0,0.0,0.0,0.0,0.0,0.0,0.0,0.0,0.0,0.0,0.0,0.0,0.0,0.0,0.0,0.0,0.0,0.0,0.0,0.0,0.0,0.0,0.0,0.0,0.0,0.0,0.0,0.0,0.0,0.0,0.0,0.0,0.0,0.0,0.0,0.0,0.0,0.0,0.0,0.0,0.0,0.0,0.0,0.0,0.0,0.0,0.0,0.0,0.0,0.0,0.0,0.0,0.0,0.0,0.0,0.0,0.0,0.0,0.0,0.0,0.0,0.0,0.0,0.0,0.0,0.0,0.0,0.0,0.0,0.0,0.0,0.0,0.0,0.0,0.0,0.0,0.0,0.0,0.0,0.0,0.0,0.0,0.0,0.0,0.0,0.0,0.0,0.0,0.0,0.0,0.0,0.0,0.0,0.0,0.0,0.0,0.0,0.0,0.0,0.0,0.0,0.0,0.0,0.0,0.0,0.0,0.0,0.0,0.0,0.0,0.0,0.0,0.0,0.0,0.0,0.0,0.0,0.0,0.0,0.0,0.0,0.0,0.0,0.0,0.0,0.0,0.0,0.0,0.0,0.0,0.0,0.0,0.0,0.0,0.0,0.0,0.0,0.0,0.0,0.0,0.0,0.0,0.0,0.0,0.0,0.0,0.0,0.0,0.0,0.0,0.0,0.0,0.0,0.0,0.0,0.0,0.0,0.0,0.0,0.0,0.0,0.0,0.0,0.0,0.0,0.0,0.0,0.0,0.0,0.0,0.0,0.0,0.0,0.0,0.0,0.0,0.0,0.0,0.0,0.0,0.0,0.0,0.0,0.0,0.0,0.0,0.0,0.0,0.0,0.0,0.0,0.0,0.0,0.0,0.0,0.0,0.0,0.0,0.0,0.0,0.0,0.0,0.0,0.0,0.0,0.0,0.0,0.0,0.0,0.0,0.0,0.0,0.0,0.0,0.0,0.0,0.0,0.0,0.0,0.0,0.0,0.0,0.0,0.0,0.0,0.0,0.0,0.0,0.0,0.0,0.0,0.0,0.0,0.0,0.0,0.0,0.0,0.0,0.0,0.0,0.0,0.0,0.0,0.0,0.0,0.0,0.0,0.0,0.0,0.0,0.0,0.0,0.0,0.0,0.0,0.0,0.0,0.0,0.0,0.0,0.0,0.0,0.0,0.0,0.0,0.0,0.0,0.0,0.0,0.0,0.0,0.0,0.0,0.0,0.0,0.0,0.0,0.0,0.0,0.0,0.0,0.0,0.0,0.0,0.0,0.0,0.0,0.0,0.0,0.0,0.0,0.0,0.0,0.0,0.0,0.0,0.0,0.0,0.0,0.0,0.0,0.0,0.0,0.0,0.0,0.0,0.0,0.0,0.0,0.0,0.0,0.0,0.0,0.0,0.0,0.0,0.0,0.0,0.0,0.0,0.0,0.0,0.0,0.0,0.0,0.0,0.0,0.0,0.0,0.0,0.0,0.0,0.0,0.0,0.0,0.0,0.0,0.0,0.0,0.0,0.0,0.0,0.0,0.0,0.0,0.0,0.0,0.0,0.0,0.0,0.0,0.0,0.0,0.0,0.0,0.0,0.0,0.0,0.0,0.0,0.0,0.0,0.0,0.0,0.0,0.0,0.0,0.0,0.0,0.0,0.0,0.0,0.0,0.0,0.0,0.0,0.0,0.0,0.0,0.0,0.0,0.0,0.0,0.0,0.0,0.0,0.0,0.0,0.0,0.0,0.0,0.0,0.0,0.0,0.0,0.0,0.0,0.0,0.0,0.0,0.0,0.0,0.0,0.0,0.0,0.0,0.0,0.0,0.0,0.0,0.0,0.0,0.0,0.0,0.0,0.0,0.0,0.0,0.0,0.0,0.0,0.0,0.0,0.0,0.0,0.0,0.0,0.0,0.0,0.0,0.0,0.0,0.0,0.0,0.0,0.0,0.0,0.0,0.0,0.0,0.0,0.0,0.0,0.0,0.0,0.0,0.0,0.0,0.0,0.0,0.0,0.0,0.0,0.0,0.0,0.0,0.0,0.0,0.0,0.0,0.0,0.0,0.0,0.0,0.0,0.0,0.0,0.0,0.0,0.0,0.0,0.0,0.0,0.0,0.0,0.0,0.0,0.0,0.0,0.0,0.0,0.0,0.0,0.0,0.0,0.0,0.0,0.0,0.0,0.0,0.0,0.0,0.0,0.0,0.0,0.0,0.0,0.0,0.0,0.0,0.0,0.0,0.0,0.0,0.0,0.0,0.0,0.0,0.0,0.0,0.0,0.0,0.0,0.0,0.0,0.0,0.0,0.0,0.0,0.0,0.0,0.0,0.0,0.0,0.0,0.0,0.0,0.0,0.0,0.0,0.0,0.0,0.0,0.0,0.0,0.0,0.0,0.0,0.0,0.0,0.0,0.0,0.0,0.0,0.0,0.0,0.0,0.0,0.0,0.0,0.0,0.0,0.0,0.0,0.0,0.0,0.0,0.0,0.0,0.0,0.0,0.0,0.0,0.0,0.0,0.0,0.0,0.0,0.0,0.0,0.0,0.0,0.0,0.0,0.0,0.0,0.0,0.0,0.0,0.0,0.0,0.0,0.0,0.0,0.0,0.0,0.0,0.0,0.0,0.0,0.0,0.0,0.0,0.0,0.0,0.0,0.0,0.0,0.0,0.0,0.0,0.0,0.0,0.0,0.0,0.0,0.0,0.0,0.0,0.0,0.0,0.0,0.0,0.0,0.0,0.0,0.0,0.0,0.0,0.0,0.0,0.0,0.0,0.0,0.0,0.0,0.0,0.0,0.0,0.0,0.0,0.0,0.0,0.0,0.0,0.0,0.0,0.0,0.0,0.0,0.0,0.0,0.0,0.0,0.0,0.0,0.0,0.0,0.0,0.0,0.0,0.0,0.0,0.0,0.0,0.0,0.0,0.0,0.0,0.0,0.0,0.0,0.0,0.0,0.0,0.0,0.0,0.0,0.0,0.0,0.0,0.0,0.0,0.0,0.0,0.0,0.0,0.0,0.0,0.0,0.0,0.0,0.0,0.0,0.0,0.0,0.0,0.0,0.0,0.0,0.0,0.0,0.0,0.0,0.0,0.0,0.0,0.0,0.0,0.0,0.0,0.0,0.0,0.0,0.0,0.0,0.0,0.0,0.0,0.0,0.0,0.0,0.0,0.0,0.0,0.0,0.0,0.0,0.0,0.0,0.0,0.0,0.0,0.0,0.0,0.0,0.0,0.0,0.0,0.0,0.0,0.0,0.0,0.0,0.0,0.0,0.0,0.0,0.0,0.0,0.0,0.0,0.0,0.0,0.0,0.0,0.0,0.0,0.0,0.0,0.0,0.0,0.0,0.0,0.0,0.0,0.0,0.0,0.0,0.0,0.0,0.0,0.0,0.0,0.0,0.0,0.0,0.0,0.0,0.0,0.0,0.0,0.0,0.0,0.0,0.0,0.0,0.0,0.0,0.0,0.0,0.0,0.0,0.0,0.0,0.0,0.0,0.0,0.0,0.0,0.0,0.0,0.0,0.0,0.0,0.0,0.0,0.0,0.0,0.0,0.0,0.0,0.0,0.0,0.0,0.0,0.0,0.0,0.0,0.0,0.0,0.0,0.0,0.0,0.0,0.0,0.0,0.0,0.0,0.0,0.0,0.0,0.0,0.0,0.0,0.0,0.0,0.0,0.0,0.0,0.0,0.0,0.0,0.0,0.0,0.0,0.0,0.0,0.0,0.0,0.0,0.0,0.0,0.0,0.0,0.0,0.0,0.0,0.0,0.0,0.0,0.0,0.0,0.0,0.0,0.0,0.0,0.0,0.0,0.0,0.0,0.0,0.0,0.0,0.0,0.0,0.0,0.0,0.0,0.0,0.0,0.0,0.0,0.0,0.0,0.0,0.0,0.0,0.0,0.0,0.0,0.0,0.0,0.0,0.0,0.0,0.0,0.0,0.0,0.0,0.0,0.0,0.0,0.0,0.0,0.0,0.0,0.0,0.0,0.0,0.0,0.0,0.0,0.0,0.0,0.0,0.0,0.0,0.0,0.0,0.0,0.0,0.0,0.0,0.0,0.0,0.0,0.0,0.0,0.0,0.0,0.0,0.0,0.0,0.0,0.0,0.0,0.0,0.0,0.0,0.0,0.0,0.0,0.0,0.0,0.0,0.0,0.0,0.0,0.0,0.0,0.0,0.0,0.0,0.0,0.0,0.0,0.0,0.0,0.0,0.0,0.0,0.0,0.0,0.0,0.0,0.0,0.0,0.0,0.0,0.0,0.0,0.0,0.0,0.0,0.0,0.0,0.0,0.0,0.0,0.0,0.0,0.0,0.0,0.0,0.0,0.0,0.0,0.0,0.0,0.0,0.0,0.0,0.0,0.0,0.0,0.0,0.0,0.0,0.0,0.0,0.0,0.0,0.0,0.0,0.0,0.0,0.0,0.0,0.0,0.0,0.0,0.0,0.0,0.0,0.0,0.0,0.0,0.0,0.0,0.0,0.0,0.0,0.0,0.0,0.0,0.0,0.0,0.0,0.0,0.0,0.0,3.9635,3.6419,0.0,0.0,0.0,0.0,0.0,0.0,0.0,0.0,0.0,0.0,0.0,0.0,0.0,0.0,0.0,0.0,0.0,0.0,0.0,0.0,0.0,0.0,0.0,2.1235,2.139,2.178,2.1778,0.0,0.0,0.0,0.0,0.0,0.0,0.0,0.0,0.0,2.3304,2.4164,2.6329,2.8729,3.1159,2.9,2.8033,2.8033,0.0,0.0,0.0,0.0,0.0,0.0,0.0,0.0,0.0,0.0,0.0,0.0,0.0,0.0,0.0,0.0,0.0,0.0,0.0,0.0,0.0,0.0,0.0,0.0,0.0,0.0,0.0,0.0,0.0,0.0,0.0,0.0,0.0,0.0,0.0,0.0,0.0,0.0,0.0,0.0,0.0,0.0,0.0,0.0,0.0,0.0,0.0,0.0,0.0,0.0,0.0,0.0,0.0,0.0,0.0,0.0,0.0,0.0,0.0,0.0,0.0,0.0,0.0,0.0,0.0,0.0,0.0,0.0,0.0,0.0,4.285,4.048,0.0,0.0,0.0,0.0,0.0,0.0,0.0,0.0,0.0,0.0,0.0,0.0,0.0,0.0,0.0,0.0,0.0,0.0,0.0,0.0,0.0,2.1315,2.2016,2.225,2.2602,2.3267,2.3345,2.3111,2.2602,2.3033,0.0,0.0,0.0,0.0,2.378,2.4546,2.5905,2.7788,2.9966,3.2448,3.5135,3.4588,3.3534,3.2051,2.9257,0.0,0.0,0.0,0.0,0.0,0.0,0.0,0.0,0.0,0.0,0.0,0.0,0.0,0.0,0.0,0.0,0.0,0.0,0.0,0.0,0.0,0.0,0.0,0.0,0.0,0.0,0.0,0.0,0.0,0.0,0.0,0.0,0.0,0.0,0.0,0.0,0.0,0.0,0.0,0.0,0.0,0.0,0.0,0.0,0.0,0.0,0.0,0.0,0.0,0.0,0.0,0.0,0.0,0.0,0.0,0.0,0.0,0.0,0.0,0.0,0.0,0.0,0.0,4.5944,4.6807,4.6924,4.6956,4.7745,4.902,4.6212,4.5053,4.4994,4.3384,0.0,0.0,0.0,0.0,0.0,0.0,0.0,0.0,0.0,0.0,0.0,0.0,0.0,0.0,0.0,0.0,0.0,0.0,0.0,2.2799,2.2916,2.3617,2.4124,2.4202,2.4241,2.4514,2.5141,2.4592,0.0,0.0,0.0,2.5679,2.6392,2.7234,2.8856,3.1248,3.5265,3.7132,3.697,3.7594,3.7789,3.7438,3.4042,3.2988,3.3537,0.0,0.0,0.0,0.0,0.0,0.0,0.0,0.0,0.0,0.0,0.0,0.0,0.0,0.0,0.0,0.0,0.0,0.0,0.0,0.0,0.0,0.0,0.0,0.0,0.0,0.0,0.0,0.0,0.0,0.0,0.0,0.0,0.0,0.0,0.0,0.0,0.0,0.0,0.0,0.0,0.0,3.4679,3.6245,0.0,0.0,0.0,0.0,0.0,0.0,0.0,0.0,0.0,0.0,0.0,0.0,0.0,4.3763,4.2907,4.5663,4.7356,4.8005,4.9049,4.9951,5.07,5.0683,5.081,5.1078,5.1369,0.0,4.6015,4.5694,0.0,0.0,0.0,0.0,0.0,0.0,0.0,0.0,0.0,0.0,0.0,0.0,0.0,0.0,0.0,0.0,0.0,0.0,0.0,0.0,0.0,2.6507,2.7717,2.8654,2.9162,2.9199,2.8615,2.8654,0.0,0.0,2.8342,2.8728,2.9071,3.0373,3.2538,3.5566,3.8497,4.0005,4.0174,4.0564,4.0994,4.1384,3.9354,3.7329,3.5343,3.425,0.0,0.0,0.0,0.0,0.0,0.0,0.0,0.0,0.0,0.0,0.0,0.0,0.0,0.0,0.0,0.0,0.0,0.0,0.0,0.0,0.0,0.0,0.0,0.0,0.0,0.0,0.0,0.0,0.0,0.0,0.0,0.0,0.0,0.0,0.0,0.0,0.0,0.0,0.0,3.5597,3.6468,3.7616,3.7854,3.768,0.0,0.0,0.0,0.0,0.0,0.0,0.0,0.0,0.0,4.5777,4.7028,4.7749,4.7871,5.0016,5.0816,5.0219,5.1137,5.1515,5.1406,5.1404,5.1418,5.1445,5.2328,5.134,4.9163,4.9544,4.8962,4.7634,0.0,0.0,0.0,0.0,4.3829,4.445,0.0,0.0,0.0,0.0,0.0,0.0,0.0,0.0,0.0,0.0,0.0,0.0,2.7835,2.9513,3.1153,3.2636,3.3144,3.3027,3.2207,3.2753,3.2636,3.1621,3.2129,3.2441,3.2441,3.4137,3.6114,3.8458,4.0906,4.2321,4.275,4.318,4.3726,4.4354,4.369,4.1238,3.7615,3.742,3.6326,3.4685,0.0,0.0,0.0,0.0,0.0,0.0,0.0,0.0,0.0,0.0,0.0,0.0,0.0,0.0,0.0,0.0,0.0,0.0,0.0,0.0,0.0,0.0,0.0,0.0,0.0,0.0,0.0,0.0,0.0,0.0,0.0,0.0,0.0,0.0,0.0,0.0,0.0,3.8432,3.9065,3.9879,4.1059,4.1313,0.0,0.0,0.0,0.0,0.0,0.0,4.5984,4.6274,4.7423,4.9627,5.0373,5.0918,5.1403,5.2695,5.2812,5.1756,5.2607,5.2802,5.242,5.2617,5.2734,5.2773,5.3437,5.332,5.273,5.2839,5.2397,5.1484,5.008,4.9118,4.838,4.7154,4.7125,4.7864,0.0,0.0,0.0,0.0,0.0,0.0,0.0,0.0,0.0,0.0,0.0,3.0528,3.0606,3.2168,3.3573,3.4471,3.3846,3.4081,3.5639,3.5796,3.615,3.6891,3.6931,3.697,3.697,3.8687,3.9234,3.8609,4.275,4.4393,4.3687,4.533,4.6111,4.615,4.6114,4.4602,4.2031,4.125,3.9922,3.8203,3.6523,0.0,0.0,0.0,0.0,0.0,0.0,0.0,0.0,0.0,0.0,0.0,0.0,0.0,0.0,0.0,0.0,0.0,0.0,0.0,0.0,0.0,0.0,0.0,0.0,0.0,0.0,0.0,0.0,0.0,0.0,0.0,0.0,0.0,0.0,0.0,0.0,0.0,0.0,4.4404,4.4602,0.0,0.0,0.0,0.0,4.581,4.6605,4.786,4.962,5.0532,5.1435,5.2455,5.2531,5.2181,5.141,5.148,5.1911,5.2667,5.3512,5.4331,5.513,5.5974,5.6328,5.6328,5.6367,5.6367,5.6211,5.4609,5.3353,5.2425,5.2347,5.2227,5.2134,5.2113,5.213,5.22,0.0,0.0,0.0,2.0612,2.1042,2.1705,2.2564,2.4126,2.5765,2.7171,2.9865,3.1856,3.2402,3.5018,3.6852,3.7165,3.7906,3.8375,3.8453,3.8961,3.8921,3.818,3.8648,3.9156,3.9741,4.0369,4.135,4.2724,4.4794,4.5963,4.6228,4.7439,4.7985,4.7988,4.7963,4.7147,4.5664,4.4258,4.2656,4.0937,3.9805,3.7969,0.0,0.0,0.0,0.0,0.0,0.0,0.0,0.0,0.0,0.0,0.0,0.0,0.0,0.0,0.0,0.0,0.0,0.0,0.0,0.0,0.0,0.0,0.0,0.0,0.0,0.0,0.0,0.0,0.0,0.0,0.0,0.0,0.0,0.0,0.0,0.0,0.0,4.4138,4.6487,0.0,4.7633,4.918,5.0262,5.0245,5.1108,5.1899,5.2524,5.2889,5.344,5.4331,5.4921,5.4804,5.3902,5.4482,5.4052,5.2691,5.2997,5.3039,5.2808,5.3115,5.3238,5.3281,5.3867,5.3789,5.3281,5.3789,5.4101,5.4292,5.4284,5.392,5.3435,5.3459,5.3454,5.3543,0.0,0.0,0.0,2.0612,2.1315,2.225,2.3384,2.5024,2.6976,2.9279,3.1543,3.3534,3.5018,3.7204,3.8846,3.9393,4.0171,4.0522,4.0249,4.1069,4.103,3.9937,4.0405,4.1072,4.1975,4.2285,4.3423,4.546,4.691,4.7925,4.8506,4.9639,5.0186,5.0188,5.0507,4.9961,4.8828,4.7656,4.5664,4.3203,4.2383,4.082,3.8789,0.0,0.0,0.0,0.0,0.0,0.0,0.0,0.0,0.0,0.0,0.0,0.0,0.0,0.0,0.0,0.0,0.0,0.0,0.0,0.0,0.0,0.0,0.0,0.0,0.0,0.0,0.0,0.0,0.0,0.0,0.0,0.0,0.0,0.0,4.4552,4.651,4.5854,4.8803,5.0765,5.0336,5.1991,5.3052,5.3052,5.4181,5.4883,5.4883,5.5156,5.5586,5.6172,5.6172,5.5742,5.4883,5.5423,5.4716,5.2692,5.3583,5.3546,5.2731,5.3622,5.3862,5.3633,5.4492,5.457,5.4101,5.4961,5.5664,5.6133,5.5545,5.5114,5.4878,5.4867,5.49,5.5013,0.0,0.0,2.0614,2.0651,2.1354,2.2484,2.4163,2.5922,2.8305,3.1699,3.369,3.5759,3.8339,3.8651,3.9315,4.0952,4.0366,4.0249,4.1147,4.2006,4.2474,4.2474,4.2477,4.2873,4.3743,4.4635,4.5528,4.6466,4.8982,5.0273,5.0391,5.2031,5.2773,5.2812,5.3672,5.3086,5.1484,5.1484,4.9062,4.5117,4.418,4.3281,4.2226,0.0,0.0,0.0,0.0,0.0,0.0,0.0,0.0,0.0,0.0,0.0,0.0,0.0,0.0,0.0,0.0,0.0,0.0,0.0,0.0,0.0,0.0,0.0,0.0,0.0,0.0,0.0,0.0,0.0,0.0,0.0,0.0,0.0,4.5463,4.6629,4.8345,4.9916,5.1679,5.3074,5.3778,5.3993,5.4101,5.4101,5.5703,5.668,5.668,5.7461,5.789,5.789,5.6289,5.5,5.4101,5.4141,5.3708,5.2862,5.5387,5.6168,5.5443,5.7966,5.8672,5.789,5.875,5.9101,5.9062,5.8203,5.789,5.7734,5.6055,5.5898,5.664,5.6675,5.6671,5.6786,2.0494,2.0507,2.074,2.1434,2.2213,2.3345,2.5063,2.7366,2.9904,3.2675,3.5096,3.7087,3.8456,3.9663,4.06,4.1069,4.1459,4.2318,4.384,4.4153,4.4309,4.4309,4.4273,4.4706,4.557,4.6441,4.7928,4.9998,5.0703,5.2031,5.3906,5.4375,5.4609,5.4609,5.4844,5.4336,5.3281,5.3281,5.1875,4.9453,4.7383,4.5625,4.4141,0.0,0.0,0.0,0.0,0.0,0.0,0.0,0.0,0.0,0.0,0.0,0.0,0.0,0.0,0.0,0.0,0.0,0.0,0.0,0.0,0.0,0.0,0.0,0.0,0.0,0.0,0.0,0.0,0.0,0.0,0.0,4.7715,4.8652,4.7916,4.9838,5.1444,5.1913,5.3515,5.4645,5.4875,5.6046,5.6836,5.6836,5.7851,5.8476,5.8476,5.8125,5.789,5.789,5.8047,5.7422,5.5898,5.7148,5.7031,5.5545,5.6278,5.6476,5.6287,5.6992,5.7187,5.6953,5.7226,5.7305,5.7305,5.707,5.7344,5.7851,5.7383,5.7344,5.7617,5.8241,5.8476,5.8515,2.0492,2.0505,2.078,2.1746,2.2564,2.3814,2.5922,2.8147,3.0762,3.4042,3.5798,3.7477,3.9429,4.0171,4.0834,4.1576,4.2123,4.3138,4.4894,4.5324,4.5522,4.5531,4.588,4.6664,4.7922,4.91,5.0625,5.25,5.3203,5.4375,5.5859,5.6211,5.6406,5.6406,5.6758,5.625,5.5078,5.5078,5.4062,5.2344,5.0898,4.8828,4.6484,4.5273,4.3867,4.2422,4.1328,4.0625,4.0156,3.9805,0.0,0.0,0.0,0.0,0.0,0.0,0.0,0.0,0.0,0.0,0.0,0.0,0.0,0.0,0.0,0.0,0.0,0.0,0.0,0.0,0.0,0.0,0.0,0.0,5.0019,5.1157,5.1515,5.2225,5.2851,5.3203,5.4765,5.5976,5.6367,5.7656,5.8437,5.8437,5.9219,5.9687,5.9687,5.957,5.9336,5.8945,5.9453,5.8867,5.7148,5.8515,5.8515,5.7148,5.7846,5.8004,5.7695,5.8437,5.8555,5.8203,5.8594,5.875,5.8711,5.8359,5.8476,5.8867,0.0,0.0,0.0,0.0,5.8437,5.8242,2.0644,2.066,2.0976,2.1983,2.2761,2.4126,2.6743,2.8615,3.1231,3.5447,3.6189,3.7516,4.0756,4.0405,4.0639,4.2396,4.2552,4.3294,4.5012,4.6222,4.6778,4.6594,4.7606,4.8899,5.0469,5.2148,5.3437,5.4297,5.5937,5.6836,5.7031,5.7812,5.8164,5.8203,5.8984,5.8437,5.6875,5.6875,5.5898,5.4297,5.4294,5.2301,4.9141,4.75,4.6758,4.625,4.375,4.2851,4.2734,4.2031,0.0,0.0,0.0,0.0,0.0,0.0,0.0,0.0,0.0,0.0,0.0,0.0,0.0,0.0,0.0,0.0,0.0,0.0,0.0,0.0,0.0,0.0,0.0,0.0,5.2602,5.4445,5.5312,5.4101,5.3476,5.4336,5.5898,5.7187,5.7969,5.8828,5.9375,5.9453,6.0234,6.0703,6.0703,6.1328,0.0,0.0,0.0,5.9687,5.8203,5.9062,5.9101,5.8359,5.9844,6.0234,5.9687,6.1172,6.1484,6.0898,6.164,6.1992,6.1914,6.1172,6.0859,6.0664,5.8984,5.8398,5.8476,5.8594,5.8125,5.7773,2.1662,2.1542,2.2066,2.3633,2.4056,2.5022,2.7639,2.9474,3.1895,3.5522,3.7204,3.8843,4.0873,4.0952,4.1537,4.3294,4.345,4.4192,4.5948,4.8798,4.9817,4.8454,5.0542,5.1874,5.2226,5.3906,5.5234,5.6094,5.7148,5.8359,5.9687,5.9844,5.9922,5.9922,6.0078,5.9609,5.8711,5.8711,5.7695,5.6092,5.6057,5.4398,5.1836,5.082,4.957,4.8164,4.6211,4.5547,4.5508,4.5351,4.4258,4.3125,4.3984,4.2383,0.0,0.0,0.0,0.0,0.0,0.0,0.0,0.0,0.0,0.0,0.0,0.0,0.0,0.0,0.0,0.0,0.0,0.0,0.0,5.3163,5.4257,5.5351,5.6211,5.6055,5.6172,5.7031,5.8047,5.875,5.8945,5.9687,6.0469,6.1172,6.1992,6.25,6.25,6.1992,6.1289,6.043,6.039,6.0234,5.9922,6.0781,6.1133,6.0976,6.1289,0.0,6.2265,6.2617,6.3047,6.3555,6.3711,6.3789,6.3789,6.3633,6.3555,6.3359,6.164,6.1406,6.2109,6.2812,6.2969,6.289,2.3003,2.2686,2.2844,2.4179,2.4409,2.5295,2.7913,2.9396,3.1582,3.5486,3.7126,3.857,4.0288,4.0834,4.1615,4.2946,4.5054,4.6502,4.6937,5.0133,5.1496,5.0207,5.2223,5.375,5.4648,5.5937,5.7226,5.8515,5.9375,6.0234,6.1055,6.1055,6.1055,6.1055,6.1055,6.0586,5.9805,5.9799,5.9059,5.7849,5.7405,5.6446,5.5116,5.331,5.2148,5.1211,4.9492,4.8867,4.8711,4.7891,4.6719,4.5781,4.668,4.4883,4.2461,0.0,0.0,0.0,0.0,0.0,0.0,0.0,0.0,0.0,0.0,0.0,0.0,0.0,0.0,4.9766,5.0625,0.0,5.4297,5.5156,5.6015,5.6914,5.7773,5.8242,5.8359,5.7969,5.8672,5.9531,6.0351,6.1211,6.207,6.293,6.3398,6.3476,6.3008,6.3008,6.2383,6.1094,6.1484,6.1719,6.1719,6.2148,6.2578,6.3008,6.3008,6.3242,6.3633,6.3633,6.3906,6.4297,6.4297,6.4297,6.4297,6.4297,6.4297,6.4258,6.3828,6.3398,6.3047,6.3476,6.3359,6.3125,2.4296,2.398,2.3812,2.4529,2.4646,2.5496,2.7913,2.9045,3.1036,3.4979,3.6384,3.7672,3.939,4.0327,4.1267,4.2324,4.6069,4.8106,4.7371,5.0727,5.2404,5.1665,5.3474,5.5234,5.6836,5.7695,5.8906,6.039,6.1289,6.1719,6.1719,6.1719,6.1719,6.1719,6.1718,6.1327,6.0664,6.0646,6.0178,5.937,5.8453,5.8031,5.7644,5.5106,5.4093,5.3789,5.2031,5.1406,5.1172,4.9648,4.8672,4.8242,4.8945,4.7109,4.4805,4.5351,4.3437,0.0,0.0,0.0,0.0,0.0,0.0,0.0,0.0,4.7109,4.9023,4.9766,5.1094,5.2383,5.3086,5.4648,5.5976,5.6523,5.7461,5.8398,5.9101,6.0039,6.0195,5.9023,5.9492,6.0469,6.1836,6.2734,6.3555,6.4258,6.4453,6.4101,6.3047,6.3984,6.375,6.1992,6.2812,6.3242,6.3242,6.3242,6.3594,6.4297,6.4297,6.4375,6.4531,6.4531,6.4648,6.4805,6.4805,6.4805,6.4805,6.4805,6.4805,6.4883,6.5586,6.5,6.375,6.375,6.332,6.289,2.5328,2.5329,2.5364,2.5444,2.5505,2.617,2.8032,2.9045,3.0567,3.3339,3.5135,3.6813,3.8531,3.951,4.0687,4.2257,4.4982,4.6534,4.6459,5.0386,5.2656,5.2578,5.4961,5.6758,5.7734,5.8594,5.9492,6.039,6.1289,6.1719,6.1719,6.1719,6.1719,6.1719,6.1704,6.1668,6.1562,6.1555,6.1076,6.0198,5.9251,5.8478,5.7671,5.5785,5.4615,5.3789,5.2031,5.1406,5.125,5.0351,5.0,4.9922,5.0039,4.9258,4.8203,4.75,4.6484,4.543,4.4648,4.4492,4.4961,4.6601,4.832,4.9766,0.0,5.1953,5.332,5.3398,5.418,5.4883,5.5,5.6445,5.7383,5.6719,5.7969,5.9101,5.918,6.0547,6.1758,6.2344,6.2539,6.2656,6.2851,6.3633,6.4219,6.4297,6.5039,6.4726,6.3086,6.457,6.4648,6.289,6.3711,6.414,6.414,6.414,6.4219,6.4297,6.4297,6.4726,6.5469,6.5469,6.5898,6.6601,6.6601,6.6601,6.6601,6.6601,6.6601,6.6601,6.6719,6.664,6.6445,6.6445,6.6406,6.6367,2.5499,2.5505,2.5568,2.5598,2.5646,2.6289,2.8034,2.8615,2.9943,3.2988,3.4042,3.5333,3.7604,3.9476,4.1082,4.2303,4.4802,4.6284,4.6284,4.9843,5.2187,5.2695,5.4726,5.6484,5.7851,5.875,5.9609,6.039,6.1289,6.1719,6.1719,6.1711,6.1704,6.1704,6.1701,6.1701,6.1704,6.1697,6.1495,6.1052,5.969,5.8616,5.7697,5.5923,5.4412,5.3124,5.2363,5.2133,0.0,5.1133,5.0859,5.0898,5.0898,4.9961,4.8945,4.9062,4.7773,4.6562,4.7695,4.8359,4.9023,5.0273,5.1484,5.2383,5.2187,5.3125,5.4141,5.4648,5.5039,5.5469,5.5976,5.664,5.7187,5.7344,5.8398,5.9531,6.0508,6.168,6.2773,6.3633,6.4219,6.4492,6.4492,6.4844,6.5273,6.5781,6.6133,6.582,6.457,6.5195,6.5039,6.3789,6.4101,6.4531,6.5039,6.5078,6.5312,6.582,6.582,6.6015,6.6367,6.6367,6.6562,6.6914,6.6914,6.6914,6.6914,6.6914,6.6914,6.6914,6.6914,6.6914,6.6914,6.6914,6.6914,6.6914,2.5492,2.5499,2.5536,2.5568,2.5613,2.6206,2.7726,2.8149,2.9279,3.2016,3.2756,3.4049,3.6675,3.9016,4.0775,4.164,4.3867,4.543,4.5898,4.8945,5.1211,5.2305,5.4023,5.5742,5.75,5.8164,5.8984,6.0078,6.0703,6.1133,6.1328,6.1349,6.1486,6.172,6.1642,6.1627,6.1627,6.1588,6.1439,6.1062,5.9396,5.8222,5.7264,5.5307,5.3632,5.2333,5.2525,5.2463,5.2195,5.1521,5.1172,5.1055,5.1328,5.0586,4.9726,5.0351,4.9375,4.8476,5.0391,5.1484,5.2266,5.2891,5.3711,5.418,5.3555,5.4101,5.4883,5.5547,5.5664,5.5859,5.6484,5.6797,5.7187,5.7812,5.8828,5.9961,6.1172,6.25,6.3594,6.4219,6.5273,6.6055,6.6289,6.6094,6.6133,6.6523,6.6758,6.6406,6.5312,6.5703,6.5547,6.4687,6.4883,6.5312,6.5937,6.5976,6.6289,6.6914,6.7148,6.7265,6.7265,6.75,6.7578,6.7578,6.7578,6.7617,6.7617,6.7617,6.7617,6.7578,6.7617,6.7617,6.7617,6.7617,6.7461,6.7305,2.5492,2.5492,2.5492,2.5492,2.5574,2.5947,2.6874,2.7764,2.8658,2.9604,3.112,3.3154,3.5742,3.7617,3.9023,3.9883,4.1523,4.3242,4.4922,4.75,4.9726,5.1367,5.3125,5.4844,5.6601,5.668,5.7539,5.9258,5.9258,5.9687,6.043,6.0451,6.0895,6.1676,6.1547,6.1523,6.1472,6.1278,6.0747,5.9893,5.8211,5.7118,5.6172,5.3632,5.2116,5.1449,5.2307,5.2059,5.1333,5.1304,5.0742,5.0195,5.1094,5.1367,5.1328,5.1367,5.1914,5.2539,5.2617,5.3242,5.3945,5.3945,5.4609,5.5234,5.5234,5.5898,5.6523,5.6562,5.6562,5.6562,5.6601,5.7305,5.7851,5.789,5.9297,6.039,6.043,6.2656,6.4258,6.4297,6.582,6.7187,6.8047,6.7344,6.6523,6.5703,6.6406,6.6133,6.4414,6.5937,6.6445,6.5586,6.6367,6.6836,6.6875,6.6875,6.6875,6.6914,6.7773,6.8164,6.8203,6.8984,6.9336,6.9336,6.9336,6.9375,6.9414,6.9414,6.9375,6.9336,6.9414,6.9414,6.9414,6.9336,6.8828,6.8281,2.5492,2.5492,2.5492,2.5492,2.5536,2.5662,2.6076,2.6873,2.7754,2.8617,3.0736,0.0,0.0,0.0,0.0,0.0,4.0625,4.207,4.3203,4.5195,4.707,4.8789,5.1055,5.2812,5.3984,5.5156,5.6328,5.7461,5.8047,5.906,6.0412,6.0412,6.0561,6.0817,6.0707,6.0305,5.9762,5.9607,5.942,5.9061,5.7343,5.6175,5.5317,5.393,5.2122,5.0461,0.0,5.1061,5.0457,5.1047,5.1063,5.1016,5.1953,5.1875,5.1641,5.2773,5.4141,5.5273,5.5273,5.5508,5.5742,5.5742,5.6367,5.7031,5.7031,5.7265,5.7461,5.7461,5.7461,5.7461,5.7461,5.7695,5.8086,5.8672,5.9258,6.0,6.1094,6.3008,6.4492,6.5078,6.6172,6.7031,6.7305,6.707,6.7031,6.7305,6.707,6.664,6.6055,6.6562,6.6758,6.6484,6.6758,6.7187,6.7773,6.7773,6.8047,6.8555,6.8867,6.9023,6.9062,6.9297,6.9414,6.9453,6.9453,6.9453,6.9414,6.9414,6.9414,6.9414,6.9414,6.9414,6.9492,7.0078,7.0078,6.9805,2.5492,2.5492,2.5492,2.5492,2.5492,0.0,0.0,0.0,0.0,0.0,0.0,0.0,0.0,0.0,0.0,0.0,0.0,4.0625,4.1445,4.3125,4.4726,4.6133,4.8359,5.0117,5.1328,5.3045,5.4334,5.5195,5.6406,5.7686,5.9065,5.9351,5.9468,5.9451,5.9287,5.8725,5.7885,5.7693,5.7641,5.7523,5.5519,5.4241,5.3414,5.2317,5.048,0.0,4.9741,4.9629,4.9073,5.031,5.0773,5.1003,5.2304,5.2734,5.3125,5.4883,5.6406,5.7461,5.7148,5.7305,5.7461,5.7148,5.75,5.789,5.789,5.789,5.7812,5.75,5.7695,5.789,5.789,5.8164,5.8633,5.9492,5.9883,6.0586,6.1953,6.3672,6.4961,6.5547,6.6367,6.7031,6.7344,6.7344,6.7461,6.7734,6.75,6.7226,6.6914,6.7187,6.7344,6.7344,6.7656,6.8086,6.8672,6.8672,6.9062,6.9844,6.9844,7.0039,7.039,7.0351,7.0351,7.039,7.039,7.0351,7.0312,7.0312,7.0312,7.0312,7.0312,7.0312,7.039,7.0976,7.1367,7.1523,2.5492,2.5492,2.5492,0.0,0.0,0.0,0.0,0.0,0.0,0.0,0.0,0.0,0.0,0.0,0.0,0.0,0.0,0.0,3.9844,4.1445,4.2695,4.3555,4.5234,4.6953,4.8594,5.022,5.1548,5.25,5.4175,5.5453,5.6411,5.7231,5.7621,5.7577,5.7341,5.6693,5.5812,5.5499,5.5357,5.5186,5.2762,5.1393,5.0598,4.9019,4.7332,4.6003,4.7734,4.7748,4.7192,4.9189,4.9936,5.0381,5.2222,5.4062,5.582,5.7461,5.8594,5.9062,5.8242,5.8594,5.8984,5.8164,5.8008,5.8047,5.8047,5.8047,5.7773,5.6953,5.7461,5.8047,5.8047,5.8711,5.9531,6.0351,6.1172,6.1992,6.289,6.4492,6.5586,6.5586,6.6367,6.7226,6.8047,6.8203,6.789,6.7031,6.7773,6.789,6.6992,6.7773,6.8242,6.8242,6.9023,6.9453,6.957,6.9609,7.0,7.0781,7.0781,7.1211,7.1992,7.1992,7.1992,7.1992,7.1992,7.1992,7.1992,7.1992,7.1992,7.1992,7.2031,7.207,7.207,7.2109,7.2656,7.3242,0.0,0.0,0.0,0.0,0.0,0.0,0.0,0.0,0.0,0.0,0.0,0.0,0.0,0.0,0.0,0.0,0.0,0.0,3.9805,4.0898,4.1601,4.1836,4.3476,4.457,4.5039,4.6083,4.7715,4.9868,5.0303,5.1626,5.3717,5.4576,5.4966,5.4962,5.4694,5.374,5.2329,5.1426,5.1029,5.0971,4.9735,4.9131,4.8871,4.7835,4.5993,4.4161,4.5877,4.5529,4.4755,4.7897,5.0277,5.2298,5.4062,5.6289,5.8281,5.875,5.9453,6.0039,5.9805,5.9492,5.914,5.8906,5.9336,5.9765,5.9765,5.9765,5.9687,5.9492,5.9609,5.9765,5.9765,5.9922,6.0351,6.1211,6.1562,6.1992,6.289,6.4492,6.5586,6.5586,6.6367,6.6992,6.7226,6.8359,6.8748,6.7945,6.8629,6.875,6.789,6.8672,6.914,6.9101,6.9336,6.9765,7.039,7.1055,7.1484,7.168,7.168,7.1797,7.1992,7.1992,7.1992,7.1992,7.1992,7.1992,7.1992,7.1992,7.1992,7.207,7.2695,7.2969,7.3047,7.3711,7.4062,7.4258,0.0,0.0,0.0,0.0,0.0,0.0,0.0,0.0,0.0,0.0,0.0,0.0,0.0,0.0,0.0,0.0,0.0,0.0,0.0,3.8789,3.9492,3.9492,4.0742,4.1641,4.2031,4.3591,4.495,4.603,4.7913,4.9394,5.0516,5.2117,5.2663,5.2269,5.2047,5.1214,4.9909,4.9131,4.9085,0.0,0.0,4.6606,4.6407,4.4868,4.3181,4.1789,4.3518,4.4305,4.4989,4.8114,5.1239,5.4023,5.5,5.6836,5.8711,5.9101,5.9765,6.0312,5.9961,5.9805,5.9726,5.9726,6.0078,6.039,6.039,6.0117,5.9883,5.9883,5.957,5.9531,6.0273,6.039,6.0703,6.1562,6.2344,6.3008,6.3515,6.5078,6.6327,6.6711,6.718,6.7611,6.7966,6.9177,6.9603,6.88,6.9518,6.9603,6.8786,6.9568,6.9998,6.9961,7.039,7.082,7.1289,7.1758,7.1797,7.1445,7.1445,7.1211,7.0859,7.0859,7.1055,7.1445,7.1445,7.164,7.1992,7.1992,7.2226,7.2617,7.3125,7.3515,7.3945,7.4414,7.4844,7.5156,0.0,0.0,0.0,0.0,0.0,0.0,0.0,0.0,0.0,3.0586,3.0234,3.0391,3.1133,3.1211,0.0,0.0,0.0,0.0,0.0,0.0,3.7305,3.7305,3.8008,3.8789,3.9531,4.1719,4.2576,4.2053,4.5796,4.7315,4.6811,4.9111,4.9813,4.9068,4.8855,4.83,4.7462,4.7086,4.7391,4.7889,4.4922,4.3759,4.3481,0.0,3.9831,3.9303,4.0913,4.3544,4.659,4.8833,5.1964,5.5039,5.5351,5.6601,5.8047,5.8828,5.9687,6.0234,5.9531,5.9961,6.0586,6.0586,6.0586,6.0586,6.0586,6.0039,5.9492,5.9375,5.875,5.8633,6.0,6.0234,6.0508,6.1406,6.289,6.4023,6.4258,6.5781,6.7221,6.8083,6.8273,6.8635,6.9319,7.0178,7.0377,6.9632,7.0397,7.0475,6.9632,7.0416,7.0851,7.0859,7.1601,7.1992,7.1992,7.1992,7.1562,7.0703,7.0703,7.0312,6.957,6.957,7.0117,7.1055,7.1055,7.1523,7.2344,7.2344,7.2773,7.3476,7.3594,7.4101,7.4765,7.4765,7.5234,7.5898,0.0,0.0,0.0,0.0,0.0,0.0,0.0,0.0,0.0,0.0,3.3633,3.2812,0.0,0.0,0.0,0.0,0.0,0.0,0.0,0.0,0.0,3.7305,3.7422,3.7617,3.7734,3.8164,3.9023,4.0345,4.1077,4.1696,4.224,4.3411,4.3879,4.372,4.3522,4.2937,4.2073,4.1183,4.09,4.1031,4.0472,4.0281,4.0165,3.9045,0.0,0.0,3.8489,4.2421,4.7172,4.7673,5.0207,5.3516,5.5703,5.707,5.793,5.8086,5.9219,6.0351,6.0234,6.082,6.1484,6.1484,6.1484,6.1484,6.1484,6.1367,6.1055,6.0351,6.0078,5.9844,5.9492,5.9414,5.9687,6.0508,6.1484,6.2656,6.4101,6.581,6.7229,6.8117,6.8781,6.9255,6.9377,7.0197,7.0626,7.047,7.1285,7.1402,7.0509,7.129,7.1763,7.1768,7.1939,7.1988,7.1992,7.1988,7.1558,7.0703,7.0703,7.0625,7.0469,7.0469,7.1328,7.2851,7.2851,7.3359,7.414,7.414,7.4258,7.4453,7.5156,7.5547,7.5664,7.5664,7.5781,7.5898,0.0,0.0,0.0,0.0,0.0,0.0,0.0,3.4675,3.581,3.8906,3.8242,3.6758,3.4961,3.3945,3.3398,0.0,0.0,0.0,0.0,0.0,0.0,3.5937,3.6367,3.6601,3.6601,3.707,3.75,3.7886,0.0,3.9861,3.9819,4.1108,4.1732,4.169,4.1498,4.1189,4.0752,4.0217,3.9967,3.9904,3.9071,3.8749,3.8658,0.0,0.0,0.0,3.8063,4.1519,4.6022,4.654,4.9352,5.3125,5.5742,5.6875,5.7305,5.7773,5.8789,5.9765,5.9765,6.0703,6.1719,6.1719,6.1719,6.1719,6.1719,6.1015,6.039,6.039,5.8984,5.8047,5.9023,5.8476,5.8281,5.957,6.0856,6.2136,6.3425,6.5137,6.6883,6.863,6.9171,6.9762,7.066,7.1128,7.1363,7.1363,7.1682,7.1714,7.1402,7.1763,7.1943,7.1828,7.1858,7.1831,7.1825,7.1774,7.1339,7.0598,7.0497,7.02,6.9763,7.0231,7.1167,7.2497,7.2966,7.3708,7.4606,7.4606,7.4608,7.4648,7.5078,7.5234,7.5234,7.5234,7.5234,7.5234,0.0,0.0,0.0,0.0,0.0,0.0,0.0,3.7138,3.8639,4.2226,4.1836,4.0156,3.7422,3.5547,3.4297,0.0,0.0,0.0,0.0,0.0,0.0,0.0,0.0,0.0,3.6016,0.0,0.0,3.601,3.8071,0.0,0.0,0.0,0.0,0.0,3.9777,3.9703,3.9742,3.9612,3.9518,0.0,0.0,3.7602,3.7522,0.0,0.0,0.0,0.0,4.0745,4.4318,4.5647,4.8608,5.2223,5.4922,5.6289,5.6992,5.7695,5.8633,5.9453,5.9453,6.0547,6.1719,6.1719,6.1836,6.1914,6.1758,6.0664,5.9765,5.9844,5.7578,5.6094,5.7773,5.7109,5.6836,5.8398,6.0071,6.1573,6.2813,6.4505,6.654,6.9098,6.9567,7.0309,7.1831,7.1976,7.193,7.193,7.177,7.1711,7.1877,7.1877,7.1828,7.1665,7.1669,7.1665,7.1651,7.1536,7.1163,7.0427,7.0277,6.9943,6.9489,7.0171,7.1223,7.2517,7.3218,7.3972,7.4759,7.4759,7.4652,7.4478,7.4528,7.4531,7.4531,7.4375,7.4453,7.457,0.0,0.0,0.0,0.0,0.0,0.0,0.0,3.7286,3.9579,4.3124,4.2187,4.1094,4.0742,3.918,3.7187,0.0,0.0,0.0,0.0,0.0,0.0,0.0,0.0,0.0,0.0,0.0,0.0,3.601,3.6233,0.0,0.0,0.0,0.0,0.0,0.0,3.6215,3.627,3.6129,0.0,0.0,0.0,0.0,0.0,0.0,0.0,0.0,0.0,3.9959,4.2641,4.5221,4.7427,4.9541,5.2223,5.5234,5.7812,5.789,5.9023,6.0273,6.0273,6.0976,6.1719,6.1719,6.2305,6.2656,6.1875,6.1562,6.082,5.8594,5.7265,5.6055,5.4726,5.5,5.5742,5.668,5.8281,6.027,6.2662,6.4492,6.6561,6.9098,7.0113,7.0933,7.1909,7.1846,7.1721,7.1721,7.1601,7.152,7.1536,7.1536,7.1552,7.1514,7.1508,7.1525,7.1513,7.1486,7.1087,7.0221,7.0208,7.0573,7.1272,7.1349,7.2712,7.4976,7.5023,7.516,7.5253,7.5253,7.4748,7.4092,7.4246,7.4333,7.4258,7.3633,7.3906,7.4492,0.0,0.0,0.0,0.0,0.0,0.0,3.6929,3.8006,3.9896,4.3944,4.3008,4.1914,4.1914,4.0391,3.832,3.5703,0.0,0.0,0.0,0.0,0.0,0.0,0.0,0.0,0.0,0.0,3.6015,3.6015,3.6003,0.0,0.0,0.0,0.0,0.0,0.0,3.5741,3.5688,3.5615,0.0,0.0,0.0,0.0,0.0,0.0,0.0,0.0,0.0,0.0,4.2241,4.3944,4.6056,4.8314,5.0503,5.3203,5.5742,5.6797,5.832,5.9765,6.0273,6.1055,6.1836,6.2344,6.1953,6.1484,6.164,6.0117,5.8359,5.7344,5.5586,5.4219,5.4023,5.4722,5.5419,5.5742,5.812,6.0451,6.201,6.4189,6.6561,6.9098,7.0075,7.0862,7.172,7.1665,7.1544,7.1392,7.1358,7.128,7.1158,7.1378,7.1436,7.1296,7.1319,7.1319,7.1334,7.1192,7.1317,7.1555,7.1453,7.1878,7.2717,7.3217,7.406,7.5131,7.5111,7.5178,7.5266,7.4722,7.3989,7.3237,7.3324,7.334,7.3241,7.25,7.2752,7.336,0.0,0.0,0.0,0.0,0.0,3.4216,3.7208,3.8559,4.0368,4.3474,4.3008,4.2305,4.207,4.0312,3.8476,3.6914,3.4687,0.0,0.0,0.0,0.0,0.0,0.0,0.0,0.0,0.0,3.6016,3.6016,3.6009,3.5996,0.0,0.0,3.5974,3.5894,0.0,0.0,0.0,0.0,0.0,0.0,0.0,0.0,0.0,0.0,0.0,0.0,0.0,0.0,0.0,0.0,0.0,4.6911,4.855,5.0976,5.3672,5.5937,5.7812,5.9375,6.0195,6.1211,6.2187,6.2539,6.168,6.0898,6.1211,5.8867,5.6444,5.5915,5.4167,5.2732,5.2811,5.3971,5.4939,5.4917,5.7796,6.0323,6.1193,6.3798,6.6561,6.9098,7.0238,7.1154,7.2011,7.1699,7.132,7.1124,7.1101,7.1067,7.0898,7.117,7.1239,7.1124,7.1101,7.1101,7.1101,7.1236,7.166,7.2414,7.2546,7.3014,7.386,7.4437,7.478,7.4885,7.4885,7.485,7.4731,7.4111,7.3467,7.2955,7.2982,7.3024,7.2928,7.2436,7.2746,7.3368,0.0,0.0,0.0,0.0,0.0,0.0,3.5666,3.8844,4.1116,4.1208,4.1914,4.2109,4.1289,3.8906,3.7656,3.8516,3.5391,0.0,0.0,0.0,0.0,0.0,0.0,0.0,0.0,0.0,3.6016,3.6016,3.6013,3.6005,3.5991,3.5991,3.5978,3.5904,0.0,0.0,0.0,0.0,0.0,0.0,0.0,0.0,0.0,0.0,0.0,0.0,0.0,0.0,0.0,0.0,0.0,0.0,0.0,4.8672,5.2109,5.5586,5.7812,5.9375,6.0195,6.168,6.2773,6.1914,6.1719,6.1445,6.0625,5.8437,5.608,5.4296,5.3251,5.2163,5.0381,5.2218,5.4008,5.4025,5.6894,5.9436,6.0276,6.3399,6.6561,6.9098,7.0745,7.2039,7.2908,7.1896,7.1124,7.0925,7.0898,7.0898,7.0898,7.0898,7.0898,7.0898,7.0898,7.0898,7.0898,7.1745,7.2168,7.2206,7.3091,7.3899,7.4707,7.4707,7.4707,7.4707,7.4707,7.4245,7.3514,7.3514,7.3514,7.3504,7.365,7.3702,7.3713,7.3899,7.4524,7.5148,0.0,0.0,0.0,0.0,0.0,0.0,0.0,3.6009,3.7363,3.9179,3.9141,3.9492,4.1016,3.8867,3.7891,3.9375,3.5742,0.0,0.0,0.0,0.0,0.0,0.0,0.0,0.0,0.0,3.6289,3.6875,3.6872,3.6903,3.6891,3.6891,3.6512,3.5846,3.5788,3.5757,0.0,0.0,0.0,0.0,0.0,0.0,0.0,0.0,0.0,0.0,0.0,0.0,0.0,0.0,0.0,0.0,0.0,0.0,0.0,5.2226,5.5547,5.8515,5.9336,6.039,6.1289,6.1601,5.9922,5.8281,5.8633,5.6207,5.3576,5.2351,5.1952,5.1629,5.0984,5.3569,5.579,5.5782,5.9148,6.1632,6.1197,6.4636,6.7433,6.811,7.006,7.1397,7.1562,7.1207,7.0966,7.0898,7.0898,7.0898,7.0898,7.0898,7.0898,7.0898,7.0898,7.1206,7.1783,7.2052,7.2783,7.3899,7.4207,7.4784,7.5592,7.5592,7.5592,7.5553,7.4976,7.4553,7.4284,7.3745,7.3514,7.3514,7.3559,7.3906,7.4312,7.3844,7.4202,7.4784,0.0,0.0,0.0,0.0,0.0,0.0,0.0,3.4195,3.5156,3.6445,3.6758,3.7539,3.9531,3.7969,3.7383,3.8789,3.5547,0.0,0.0,0.0,0.0,0.0,0.0,0.0,3.5976,3.6016,3.6601,3.7773,3.7772,3.7961,3.8297,3.8272,3.7731,3.6748,3.6423,3.6182,0.0,0.0,0.0,0.0,0.0,0.0,3.5704,0.0,0.0,0.0,0.0,0.0,0.0,0.0,0.0,0.0,0.0,0.0,0.0,0.0,5.3047,5.6211,5.7383,5.8828,6.0,6.0195,5.867,5.7222,5.7768,5.5435,5.2948,5.2351,5.2214,5.2241,5.2193,5.4534,5.6575,5.692,6.0041,6.2313,6.1939,6.5297,6.8214,6.93,7.0795,7.1626,7.1387,7.1091,7.0898,7.0898,7.0898,7.0898,7.0898,7.1206,7.1398,7.1398,7.1398,7.1822,7.2668,7.2976,7.3668,7.4707,7.5014,7.5284,7.5515,7.5861,7.5668,7.5053,7.4822,7.4707,0.0,7.4168,7.4168,7.4437,7.4437,7.4745,7.513,7.463,7.4745,7.513,0.0,0.0,0.0,0.0,0.0,0.0,0.0,3.3379,3.4179,3.3476,3.4805,3.6133,3.7031,3.6328,3.6172,3.7031,0.0,0.0,0.0,0.0,0.0,0.0,0.0,0.0,3.5976,3.6055,3.6914,3.8594,3.8789,3.9293,4.0086,4.0091,3.9526,3.855,3.755,3.6969,0.0,0.0,0.0,0.0,3.4814,3.4969,0.0,0.0,0.0,0.0,0.0,0.0,0.0,0.0,0.0,0.0,0.0,0.0,0.0,0.0,0.0,0.0,0.0,5.6992,5.8827,5.8082,5.7793,5.769,5.769,5.5654,0.0,5.3598,5.3645,5.3684,5.374,5.5239,5.6775,5.7731,6.0069,6.1974,6.257,6.5607,6.8954,7.2181,7.2507,7.2414,7.2195,7.1398,7.0898,7.0898,7.0898,7.0937,7.0975,7.1745,7.2245,7.236,7.236,7.2783,7.3591,7.4322,7.4745,7.4822,7.563,7.5592,7.4822,7.563,7.5168,7.3745,7.4476,7.4784,7.4784,7.4784,7.5284,7.6015,7.6015,7.6015,7.6015,7.6015,7.6015,7.6015,0.0,0.0,0.0,0.0,0.0,0.0,0.0,0.0,0.0,0.0,3.375,3.4336,3.5234,3.4531,3.4375,0.0,0.0,0.0,0.0,0.0,0.0,0.0,0.0,0.0,3.5976,3.6641,3.7539,3.8594,4.0547,4.1624,4.1824,4.2424,4.1902,4.033,3.8711,3.724,0.0,0.0,0.0,0.0,3.5472,3.551,0.0,0.0,0.0,0.0,3.8218,3.934,0.0,0.0,0.0,0.0,0.0,0.0,0.0,0.0,4.8789,5.0156,5.1875,0.0,5.7289,5.7649,5.6732,5.5726,0.0,5.4569,5.3421,5.2643,5.3569,5.4502,5.4483,5.6574,5.8734,6.0151,6.2624,6.4363,6.4268,6.7106,7.0208,7.2931,7.27,7.225,7.2206,7.1398,7.0898,7.0898,7.0898,7.1206,7.186,7.2091,7.2783,7.4053,7.413,7.4207,7.4437,7.463,7.5014,7.5707,7.5899,7.5899,7.5707,7.5899,7.5784,7.5438,7.563,7.5707,7.5707,7.5707,7.5822,7.6015,7.6015,7.6015,7.6015,7.6015,7.6015,7.6015,0.0,0.0,0.0,0.0,0.0,0.0,0.0,0.0,0.0,0.0,0.0,3.3008,3.3516,3.3476,0.0,0.0,0.0,0.0,0.0,0.0,0.0,0.0,0.0,3.5312,3.6562,3.707,3.8281,4.0351,4.171,4.2774,4.3574,4.3955,4.3208,4.1419,3.9247,3.751,0.0,0.0,0.0,3.5665,3.524,0.0,0.0,0.0,0.0,0.0,3.8218,3.9379,0.0,4.1888,4.2205,4.2593,0.0,0.0,0.0,0.0,4.8203,4.9326,5.1351,5.3552,5.5514,5.6309,5.6051,5.5683,5.5991,5.5645,5.52,5.5075,5.5787,5.6553,5.694,5.8909,6.073,6.1585,6.4272,6.6566,6.7486,6.9823,7.1975,7.336,7.3091,7.2629,7.2245,7.2129,7.1745,7.0975,7.1629,7.2129,7.2206,7.2937,7.3745,7.4668,7.5476,7.5707,7.5284,7.5284,7.5745,7.6592,7.6592,7.6592,7.6592,7.6976,7.6938,7.663,7.6976,7.713,7.713,7.713,7.713,7.713,7.713,7.713,7.713,7.713,7.6899,7.6592,0.0,0.0,0.0,0.0,0.0,0.0,0.0,0.0,0.0,0.0,0.0,0.0,0.0,0.0,0.0,0.0,0.0,0.0,0.0,0.0,0.0,0.0,0.0,3.5664,3.7266,3.7578,3.9294,4.2561,4.313,4.4148,4.5674,4.56,4.4336,4.1957,3.9379,3.7715,0.0,0.0,3.5007,3.5626,3.4891,0.0,0.0,0.0,0.0,0.0,0.0,0.0,0.0,4.2588,4.2688,4.2558,4.4945,0.0,0.0,0.0,0.0,0.0,5.1835,5.3272,5.4314,5.5028,5.5788,5.6543,5.7207,5.7348,5.7582,5.8317,5.8487,5.8809,5.9959,6.1331,6.2453,6.2954,6.5814,6.8737,7.1156,7.2745,7.3745,7.386,7.3783,7.3399,7.2629,7.3129,7.2937,7.1591,7.286,7.3437,7.2822,7.4245,7.5091,7.5091,7.663,7.713,7.6399,7.6361,7.6746,7.7476,7.7476,7.7476,7.7515,7.8169,7.813,7.7515,7.8207,7.8477,7.8477,7.8477,7.8477,7.8477,7.8477,7.8477,7.8477,7.8477,7.8054,7.7476,0.0,0.0,0.0,0.0,0.0,0.0,0.0,0.0,0.0,0.0,0.0,0.0,0.0,0.0,0.0,0.0,0.0,0.0,0.0,0.0,0.0,3.4453,3.5351,3.6289,3.7266,3.875,4.0799,4.3434,4.6336,4.8203,4.9127,4.9057,4.6499,4.1893,3.934,3.7715,3.6826,3.5897,3.5588,3.5704,3.5549,0.0,0.0,0.0,0.0,0.0,0.0,0.0,0.0,4.1062,4.1397,4.1553,4.2642,0.0,0.0,0.0,0.0,0.0,5.1799,5.4024,5.5583,5.5742,5.6406,5.7059,5.704,5.7615,5.8171,5.8286,5.8842,5.9781,6.1443,6.2043,6.3186,6.5919,6.8604,7.126,7.3745,7.4361,7.4784,7.5515,7.4976,7.4476,7.4322,7.3822,7.3668,7.4091,7.4361,7.4784,7.5361,7.6361,7.6899,7.6899,7.7823,7.8246,7.813,7.813,7.8169,7.8323,7.8323,7.8323,7.8323,7.8438,7.8438,7.8323,7.8438,7.8477,7.8477,7.8477,7.8477,7.8477,7.8477,7.8477,7.8477,7.8477,7.84,7.8323,0.0,0.0,0.0,0.0,0.0,0.0,0.0,0.0,0.0,0.0,0.0,0.0,0.0,0.0,0.0,0.0,0.0,0.0,0.0,0.0,0.0,3.5903,3.6372,3.7015,3.7923,4.0073,4.2422,4.495,4.7426,4.9289,5.0506,4.9044,4.6303,4.2589,4.0036,3.84,3.7537,3.6234,3.5693,3.5643,0.0,0.0,0.0,0.0,0.0,0.0,0.0,0.0,0.0,0.0,4.1753,4.2062,4.3378,0.0,0.0,0.0,0.0,0.0,5.1824,5.4111,5.6097,5.6956,5.8175,5.9258,5.965,6.005,6.0473,6.0896,6.132,6.1935,6.3205,6.4224,6.5982,6.9309,7.0821,7.2322,7.4399,7.513,7.5553,7.5938,7.5668,7.5207,7.4745,7.5207,7.5322,7.4745,7.5976,7.6746,7.6707,7.7476,7.7938,7.7938,7.8746,7.9208,7.9208,7.9669,7.9669,7.9208,7.9208,7.9438,7.99,7.99,7.99,7.99,7.99,7.99,7.99,7.99,7.99,7.99,7.99,7.99,7.9862,7.9361,7.9208,7.9131,0.0,0.0,0.0,0.0,0.0,0.0,0.0,0.0,0.0,0.0,0.0,0.0,0.0,0.0,0.0,0.0,0.0,0.0,0.0,0.0,3.4535,3.672,3.7374,3.8218,3.9348,4.1465,4.42,4.7572,4.8856,4.9997,5.099,4.8546,4.6032,4.3518,4.1158,3.947,3.8363,3.6675,3.5825,3.5608,0.0,0.0,0.0,0.0,0.0,0.0,0.0,0.0,0.0,0.0,0.0,0.0,0.0,0.0,0.0,4.685,4.8671,5.0529,5.2158,5.4469,5.685,5.8479,5.9704,6.0819,6.2089,6.2358,6.2666,6.3705,6.3897,6.4243,6.5282,6.7013,6.9206,7.2052,7.2668,7.3283,7.4822,7.5592,7.6015,7.6015,7.6015,7.5822,7.5361,7.6515,7.6899,7.5976,7.7707,7.8554,7.79,7.8669,7.9015,7.8823,7.9669,8.0092,8.0092,8.0785,8.0746,8.0092,8.0092,8.0439,8.1093,8.1093,8.1093,8.1093,8.1093,8.1093,8.1093,8.1093,8.1093,8.1093,8.1093,8.1093,8.1016,8.0362,8.0092,8.0015,0.0,0.0,0.0,0.0,0.0,0.0,0.0,0.0,0.0,0.0,0.0,0.0,0.0,0.0,0.0,0.0,0.0,0.0,0.0,0.0,3.4847,3.5841,3.8156,4.0211,4.1902,4.2923,4.6182,5.1863,5.1979,5.1647,5.089,4.9126,4.696,4.4446,4.2626,4.0874,3.9213,3.7475,3.6305,3.5584,3.5584,0.0,0.0,0.0,0.0,0.0,0.0,0.0,0.0,0.0,0.0,0.0,0.0,0.0,4.5171,4.6119,4.8535,5.1295,5.3058,5.5769,5.8534,6.0204,6.0089,6.0242,6.2666,6.3205,6.3705,6.5359,6.5705,6.6205,6.7821,7.0167,7.2168,7.3245,7.4053,7.4861,7.5784,7.5976,7.6015,7.6015,7.6015,7.6284,7.7053,7.7207,7.79,7.9323,7.9592,7.9669,7.9631,8.0439,8.0554,7.9746,8.0554,8.1016,8.1016,8.1054,8.1054,8.1016,8.1016,8.1054,8.1093,8.1093,8.1093,8.1093,8.1093,8.1093,8.1093,8.1093,8.1093,8.1093,8.1093,8.1093,8.1093,8.1016,8.1016,8.1016,0.0,0.0,0.0,0.0,0.0,0.0,0.0,0.0,0.0,0.0,0.0,0.0,0.0,0.0,0.0,0.0,0.0,0.0,0.0,3.3898,3.5002,3.6439,3.7924,3.9997,4.2741,4.5297,4.8191,5.1415,5.3022,5.279,5.0897,5.0223,4.7697,4.368,4.3048,4.1475,3.9262,3.8105,3.7128,3.6344,3.6344,3.6061,0.0,0.0,0.0,0.0,0.0,0.0,0.0,0.0,4.0836,4.2003,4.2889,4.4319,4.6073,4.7969,5.0775,5.3626,5.5358,5.8199,6.0935,6.2089,6.2512,6.3205,6.5205,6.5667,6.6167,6.7898,6.8244,6.8783,7.0437,7.1975,7.3283,7.413,7.4514,7.5014,7.5861,7.6015,7.6015,7.6015,7.6476,7.6938,7.7284,7.8246,7.9131,7.9746,8.0285,8.0592,8.0592,8.0939,8.0939,8.0631,8.0939,8.1093,8.1093,8.1093,8.1093,8.1093,8.1093,8.1093,8.1093,8.1093,8.1093,8.1093,8.1093,8.1093,8.1093,8.1093,8.1093,8.1093,8.1093,8.1093,8.1093,8.1093,8.1093,8.1093,0.0,0.0,0.0,0.0,0.0,0.0,0.0,0.0,0.0,0.0,0.0,0.0,0.0,0.0,0.0,0.0,0.0,0.0,3.307,3.4113,3.5245,3.6427,3.7846,3.9767,4.2342,4.6113,4.9103,5.1283,5.3044,5.2717,5.0439,5.0135,4.7841,4.3983,4.3698,4.2294,4.0068,3.8965,3.7987,3.7151,3.6881,3.6446,0.0,0.0,0.0,0.0,0.0,0.0,0.0,0.0,4.051,4.2066,4.3458,4.4898,4.6523,4.907,5.2492,5.5671,5.6868,5.9588,6.2358,6.3435,6.4359,6.5667,6.8129,6.8282,6.8475,7.0475,7.0898,7.1321,7.2745,7.3476,7.4168,7.4976,7.513,7.5322,7.5938,7.6015,7.6092,7.6361,7.6938,7.7515,7.8054,7.9131,7.99,8.0208,8.0746,8.1093,8.1093,8.1093,8.1093,8.1093,8.1093,8.1093,8.1093,8.1093,8.1093,8.1093,8.1093,8.1093,8.1093,8.1093,8.1093,8.1093,8.1093,8.1093,8.1093,8.1093,8.1093,8.1093,8.1093,8.1093,8.1093,8.1093,8.1093,8.1093,0.0,0.0,0.0,0.0,0.0,0.0,0.0,0.0,0.0,0.0,0.0,0.0,0.0,0.0,0.0,0.0,0.0,0.0,3.3098,3.4654,3.5581,3.5581,3.8029,3.9805,4.0681,4.4808,4.8651,5.2085,5.2085,5.1198,4.9461,4.869,4.7378,4.5642,4.4784,4.3458,4.1763,4.0023,3.8815,3.793,3.7084,3.6699,3.6622,0.0,0.0,0.0,0.0,0.0,0.0,0.0,4.013,4.1257,4.3811,4.5209,4.6424,4.8965,5.3266,5.7214,5.7235,5.9626,6.2551,6.4205,6.5282,6.7051,7.1245,7.0937,7.0437,7.3014,7.3514,7.3783,7.4553,7.4707,7.5014,7.5861,7.6015,7.6015,7.6015,7.6015,7.6322,7.7207,7.7323,7.7977,7.9631,7.9823,8.0169,8.1054,8.1093,8.1093,8.1093,8.1093,8.1093,8.1093,8.1093,8.1093,8.1093,8.1093,8.1093,8.1093,8.1093,8.1093,8.1093,8.1093,8.1093,8.1093,8.1093,8.1093,8.1093,8.1093,8.1093,8.1093,8.1093,8.1093,8.1093,8.1093,8.1093,8.1093,0.0,0.0,0.0,0.0,0.0,0.0,0.0,0.0,0.0,0.0,0.0,0.0,0.0,0.0,0.0,0.0,0.0,0.0,3.3037,3.4619,3.5596,3.5596,3.6858,3.8234,3.9673,4.3265,4.7097,5.1198,5.1141,5.0236,4.8579,4.8929,4.7216,4.3904,4.485,4.3618,4.0885,4.0369,3.9662,3.8892,3.8623,3.7777,3.6661,0.0,0.0,0.0,0.0,0.0,0.0,0.0,0.0,0.0,4.393,4.5506,4.7287,5.0433,5.3644,5.6673,5.91,6.2213,6.5166,6.6859,6.8359,7.0206,7.3245,7.2668,7.2014,7.3937,7.4361,7.4591,7.5476,7.563,7.5707,7.5976,7.6015,7.6015,7.6015,7.6515,7.7015,7.7284,7.8323,7.9246,7.9746,8.0362,8.0823,8.1093,8.1093,8.1093,8.1093,8.1093,8.1093,8.1093,8.1093,8.1093,8.1093,8.1093,8.1093,8.1093,8.1093,8.1093,8.1093,8.1093,8.1093,8.1093,8.1093,8.1093,8.1093,8.1093,8.1093,8.1093,8.1093,8.1093,8.1093,8.1093,8.1093,8.1093,0.0,0.0,0.0,0.0,0.0,0.0,0.0,0.0,3.0379,3.0379,3.0379,3.0379,0.0,0.0,0.0,3.0398,3.1977,0.0,3.2987,3.4608,3.5611,3.5611,3.637,3.7577,3.9268,4.1947,4.4773,4.7752,4.839,4.8487,4.8179,4.8682,4.7355,4.4662,4.6009,4.4893,4.197,4.1316,4.0739,4.0239,3.9585,3.8661,3.77,0.0,0.0,0.0,0.0,0.0,0.0,0.0,0.0,0.0,4.4206,4.5634,4.7394,5.2124,5.5286,5.7973,6.1396,6.4551,6.7205,6.859,7.0167,7.2245,7.5476,7.5168,7.4399,7.5091,7.5207,7.5399,7.5899,7.6015,7.6015,7.6015,7.6015,7.613,7.6476,7.6908,7.7455,7.8146,7.9146,7.9876,8.0184,8.0754,8.1093,8.1093,8.1093,8.1093,8.1093,8.1093,8.1093,8.1093,8.1093,8.1093,8.1093,8.1093,8.1093,8.1093,8.14,8.1593,8.1593,8.1593,8.1593,8.1593,8.1939,8.19,8.1593,8.1593,8.14,8.1093,8.1093,8.1093,8.1093,8.1093,8.1093,8.1093,0.0,0.0,0.0,0.0,0.0,0.0,0.0,3.0379,3.0379,3.0379,3.0379,3.0379,0.0,0.0,0.0,3.0398,3.1977,3.2991,3.2987,3.4646,3.5572,3.5611,3.6382,3.7497,3.9008,4.0623,4.197,4.297,4.4739,4.6394,4.7894,4.8048,4.7625,4.6817,4.7625,4.6624,4.4201,4.2508,4.1816,4.1662,4.0046,3.9315,3.9084,3.8315,0.0,0.0,0.0,0.0,0.0,0.0,0.0,0.0,4.4432,4.5586,4.6971,5.3356,5.7165,6.0012,6.3358,6.6282,6.8667,6.9667,7.136,7.3783,7.763,7.8015,7.7246,7.6322,7.6053,7.6015,7.6015,7.6015,7.6015,7.6015,7.6024,7.637,7.7139,7.7309,7.793,7.9505,7.9774,8.012,8.0849,8.1061,8.1093,8.1093,8.1093,8.1093,8.1093,8.1093,8.1093,8.1093,8.1093,8.1093,8.1093,8.117,8.1208,8.1208,8.2016,8.2401,8.2401,8.2401,8.2401,8.2439,8.3247,8.3131,8.2401,8.2401,8.1977,8.1323,8.1323,8.1323,8.1323,8.1323,8.1323,8.1323,0.0,0.0,0.0,0.0,0.0,0.0,3.0379,3.0379,3.0379,3.0379,3.0379,3.0379,3.0379,3.0379,0.0,3.0398,3.1977,3.2991,3.2991,3.4571,3.5522,3.5534,3.629,3.6892,3.7238,3.8277,3.9892,4.2085,4.4432,4.5778,4.6163,4.7471,4.7317,4.5932,4.6778,4.6086,4.4201,4.2508,4.1816,4.17,4.0662,3.9431,3.8277,3.8084,3.6969,0.0,0.0,0.0,0.0,0.0,0.0,0.0,4.3932,4.5509,4.7317,5.0741,5.4511,5.8127,6.0858,6.4936,6.8936,7.1129,7.4437,7.74,7.8231,7.8846,7.873,7.7193,7.6378,7.5985,7.5925,7.5925,7.5925,7.5925,7.6401,7.6869,7.7061,7.8244,7.9275,7.9659,8.0376,8.0869,8.1023,8.1093,8.1093,8.1093,8.1093,8.1093,8.1093,8.1093,8.1093,8.1093,8.1093,8.1093,8.1093,8.1747,8.2054,8.2054,8.2901,8.3324,8.3324,8.3324,8.3324,8.3324,8.3516,8.3478,8.3324,8.3324,8.3208,8.3054,8.3054,8.3054,8.3054,8.3054,8.3054,8.3054,0.0,0.0,0.0,0.0,0.0,0.0,0.0,0.0,3.0379,3.0379,3.0379,3.0379,3.0379,3.0379,0.0,0.0,3.1954,3.2954,3.2954,3.4533,3.5482,3.5507,3.5892,3.6122,3.6122,3.6969,3.843,4.0585,4.2316,4.3778,4.5009,4.674,4.6855,4.5663,4.7355,4.7163,4.5432,4.3739,4.2777,4.2316,4.1008,3.9738,3.8661,3.9046,3.843,3.7353,3.7777,0.0,0.0,0.0,0.0,0.0,0.0,0.0,4.7625,5.1395,5.4626,5.7896,6.2089,6.5782,6.9294,7.3034,7.6225,7.8615,7.9396,7.9594,7.9248,7.784,7.6984,7.6356,7.5972,7.5864,7.5948,7.637,7.676,7.7303,7.807,7.899,7.9719,8.0169,8.0663,8.0965,8.0965,8.1061,8.1061,8.0991,8.1061,8.1093,8.1093,8.1093,8.1093,8.1093,8.1093,8.1285,8.167,8.2093,8.2516,8.2939,8.3824,8.4401,8.4786,8.4401,8.4439,8.4786,8.4786,8.4593,8.4209,8.4209,8.3978,8.3593,8.3593,8.3593,8.3593,8.3593,8.3593,8.3593,0.0,0.0,0.0,0.0,0.0,0.0,0.0,0.0,0.0,3.0379,3.0379,3.0379,3.0379,3.0379,3.0456,0.0,0.0,0.0,3.3122,3.4622,3.5493,3.5493,3.5493,3.5493,3.5493,3.6161,3.7353,3.9084,3.9738,4.1277,4.3701,4.574,4.6278,4.5701,4.7971,4.8279,4.7009,4.5278,4.4239,4.3624,4.2008,4.0893,4.0239,4.0893,4.0662,4.0008,4.0546,4.0816,4.1162,4.2431,0.0,0.0,0.0,0.0,4.7932,5.1972,5.4895,5.7896,6.3166,6.6782,7.0113,7.4551,7.7016,7.8749,8.0251,8.0033,7.9312,7.8543,7.762,7.6766,7.5986,7.5878,7.612,7.6848,7.7126,7.7743,7.9159,7.9358,7.9665,8.0537,8.065,8.0685,8.0792,8.0965,8.1029,8.0888,8.0991,8.1061,8.1093,8.1093,8.1093,8.1093,8.1246,8.1631,8.2285,8.2593,8.3093,8.3824,8.4709,8.5478,8.6094,8.5401,8.5478,8.6094,8.6094,8.5709,8.5132,8.5132,8.467,8.4016,8.4016,8.4016,8.4016,8.4016,8.4016,8.4016,0.0,0.0,0.0,0.0,0.0,0.0,0.0,0.0,0.0,0.0,3.0379,3.0379,3.0379,3.0379,3.0698,3.1468,3.2352,3.3237,3.3968,0.0,0.0,3.5493,3.5493,3.5493,3.5493,3.5622,3.6507,3.8161,3.8277,3.9238,4.1085,4.4278,4.5701,4.5624,4.674,4.7509,4.7817,4.6124,4.5817,4.6317,4.5316,4.4393,4.3624,4.3739,4.3278,4.2508,4.1854,4.2124,4.2662,4.2162,4.2931,0.0,0.0,0.0,4.7932,4.7932,5.1702,5.6395,5.8704,6.5346,7.2131,7.4243,7.6562,7.853,7.945,7.9743,7.978,7.9386,7.8108,7.6695,7.5786,7.6246,7.6786,7.6863,7.7684,7.8394,7.8584,7.8933,7.938,7.992,8.0083,8.0316,8.0758,8.0826,8.086,8.0888,8.0926,8.0991,8.1093,8.1093,8.1093,8.1093,8.1785,8.217,8.2285,8.3785,8.4632,8.4747,8.5555,8.6017,8.6094,8.5978,8.6017,8.6094,8.6094,8.6055,8.594,8.594,8.5863,8.5786,8.5786,8.5786,8.5786,8.5786,8.5786,8.5786,0.0,0.0,0.0,0.0,0.0,0.0,0.0,0.0,0.0,0.0,0.0,3.0969,3.0969,3.1456,3.1968,3.2352,3.3122,3.4007,3.4853,3.5276,3.5493,3.5493,3.5493,3.5493,3.5493,3.5493,3.6084,3.7276,3.7777,3.8854,4.0546,4.3475,4.4589,4.4205,4.5568,4.6876,4.801,4.678,4.6511,4.6723,4.536,4.5419,4.6186,4.4802,4.6108,4.8414,4.6145,4.6201,4.7086,4.5278,4.5163,4.5663,4.5163,0.0,0.0,0.0,5.0818,5.4643,5.9696,6.5743,7.1257,7.3814,7.6105,7.7951,7.8752,7.9145,7.9177,7.8609,7.7893,7.7065,7.6084,7.6541,7.6958,7.6717,7.7483,7.8209,7.8661,7.9131,7.9538,7.9836,8.0161,8.0428,8.065,8.0792,8.086,8.086,8.0959,8.1061,8.1093,8.1093,8.1323,8.1747,8.2131,8.2785,8.3747,8.4516,8.5132,8.5593,8.594,8.6094,8.6094,8.6094,8.6094,8.6094,8.6094,8.6094,8.6094,8.6094,8.6094,8.6094,8.6094,8.6094,8.6094,8.6094,8.6094,8.6094,0.0,0.0,0.0,0.0,0.0,0.0,0.0,0.0,0.0,0.0,0.0,3.163,3.1713,0.0,0.0,0.0,3.3814,3.4584,3.543,3.5493,3.5493,3.5493,3.5493,3.5493,3.5493,3.5493,3.5892,3.6699,3.7584,3.8738,4.0223,4.271,4.3691,4.3366,4.534,4.6877,4.8049,4.7607,4.7415,4.7377,4.6934,4.7757,4.9099,4.8163,5.0657,5.4265,5.1083,5.0816,5.1508,4.8741,4.7664,4.7337,4.6222,4.6491,0.0,0.0,0.0,5.4182,6.0287,6.5179,6.9347,7.2663,7.4789,7.6379,7.7728,7.822,7.8329,7.8102,7.7929,7.7479,7.6488,7.6841,7.7206,7.6836,7.7354,7.8054,7.8616,7.8891,7.9171,7.9403,7.9756,8.0043,8.0162,8.0316,8.0391,8.0354,8.054,8.0646,8.0681,8.0911,8.1329,8.1943,8.2364,8.3208,8.4512,8.4742,8.5164,8.5739,8.5739,8.5739,8.5739,8.5739,8.5813,8.5919,8.606,8.6094,8.6094,8.6094,8.6094,8.6094,8.6094,8.6094,8.6094,8.6094,8.6094,8.6094,0.0,0.0,0.0,0.0,0.0,0.0,0.0,0.0,0.0,0.0,0.0,3.2345,3.2523,3.2592,3.3049,3.4032,3.416,3.4584,3.543,3.5493,3.5493,3.5493,3.5493,0.0,3.5493,3.5493,3.5892,3.6699,3.7584,3.8454,3.933,4.1865,4.3425,4.4135,4.6722,4.7913,4.8049,4.8757,4.9081,4.937,5.2494,5.3376,5.3069,5.6113,5.7991,5.8642,5.6036,5.5178,5.4756,5.1502,4.9834,4.8894,4.7242,4.7357,4.7875,0.0,0.0,0.0,5.8011,6.2131,6.6797,7.0442,7.1978,7.3303,7.606,7.683,7.7378,7.8715,7.8551,7.7848,7.7047,7.7316,7.7652,7.7603,7.7872,7.8108,7.8146,7.771,7.7629,7.8146,7.82,7.8432,7.894,7.8989,7.9037,7.918,7.932,7.9411,7.9507,8.039,8.0927,8.0965,8.252,8.3392,8.3468,8.4309,8.4727,8.4765,8.4765,8.4765,8.4765,8.4765,8.4986,8.5475,8.5919,8.6094,8.6094,8.6094,8.6094,8.6094,8.6094,8.6094,8.6094,8.6094,8.6094,8.6094,0.0,0.0,0.0,0.0,0.0,0.0,0.0,0.0,0.0,0.0,0.0,0.0,0.0,3.3545,3.4111,3.456,3.4748,3.5009,3.5455,3.5493,3.5493,3.5493,3.5493,3.5493,3.5493,3.5493,3.5661,3.593,3.7315,3.8146,3.8447,4.2061,4.3522,4.317,4.536,4.6607,4.7182,4.8579,4.9133,4.9477,5.3413,5.6129,5.7813,5.8489,6.0659,6.2881,5.9843,0.0,5.7493,5.468,5.2439,5.056,4.8912,4.8241,4.8068,4.8318,5.0256,5.3212,5.7128,6.0201,6.3399,6.7711,7.0684,7.2755,7.3501,7.5085,7.6544,7.7051,7.7398,7.7643,7.7961,7.7942,7.7659,7.6792,7.7193,7.757,7.757,7.771,7.7903,7.8072,7.8416,7.869,7.8891,7.8989,7.9037,7.9085,7.9632,8.0028,8.0037,8.083,8.1594,8.2161,8.2765,8.338,8.3909,8.4211,8.4362,8.4362,8.4362,8.4362,8.4362,8.4495,8.4734,8.524,8.5514,8.5849,8.6094,8.6094,8.6094,8.6094,8.6094,8.6094,8.6094,8.6094,8.6094,8.6094,0.0,0.0,0.0,0.0,0.0,0.0,0.0,0.0,0.0,3.2305,0.0,0.0,0.0,0.0,3.4614,3.4753,3.4926,3.5107,3.5223,3.5223,3.5223,3.5223,3.5223,3.5223,3.5223,3.4986,3.5002,3.5354,3.6481,3.7302,3.7939,4.1207,4.2525,4.2252,4.4217,4.5529,4.6443,4.8777,4.9601,4.9792,5.4704,5.7958,6.0064,6.1086,6.3321,6.555,6.2901,6.1573,6.0771,5.8673,5.6635,5.4645,5.2589,5.0826,4.9357,4.8865,4.9877,5.1959,5.5492,5.7936,6.0561,6.5008,6.8312,7.0686,7.1213,7.324,7.5198,7.5946,7.6533,7.7157,7.8002,7.7998,7.771,7.7402,7.7561,7.7745,7.7745,7.7777,7.7789,7.7789,7.8146,7.8363,7.8363,7.8432,7.8633,7.8932,7.9523,7.9949,8.0249,8.1087,8.1949,8.2826,8.2826,8.3126,8.3651,8.3688,8.3688,8.3688,8.3688,8.3688,8.3688,8.3795,8.4117,8.456,8.4689,8.524,8.6094,8.6094,8.6094,8.6094,8.6094,8.6094,8.6094,8.6094,8.6094,8.6094,0.0,0.0,0.0,0.0,0.0,0.0,0.0,0.0,3.3066,3.3839,0.0,0.0,0.0,0.0,0.0,3.471,3.4693,3.4713,3.4713,3.4713,3.4713,3.4713,3.4713,3.4713,3.4713,3.3941,3.3998,3.4999,3.5086,3.6031,3.7764,3.9203,4.0459,4.157,4.3567,4.4927,4.5923,4.9514,5.061,5.0486,5.6692,5.9223,5.9712,6.4313,6.6353,6.658,6.5338,6.4817,6.4592,6.3349,6.2368,6.1093,5.8094,5.5026,5.1858,4.858,4.9961,5.2639,0.0,0.0,0.0,6.2463,6.4867,6.6891,6.9392,7.1397,7.3329,7.5506,7.6019,7.6313,7.7157,7.7304,7.7855,7.9507,7.9103,7.8589,7.8552,7.7855,7.7341,7.7304,7.7304,7.7304,7.7304,7.7304,7.7671,7.8516,7.8713,7.9204,8.0014,8.0985,8.192,8.2696,8.2696,8.2696,8.2696,8.2696,8.2696,8.2696,8.2696,8.2696,8.2696,8.2696,8.2987,8.3415,8.3415,8.442,8.606,8.606,8.6094,8.6094,8.6094,8.6094,8.6094,8.6094,8.6094,8.6094,0.0,0.0,0.0,0.0,0.0,3.322,3.344,3.399,3.4458,0.0,0.0,0.0,0.0,0.0,3.5032,3.5264,3.4735,3.4508,3.4693,3.4713,3.4713,3.4713,3.4713,3.4713,3.4713,3.4469,3.4489,3.4755,3.5362,3.5892,3.6381,3.8666,4.0,4.0712,4.3905,4.5536,4.6086,4.9888,5.1387,5.1769,5.8314,6.1319,6.2332,6.6628,6.8286,6.848,6.9336,6.809,6.6056,6.627,6.4065,6.0591,5.7422,5.5593,5.4086,5.1398,5.0832,5.1405,5.2799,0.0,0.0,0.0,0.0,0.0,6.7295,7.0128,7.2737,7.3377,7.4441,7.5652,7.7047,7.7304,7.7855,7.9507,7.9103,7.8369,7.7781,7.8002,7.8002,7.7378,7.7304,7.7304,7.7304,7.7304,7.7671,7.8516,7.9165,7.9863,8.0672,8.1544,8.2095,8.2316,8.2316,8.2316,8.2316,8.2316,8.2316,8.2316,8.2316,8.2316,8.2316,8.2444,8.2769,8.3246,8.3359,8.3876,8.4778,8.52,8.5627,8.6031,8.606,8.6094,8.6094,8.6094,8.6094,8.6094,0.0,0.0,3.3109,3.3109,3.377,3.4321,3.4321,3.5018,3.5679,0.0,0.0,0.0,0.0,0.0,0.0,3.635,3.5625,3.5033,3.4843,3.4829,3.468,3.4344,3.4307,3.4307,3.4307,3.4016,3.4061,3.4502,3.4658,3.5281,3.6318,3.7689,3.8901,4.0011,4.3327,4.5259,4.6356,5.0898,5.2752,5.3082,5.8862,6.1861,6.3343,6.7254,6.8833,6.9191,7.0612,6.9481,6.7531,6.916,6.6971,6.3158,6.0868,5.839,5.5809,5.3302,5.1734,5.1102,5.2339,5.312,5.4428,5.8164,0.0,0.0,6.6103,6.8879,7.1451,7.2716,7.3744,7.4882,7.6497,7.6827,7.7231,7.8552,7.8662,7.8405,7.7928,7.8295,7.8295,7.7414,7.7635,7.7708,7.7378,7.7304,7.7671,7.8516,7.9029,7.9653,8.0461,8.1269,8.1709,8.1709,8.2003,8.2186,8.2186,8.2186,8.2186,8.2186,8.2186,8.2186,8.2186,8.2316,8.2497,8.2793,8.2853,8.3189,8.3704,8.4179,8.4651,8.5238,8.528,8.528,8.528,8.5398,8.5398,8.5437,0.0,0.0,3.3844,3.4064,3.4688,3.5174,3.5357,3.6156,3.6964,0.0,3.7845,0.0,0.0,0.0,0.0,0.0,3.7074,3.6193,3.532,3.5174,3.4798,3.3954,3.3844,3.3807,3.3807,3.3162,3.3253,3.4167,3.3496,3.447,3.6929,3.6756,3.7724,3.9698,4.2405,4.4739,4.6977,5.2026,5.4248,5.4756,5.9099,6.167,6.3443,6.7216,6.8985,6.9528,7.0772,7.0212,6.9272,7.1545,7.0106,6.7246,6.606,6.2361,5.7835,5.5016,5.3198,5.2233,5.2357,5.2629,5.3714,5.7242,5.9412,0.0,6.5426,6.7573,6.9613,7.2369,7.2973,7.3523,7.5139,7.5432,7.5799,7.6864,7.7671,7.8259,7.8442,7.8552,7.8295,7.7414,7.8002,7.8148,7.7414,7.7414,7.7818,7.8662,7.8809,7.914,7.9764,8.0571,8.1012,8.1012,8.1782,8.2186,8.2186,8.2186,8.2186,8.2186,8.2186,8.2186,8.2186,8.2186,8.2186,8.2186,8.2186,8.2434,8.2913,8.3053,8.3543,8.4179,8.4179,8.4179,8.4216,8.4325,8.441,8.4458,3.3587,3.3697,3.4211,3.5569,3.5936,3.6486,3.7771,3.8652,3.9239,3.9386,4.001,0.0,0.0,0.0,0.0,0.0,3.9056,3.7881,3.7074,3.6413,3.5679,3.477,3.4137,3.3807,3.3807,3.366,3.3676,3.3887,3.3729,3.4602,3.6436,3.7043,3.8552,4.0867,4.3348,4.614,4.9081,5.1467,5.4663,5.8465,6.1973,6.3579,6.439,6.8951,7.1177,7.2005,7.3513,7.3476,7.2502,7.141,7.0344,6.8967,6.5864,6.4831,6.3726,5.8649,5.7398,5.7242,5.5397,5.4963,5.5631,5.829,6.0199,0.0,6.4053,6.5815,6.719,6.776,6.8421,6.9339,7.0954,7.1284,7.2165,7.4918,7.5506,7.6093,7.7378,7.8148,7.8295,7.7414,7.7451,7.7524,7.7341,7.7928,7.8699,7.9507,8.0167,8.0314,7.98,8.0571,8.1012,8.1012,8.1782,8.2186,8.2186,8.2186,8.2186,8.2186,8.2186,8.2186,8.2186,8.2186,8.2186,8.2186,8.2186,8.2251,8.2343,8.2407,8.3053,8.4029,8.4129,8.4179,8.4216,8.4228,8.4228,8.4341,3.3807,3.4137,3.4798,3.6083,3.6964,3.7918,3.9093,3.9974,4.0781,4.1589,0.0,0.0,0.0,0.0,0.0,0.0,0.0,0.0,4.001,3.99,3.8982,3.6927,3.645,3.5679,3.4431,3.4394,3.4211,3.3807,3.3807,3.4871,3.689,3.7294,4.0267,4.5296,4.5736,4.8636,5.3261,5.4473,5.6638,5.9428,6.1851,6.3833,6.5742,6.9779,7.2055,7.3303,7.4918,7.5249,7.4574,7.2337,7.1213,7.0386,6.8594,6.6758,6.464,6.1374,5.9832,5.8767,5.6748,5.5904,5.6161,5.8621,0.0,0.0,0.0,6.5338,6.6035,6.6402,6.7136,6.8054,6.9265,6.9486,7.0293,7.2716,7.378,7.4294,7.4331,7.7121,7.8736,7.7451,7.8038,7.8222,7.7414,7.7708,7.8295,7.914,7.958,7.9617,7.9213,8.0351,8.0828,8.0424,8.1562,8.2186,8.2186,8.2186,8.2186,8.2186,8.2186,8.2186,8.2186,8.2186,8.2186,8.2186,8.2186,8.2186,8.2223,8.2627,8.315,8.3669,8.3338,8.3189,8.3264,8.3751,8.39,8.4068,3.378,3.444,3.532,3.634,3.7845,3.9313,4.0414,4.1295,4.2433,4.4195,0.0,0.0,0.0,0.0,0.0,0.0,0.0,0.0,4.4305,4.4452,4.3424,4.0671,3.9827,3.8469,3.6421,3.6091,3.5422,3.4284,3.4578,3.5752,3.7734,3.8212,4.2066,4.8563,4.8379,5.1206,5.6235,5.8107,5.9391,6.0309,6.2218,6.4677,6.7577,7.0954,7.312,7.4551,7.5873,7.624,7.5836,7.4037,7.2789,7.1945,7.1651,6.9082,6.5815,6.4053,6.2254,6.0382,5.829,5.7152,0.0,0.0,0.0,5.9758,0.0,0.0,0.0,6.5668,6.6292,6.699,6.7834,6.7981,6.8421,6.9706,7.1394,7.2018,7.0587,7.4882,7.7781,7.6754,7.8075,7.8626,7.7451,7.8038,7.8516,7.8589,7.9176,7.925,7.8626,8.0131,8.0718,8.0021,8.1415,8.2186,8.2186,8.2186,8.2186,8.2186,8.2186,8.2186,8.2186,8.2186,8.2186,8.2186,8.237,8.2443,8.248,8.3324,8.3654,8.3581,8.292,8.2663,8.2737,8.3492,8.3778,8.4018,3.3662,3.4412,3.5495,3.7074,3.8689,4.0524,4.2727,4.3791,4.5112,4.7462,0.0,0.0,0.0,0.0,0.0,0.0,0.0,0.0,5.0986,4.9591,4.8343,4.7278,4.3791,4.1772,4.1479,4.0084,3.8248,3.6009,3.7441,3.8285,3.8615,4.0744,4.302,4.548,5.0362,5.2931,5.3995,5.9795,6.2768,6.3796,6.6843,6.8715,7.011,7.4074,7.613,7.6937,7.7121,7.6717,7.6166,7.6607,7.5763,7.4258,7.2826,7.2973,7.2679,6.7577,6.6402,6.5888,6.2071,6.0456,0.0,0.0,6.0713,6.152,6.2805,0.0,6.3135,6.3209,0.0,6.3613,6.4494,0.0,0.0,6.4897,6.6843,6.8054,6.7173,7.0073,7.2716,7.3964,7.5542,7.6717,7.7268,8.0608,8.1562,7.8809,8.1232,8.1636,7.8736,8.0131,8.0975,8.0865,8.1746,8.2186,8.2186,8.2186,8.2186,8.2186,8.2186,8.2186,8.2186,8.2186,8.2186,8.2223,8.2957,8.3287,8.3324,8.4132,8.4462,8.4462,8.4352,8.4315,8.4352,8.4425,8.4462,8.4639,3.432,3.5137,3.6413,3.8505,3.9827,4.1405,4.3828,4.5663,4.7352,4.8857,0.0,0.0,0.0,0.0,0.0,0.0,0.0,5.5184,0.0,0.0,5.1967,4.9848,4.7645,4.559,4.3754,4.258,4.0818,3.8395,3.9056,3.9863,4.0818,4.1846,4.5186,5.0472,5.3335,5.6418,5.9758,6.3392,6.6256,6.8458,7.0257,7.2606,7.5065,7.5322,7.6533,7.8075,7.8075,7.7855,7.7524,7.7378,7.6864,7.6093,7.4955,7.4735,7.4184,7.0403,6.9192,6.8311,6.4714,6.3833,6.3613,6.2144,6.2438,0.0,6.2842,0.0,6.2695,0.0,0.0,0.0,0.0,0.0,0.0,0.0,6.5705,6.6549,6.5264,6.7871,7.0513,7.2129,7.334,7.4698,7.646,7.947,8.0755,7.9396,8.1415,8.1709,7.9396,8.0828,8.1489,8.1012,8.1782,8.2186,8.2186,8.2186,8.2186,8.2186,8.2186,8.2186,8.2223,8.27,8.292,8.2957,8.3765,8.4095,8.4168,8.4976,8.5306,8.5343,8.582,8.5416,8.4646,8.5123,8.5306,8.5416,3.5264,3.5834,3.6795,3.8615,4.0088,4.2032,4.4929,4.7609,4.9627,5.0472,0.0,0.0,5.4546,5.6483,0.0,0.0,5.9298,5.914,0.0,5.8128,5.6932,5.4415,5.2522,5.0325,4.7679,4.625,4.4085,4.1222,4.1662,4.2249,4.2983,4.3644,4.7462,5.3812,5.55,5.8914,6.3576,6.6072,6.8641,7.1101,7.2569,7.5359,7.8442,7.6827,7.7231,7.8626,7.8846,7.8919,7.8883,7.8479,7.8038,7.7561,7.6974,7.624,7.5102,7.2679,7.1541,7.0367,6.7173,6.6733,6.6623,6.4383,6.4457,0.0,0.0,0.0,0.0,0.0,0.0,0.0,0.0,0.0,0.0,0.0,0.0,6.442,6.2401,6.4677,6.743,6.9706,7.1284,7.3046,0.0,7.8479,8.0057,7.9176,8.1452,8.1966,7.991,8.1305,8.1929,8.1342,8.2113,8.2406,8.2186,8.2186,8.2186,8.2186,8.2186,8.2333,8.2553,8.3141,8.3544,8.3765,8.4572,8.4939,8.4976,8.5783,8.6114,8.6187,8.6775,8.6297,8.5343,8.5894,8.6114,8.6224,3.6421,3.6266,3.62,3.6384,3.8957,4.2368,4.6397,4.9774,5.216,5.3004,5.5868,0.0,0.0,0.0,0.0,0.0,0.0,6.6517,6.5715,6.5057,6.4217,6.3235,5.8956,5.6071,5.5103,5.2113,4.86,4.4562,4.614,4.6104,4.4672,4.7021,4.9517,5.2234,5.6161,5.9318,6.1998,6.6806,6.9339,7.0403,7.356,7.635,7.8662,7.936,7.9213,7.8699,7.947,7.9764,7.9874,8.0645,7.9837,7.8552,7.8516,7.7928,7.6754,7.4331,7.3597,7.2863,6.9669,6.8788,6.8421,6.6806,6.699,6.7173,0.0,0.0,6.4751,0.0,0.0,0.0,0.0,0.0,0.0,0.0,0.0,0.0,0.0,5.9134,6.2181,6.6182,6.9449,0.0,0.0,7.8846,8.0791,0.0,8.1819,8.3141,7.9947,8.1305,8.2186,8.215,8.2957,8.2994,8.2186,8.2186,8.2186,8.2186,8.2186,8.2627,8.3361,8.3398,8.3838,8.4609,8.5416,8.5747,8.582,8.6628,8.6958,8.6958,8.6995,8.6995,8.6921,8.6958,8.6958,8.6995,3.7071,3.6844,3.718,3.8988,4.0377,4.2698,4.6924,5.0304,5.2952,5.4542,5.7137,5.9179,6.0009,6.176,6.3403,0.0,0.0,6.4785,6.507,6.4471,0.0,6.2867,5.9953,5.7941,0.0,5.4459,5.172,4.8746,4.8746,4.8196,4.7095,4.7939,4.9627,5.216,5.6198,5.9942,6.3539,6.7871,7.1688,7.5102,7.7855,7.9433,8.0094,7.9286,7.9507,8.0167,7.9874,8.0131,8.0534,8.0277,8.0204,8.0094,7.9543,7.9176,7.8589,7.6644,7.5726,7.4808,7.2642,7.2863,7.2899,6.9669,7.0293,7.0954,6.8311,0.0,0.0,0.0,0.0,0.0,0.0,0.0,0.0,0.0,0.0,0.0,0.0,0.0,5.9942,6.0786,0.0,0.0,0.0,0.0,0.0,0.0,8.0681,0.0,8.0645,8.1122,8.1893,8.2957,8.2737,8.2737,8.2994,8.248,8.2186,8.2186,8.2737,8.3141,8.3471,8.4499,8.5123,8.5416,8.6261,8.6591,8.6628,8.6885,8.6995,8.6995,8.6995,8.6995,8.6995,8.6995,8.6995,8.6995,3.8722,3.8414,3.8772,4.0378,4.2282,4.4757,4.808,5.1525,5.4276,5.5786,5.8542,6.0733,6.1594,6.2798,6.4136,6.5371,6.5196,6.5442,6.6286,6.5663,0.0,6.4892,6.2515,0.0,0.0,5.7384,5.4974,5.2862,5.148,5.0395,4.9627,4.9627,5.1096,5.3812,5.6124,6.0382,6.5925,6.7944,7.1945,7.7047,7.8956,8.0204,8.0828,7.9213,7.9764,8.1415,8.1158,8.1232,8.1415,8.1489,8.1269,8.0975,8.0718,8.0241,7.958,7.8516,7.7818,7.7047,7.5432,7.5726,7.5763,7.2606,7.3193,7.378,7.0844,0.0,6.9559,0.0,0.0,0.0,0.0,0.0,0.0,0.0,0.0,0.0,0.0,5.8621,0.0,0.0,0.0,0.0,0.0,0.0,0.0,0.0,0.0,0.0,0.0,8.0975,8.1782,8.2517,8.259,8.2737,8.2994,8.2443,8.2186,8.2186,8.303,8.3581,8.3875,8.5196,8.5967,8.6261,8.6775,8.6995,8.6995,8.6995,8.6995,8.6995,8.6995,8.6995,8.6995,8.6995,8.6995,8.6995,4.1186,4.0914,4.09,4.077,4.4713,4.8325,4.9831,5.3439,5.621,5.694,6.0262,6.2556,6.2692,6.4599,6.6216,6.6989,6.7653,6.8495,6.9414,6.8678,0.0,0.0,6.646,6.4803,6.4566,0.0,0.0,5.6795,5.4335,5.2804,5.205,5.2087,5.3775,5.6712,5.6014,6.0603,6.8752,6.7247,7.033,7.6276,7.7121,7.8883,8.0901,7.936,8.0241,8.2333,8.303,8.281,8.2443,8.3985,8.2957,8.1195,8.1966,8.1122,7.9837,7.9837,7.98,7.9433,7.7855,7.7451,7.7121,7.5506,7.5689,7.5652,7.3266,7.3266,7.312,0.0,0.0,0.0,0.0,0.0,0.0,0.0,0.0,0.0,0.0,0.0,0.0,0.0,0.0,0.0,0.0,0.0,0.0,0.0,0.0,0.0,0.0,8.0901,8.1856,8.1085,8.2553,8.2994,8.226,8.2223,8.2186,8.2186,8.3067,8.3875,8.4646,8.5453,8.6261,8.6995,8.6995,8.6995,8.6995,8.6995,8.6995,8.6995,8.6995,8.6995,8.6995,8.6995,8.6995,8.6995,4.3022,4.363,4.4744,4.5925,4.7914,4.9812,5.0961,5.4883,5.8324,5.9895,6.2535,6.4667,6.5607,6.6655,6.7407,6.7694,6.8364,6.8944,6.9199,6.8586,0.0,6.8293,6.66,6.558,6.5373,6.2764,6.0669,5.9202,5.6806,5.4708,5.2931,5.3518,5.4546,5.5941,5.6932,6.1337,6.8017,6.8201,7.2018,7.8038,7.8809,8.0241,8.1856,8.1415,8.2039,8.2957,8.1966,8.1856,8.226,8.2663,8.2406,8.1929,8.2113,8.1525,8.0681,8.0681,8.0277,7.969,7.9286,7.958,7.9653,7.8038,7.8259,7.8369,7.6497,7.5322,0.0,0.0,0.0,0.0,0.0,0.0,0.0,0.0,0.0,0.0,0.0,0.0,0.0,0.0,0.0,0.0,0.0,0.0,0.0,0.0,0.0,0.0,7.9507,8.1195,8.2113,8.1893,8.2296,8.27,8.3104,8.248,8.2186,8.2223,8.3618,8.4389,8.4646,8.604,8.6811,8.6995,8.6995,8.6995,8.6995,8.6995,8.6995,8.6995,8.6995,8.6995,8.6995,8.6995,8.6995,8.6995,4.5639,4.6602,4.7977,4.9255,5.1911,5.3946,5.3921,5.7528,6.0857,6.2482,6.5067,6.6862,6.7218,6.7963,6.8436,6.8436,6.8842,6.9214,6.9727,6.8997,0.0,6.9487,6.8118,6.7454,6.7644,6.5407,0.0,6.1552,5.9281,5.7,5.4792,5.4947,5.5825,5.7226,5.8143,6.2144,6.8421,7.0939,7.4763,7.914,7.9223,8.0187,0.0,8.1245,8.1405,8.167,8.0763,8.1178,8.2296,8.2994,8.2774,8.226,8.2627,8.2186,8.1525,8.1525,8.1195,8.0755,8.0424,8.0901,8.1232,7.9947,8.0241,8.0498,7.9213,7.8222,7.7524,0.0,7.5469,7.4184,0.0,0.0,0.0,0.0,0.0,0.0,0.0,0.0,0.0,0.0,0.0,0.0,0.0,0.0,0.0,0.0,0.0,0.0,0.0,8.1122,8.1856,8.1158,8.2517,8.3141,8.2884,8.3104,8.3067,8.2737,8.3985,8.4792,8.5159,8.6444,8.6995,8.6995,8.6995,8.6995,8.6995,8.6995,8.6995,8.6995,8.6995,8.6995,8.6995,8.6995,8.6995,8.6995,4.8889,4.9588,5.076,5.1866,5.6085,5.8964,5.8095,6.0883,6.3453,6.4715,6.7252,6.8741,6.8267,6.891,6.9417,6.9519,6.962,7.0013,7.0833,7.0013,7.0182,7.1614,7.0182,6.9688,7.0331,6.8193,6.6101,0.0,6.1873,5.9537,5.7227,5.6629,5.7333,5.9213,5.9432,6.31,6.9331,7.4305,7.7523,7.9259,7.8698,7.9287,8.0551,7.9972,7.9789,7.9864,7.9864,8.0804,8.2238,8.3495,8.3191,8.2296,8.2794,8.2605,8.2186,8.2018,8.2121,8.2039,8.1342,8.1672,8.2039,8.1452,8.1746,8.2039,8.1452,8.1232,8.0755,7.936,7.8405,7.8002,7.8626,0.0,0.0,0.0,0.0,0.0,0.0,0.0,0.0,0.0,0.0,0.0,0.0,0.0,0.0,0.0,0.0,0.0,0.0,0.0,8.1489,7.9984,8.2663,8.3618,8.2517,8.3691,8.4095,8.3728,8.4315,8.5013,8.582,8.6628,8.6995,8.6995,8.6995,8.6995,8.6995,8.6995,8.6995,8.6995,8.6995,8.6995,8.6995,8.6995,8.6995,8.6995,5.2592,5.22,5.2931,5.6149,5.9066,6.1434,6.299,6.439,6.5425,6.6305,6.7421,6.8538,6.9654,7.0466,7.1176,7.1785,7.236,7.2766,7.2993,7.2225,7.1921,7.2282,7.1379,7.1007,7.1109,7.0088,6.8716,0.0,6.4882,6.234,5.9522,5.8863,5.8733,5.917,6.0606,6.4439,7.0047,7.5508,7.7308,7.6586,7.7723,7.8436,7.9021,7.9522,8.0048,8.0649,8.0649,8.0832,8.1055,8.0726,8.1272,8.1989,8.073,8.1198,8.2018,8.1299,8.1647,8.215,8.2039,8.2076,8.2333,8.2847,8.259,8.2333,8.2884,8.248,8.1893,8.1636,8.0938,8.0204,7.9653,0.0,0.0,0.0,0.0,0.0,0.0,0.0,0.0,0.0,0.0,0.0,0.0,0.0,0.0,0.0,0.0,0.0,0.0,0.0,8.1782,8.0828,8.1342,8.2443,0.0,8.3141,8.3544,8.538,8.4866,8.5013,8.582,8.6628,8.6995,8.6995,8.6995,8.6995,8.6995,8.6995,8.6995,8.6995,8.6995,8.6995,8.6995,8.6995,8.6995,8.6995,5.574,5.6094,5.7047,5.9285,6.2482,6.4924,6.5595,6.7387,6.8605,6.8571,6.9553,7.0534,7.1244,7.1988,7.2563,7.2935,7.3274,7.3477,7.3477,7.3172,7.2969,7.2969,7.2259,7.2056,7.2428,7.1294,7.0055,6.8603,6.7089,6.4823,6.1847,6.1666,6.1656,6.2117,6.465,6.8006,7.1906,7.5307,7.676,7.6937,7.7978,7.8565,7.8718,7.927,7.9655,7.9931,8.0053,8.0447,8.082,8.0855,8.1399,8.196,8.1168,8.1475,8.2033,8.1626,8.1776,8.2106,8.2106,8.2396,8.2794,8.3192,8.33,8.3409,8.3807,8.3515,8.3009,8.2214,8.2069,8.1599,8.0021,7.9178,0.0,0.0,0.0,0.0,0.0,0.0,0.0,0.0,0.0,0.0,0.0,0.0,0.0,0.0,0.0,0.0,0.0,8.0498,8.1415,8.1012,8.2223,0.0,8.3361,0.0,8.4425,8.5159,8.4792,8.5233,8.6444,8.6811,8.6995,8.6995,8.6995,8.6995,8.6995,8.6995,8.6995,8.6995,8.6995,8.6995,8.6995,8.6995,8.6995,8.6995,5.8667,5.9919,6.116,6.2266,6.5714,6.8232,6.7642,6.9958,7.1447,7.0534,7.1582,7.2529,7.2834,7.3375,7.3849,7.4187,7.4221,7.4289,7.4424,7.4458,7.4458,7.4458,7.3578,7.3375,7.395,7.2529,7.1142,0.0,6.9184,6.6937,6.324,6.3905,6.4589,6.5373,6.8533,7.1211,7.3315,7.4844,7.6182,7.7263,7.8154,7.8603,7.8672,7.9077,7.9346,7.9462,7.9648,8.0233,8.1016,8.1754,8.1957,8.1916,8.1591,8.1754,8.1996,8.1754,8.1835,8.1996,8.1996,8.2424,8.3004,8.3182,8.3682,8.4064,8.4242,8.442,8.4053,8.2664,8.2628,8.2378,8.0768,8.1292,0.0,0.0,0.0,0.0,0.0,0.0,0.0,0.0,0.0,0.0,0.0,0.0,0.0,0.0,0.0,0.0,7.9727,8.0388,8.1048,8.1746,8.3287,8.3801,8.3214,0.0,8.538,8.5123,8.4939,8.56,8.6995,8.6995,8.6995,8.6995,8.6995,8.6995,8.6995,8.6995,8.6995,8.6995,8.6995,8.6995,8.6995,8.6995,8.6995,8.6995,6.1816,6.2623,6.3833,6.5891,6.8398,6.9934,6.9911,7.1819,7.28,7.1379,7.1887,7.2902,7.4255,7.4458,7.5067,7.6454,7.6589,7.686,7.7502,7.757,7.757,7.757,7.6149,7.5405,7.5473,7.4052,7.2902,7.209,7.1345,6.8116,6.2571,6.4572,6.6058,6.7087,7.0177,7.203,7.2942,7.5172,7.5755,7.5436,7.7066,7.7868,7.8213,7.912,7.9844,8.0406,8.05,8.0983,8.1757,8.1757,8.1892,8.1754,8.0245,8.0786,8.1835,8.1091,8.1426,8.1996,8.1996,8.2032,8.2281,8.304,8.3289,8.3504,8.4253,8.4931,8.5098,8.4242,8.303,8.2235,8.2901,8.1889,8.1635,0.0,0.0,0.0,0.0,0.0,0.0,0.0,0.0,0.0,0.0,0.0,0.0,0.0,7.613,0.0,0.0,7.9874,8.1232,8.4168,8.3067,8.3765,8.6518,8.5343,8.5416,8.6775,8.604,8.6151,8.6995,8.6995,8.6995,8.6995,8.6995,8.6995,8.6995,8.6995,8.6995,8.6995,8.6995,8.6995,8.6995,8.6995,8.6995,8.6995,6.559,6.6675,6.7793,6.8719,7.0693,7.2146,7.2168,7.362,7.4762,7.4695,7.4492,7.4796,7.5879,7.6386,7.6893,7.7502,7.7536,7.7671,7.7976,7.7976,7.7976,7.7976,7.6521,7.5912,7.642,7.4492,7.3578,7.3713,7.2563,7.05,6.776,6.8639,6.9538,7.0546,7.1659,7.316,7.4796,7.5583,7.6275,7.6883,7.759,7.8196,7.8735,7.9331,8.0008,8.0624,8.0913,8.1345,8.1585,8.1715,8.1794,8.1783,8.1124,8.1366,8.1783,8.1422,8.1603,8.1872,8.1872,8.1872,8.1942,8.2311,8.2641,8.3061,8.3466,8.404,8.4494,8.418,8.3297,8.2496,8.2454,8.2334,8.2296,8.2332,0.0,0.0,0.0,0.0,0.0,0.0,0.0,0.0,0.0,0.0,0.0,0.0,0.0,0.0,0.0,0.0,8.248,8.5233,8.3287,8.3287,8.5563,8.5416,8.5416,8.5563,8.571,8.6224,8.6995,8.6995,8.6995,8.6995,8.6995,8.6995,8.6995,8.6995,8.6995,8.6995,8.6995,8.7325,8.7729,8.7729,8.8023,8.8426,6.8811,7.0174,7.1197,7.1142,7.3021,7.4465,7.4465,7.5574,7.6657,7.7435,7.7063,7.6826,7.7198,7.7671,7.8077,7.828,7.8314,7.8416,7.8619,7.8653,7.8653,7.8653,7.7401,7.686,7.7198,7.5202,7.439,7.4931,7.368,7.2225,7.0669,7.0432,7.1367,7.322,7.3129,7.4382,7.6673,7.6245,7.6792,7.801,7.8311,7.8718,7.9226,7.976,8.0232,8.0808,8.1102,8.1297,8.1297,8.1585,8.1715,8.1715,8.181,8.181,8.181,8.181,8.181,8.181,8.181,8.181,8.181,8.181,8.219,8.2569,8.2569,8.3328,8.4184,8.4647,8.4193,8.3389,8.261,8.3011,8.3212,8.2388,0.0,0.0,0.0,0.0,0.0,0.0,0.0,0.0,8.0865,0.0,0.0,0.0,0.0,0.0,0.0,0.0,0.0,0.0,0.0,0.0,8.5306,8.5637,8.549,8.4976,8.5783,8.6444,8.6995,8.6995,8.6995,8.6995,8.6995,8.6995,8.7031,8.7252,8.7362,8.7399,8.7619,8.8059,8.8573,8.8573,8.894,8.9381,7.1278,7.2428,7.3413,7.3413,7.5359,7.6898,7.6815,7.7464,7.8247,7.8991,7.9058,7.8788,7.8044,7.7976,7.828,7.9025,7.9092,7.9397,8.0141,8.0175,8.0175,8.0175,7.9464,7.872,7.7976,7.6454,7.5676,7.5676,7.4931,7.2699,6.9113,6.8301,7.0297,7.4593,7.4593,7.5845,7.7908,7.7198,7.7299,7.8044,7.9084,7.9488,7.959,8.0599,8.1005,8.1005,8.1005,8.1005,8.1005,8.1297,8.1393,8.1393,8.1715,8.181,8.181,8.181,8.181,8.181,8.181,8.181,8.181,8.181,8.181,8.181,8.181,8.2949,8.4481,8.6126,8.5768,8.4931,8.4292,8.4102,8.4423,8.5419,0.0,0.0,0.0,0.0,0.0,0.0,8.6224,8.5747,8.571,8.5013,0.0,0.0,0.0,0.0,0.0,0.0,0.0,8.5747,8.4242,0.0,8.6958,8.6187,8.5783,8.5783,8.6591,8.6995,8.6995,8.6995,8.6995,8.6995,8.6995,8.6995,8.7068,8.7876,8.8206,8.828,8.9087,8.9381,8.9417,8.9417,8.9417,8.9417,7.4255,7.5119,7.5771,7.5836,7.6809,7.8018,7.8994,7.9364,7.9938,8.119,8.1359,8.1257,8.1021,8.0107,7.96,7.9837,7.987,7.9938,8.0175,8.0209,8.0209,8.0209,7.9498,7.8991,7.8754,7.7773,7.7029,7.6521,7.5743,7.4762,7.3578,7.2293,7.3578,7.686,7.5811,7.6623,7.872,7.7942,7.8348,7.9464,7.9327,7.9497,7.9971,8.0308,8.051,8.051,8.0709,8.0808,8.1005,8.1297,8.149,8.1715,8.181,8.181,8.181,8.181,8.181,8.181,8.181,8.181,8.181,8.181,8.181,8.181,8.181,8.2569,8.3424,8.3919,8.3797,8.3563,8.333,8.2904,8.2651,8.2984,8.3085,0.0,8.4325,0.0,8.4207,8.4505,8.4315,8.3948,0.0,8.4095,0.0,0.0,0.0,0.0,0.0,0.0,0.0,0.0,8.4535,0.0,8.6995,8.6738,8.6334,8.5783,8.6628,8.6995,8.7031,8.7582,8.7839,8.7839,8.8426,8.8647,8.8683,8.894,8.905,8.905,8.9307,8.9748,9.0225,9.0225,9.0592,9.1033,7.7019,7.7799,7.8514,7.859,7.9128,8.0005,8.0949,8.0984,8.1359,8.2306,8.2408,8.2408,8.2408,8.1596,8.1021,8.1021,8.1021,8.1021,8.1021,8.075,8.0615,8.0615,7.9904,7.9397,7.9126,7.8653,7.8179,7.7739,7.7232,7.6826,7.6521,7.5608,7.6318,7.8382,7.7401,7.7942,7.9498,7.9025,7.9363,8.0175,7.9701,7.9803,8.0209,8.0209,8.0378,8.0615,8.0817,8.1188,8.1526,8.1859,8.2056,8.2252,8.2446,8.2446,8.2439,8.1948,8.181,8.181,8.181,8.181,8.181,8.181,8.181,8.1879,8.2155,8.2569,8.2983,8.3259,8.3328,8.3328,8.3328,8.2949,8.263,8.2662,8.3201,8.3559,8.3625,8.4163,8.4672,0.0,0.0,0.0,0.0,8.5086,8.5343,0.0,0.0,0.0,0.0,0.0,8.4829,8.5637,8.4499,8.4719,8.6518,8.6554,8.6444,8.6261,8.7068,8.7472,8.7472,8.828,8.8647,8.8683,8.9197,8.9417,8.9454,8.9748,8.9858,8.9895,9.0188,9.0629,9.1069,9.1069,9.1363,9.1803,7.9356,8.0376,8.136,8.136,8.1969,8.2475,8.2509,8.2509,8.2509,8.2577,8.2577,8.2577,8.2577,8.2577,8.2577,8.2577,8.2475,8.2408,8.2408,8.1765,8.1359,8.1359,8.0716,8.004,7.9363,7.9329,7.9329,7.9261,7.9228,7.8822,7.8145,7.8077,7.8483,7.9194,7.9126,7.9532,8.0209,8.0242,8.0276,8.0276,8.0344,8.0344,8.0344,8.0344,8.0784,8.1359,8.1359,8.1799,8.2511,8.2717,8.282,8.2922,8.3392,8.359,8.335,8.2267,8.1948,8.1948,8.1948,8.1948,8.1948,8.1948,8.1948,8.2121,8.2845,8.2983,8.319,8.388,8.3983,8.3949,8.3949,8.388,8.3893,8.3991,8.4067,8.4053,8.4255,8.4314,8.5177,8.7565,0.0,0.0,8.7882,8.7219,8.5899,0.0,0.0,0.0,0.0,0.0,8.6775,8.3654,8.4278,8.5086,8.5857,8.5857,8.6297,8.7105,8.7912,8.828,8.8316,8.9124,8.9491,8.9491,8.9564,8.9601,8.9638,9.0372,9.0702,9.0776,9.151,9.1803,9.1803,9.1803,9.1803,9.1803,8.1597,8.1862,8.209,8.209,8.2292,8.2561,8.3178,8.325,8.3456,8.4031,8.4099,8.4099,8.4099,8.4099,8.4099,8.4099,8.305,8.2408,8.2408,8.2238,8.2137,8.2137,8.1968,8.1799,8.1629,8.1629,8.1359,8.0784,8.0209,7.9837,7.9667,7.9092,7.9228,7.9904,7.9363,7.9532,8.0242,8.0784,8.1021,8.1088,8.1663,8.19,8.19,8.19,8.2002,8.2137,8.2137,8.2376,8.2717,8.282,8.2922,8.3124,8.3225,8.3326,8.3357,8.3409,8.35,8.35,8.35,8.35,8.35,8.35,8.35,8.3535,8.3707,8.3742,8.3811,8.3983,8.3569,8.3156,8.3156,8.2707,8.2354,8.2336,8.2395,8.2662,8.3279,8.3418,8.3869,8.5177,8.4577,8.4427,8.5299,8.4682,8.4972,0.0,0.0,8.6444,8.7031,8.7802,8.7288,8.527,8.5416,8.5894,8.6701,8.6738,8.7142,8.7949,8.8757,8.9124,8.916,8.9968,9.0335,9.0372,9.0959,9.1216,9.1253,9.1436,9.151,9.1546,9.173,9.1803,9.1803,9.1803,9.1803,9.1803,8.285,8.3182,8.3409,8.3409,8.3409,8.351,8.392,8.3959,8.4167,8.4573,8.464,8.464,8.464,8.464,8.464,8.464,8.3896,8.3422,8.3422,8.3084,8.2915,8.2915,8.2577,8.2408,8.2408,8.2408,8.2205,8.1799,8.1393,8.1224,8.119,8.0818,8.0818,8.119,8.0818,8.0851,8.1224,8.1629,8.1799,8.1832,8.2238,8.2408,8.2408,8.2408,8.2611,8.2915,8.2915,8.3222,8.3632,8.3632,8.3736,8.384,8.4046,8.408,8.4148,8.4554,8.4174,8.3625,8.3822,8.3724,8.3625,8.3822,8.392,8.4018,8.4018,8.4018,8.4018,8.4018,8.3707,8.3328,8.2983,8.2569,8.219,8.1845,8.181,8.1965,8.2453,8.2544,8.2871,8.3677,8.3458,8.3672,8.4889,8.4642,8.5264,8.7476,8.7252,0.0,8.7619,8.7655,8.6921,8.5306,8.6297,8.6921,8.6995,8.7729,8.8316,8.8757,8.9564,8.9968,9.0005,9.0776,9.1143,9.1179,9.162,9.1803,9.1803,9.1803,9.1803,9.1803,9.1803,9.1803,9.1803,9.1803,9.1803,9.1803,8.3666,8.4171,8.464,8.464,8.464,8.464,8.464,8.464,8.464,8.464,8.464,8.464,8.464,8.464,8.464,8.464,8.464,8.464,8.464,8.4031,8.3659,8.3659,8.3084,8.2746,8.2746,8.2746,8.2746,8.2746,8.2746,8.2678,8.2577,8.2577,8.2509,8.2408,8.2408,8.2408,8.2408,8.2543,8.2577,8.2577,8.2712,8.2746,8.2746,8.2746,8.3118,8.3659,8.3659,8.4065,8.464,8.464,8.464,8.464,8.4958,8.5063,8.5063,8.5273,8.4489,8.3466,8.3868,8.3768,8.3668,8.3868,8.4067,8.4265,8.4265,8.4265,8.4265,8.4265,8.4259,8.4018,8.3362,8.3156,8.2983,8.2707,8.2466,8.2397,8.2604,8.2362,8.237,8.3186,8.3171,8.3717,8.5441,8.5634,8.6054,8.7044,8.7115,8.7222,8.7362,8.7362,8.6738,8.538,8.7178,8.7949,8.7399,8.8867,8.9601,8.9601,9.0408,9.0776,9.0812,9.1473,9.1803,9.1803,9.1803,9.1803,9.1803,9.1803,9.1803,9.1803,9.1803,9.1803,9.1803,9.1803,9.1803,9.1803,8.4403,8.4539,8.464,8.464,8.464,8.464,8.464,8.464,8.464,8.464,8.464,8.464,8.464,8.464,8.464,8.464,8.464,8.464,8.464,8.4505,8.4437,8.4437,8.4336,8.4268,8.4268,8.4268,8.4268,8.4268,8.4268,8.3964,8.3321,8.3321,8.3016,8.2408,8.2408,8.2408,8.2441,8.305,8.3321,8.3389,8.4031,8.4268,8.4268,8.4268,8.4336,8.4437,8.4437,8.4539,8.464,8.464,8.464,8.464,8.464,8.464,8.4747,8.4747,8.4577,8.4585,8.5309,8.5513,8.5446,8.5241,8.5241,8.5241,8.5241,8.5446,8.5648,8.5648,8.5233,8.4984,8.488,8.4294,8.4432,8.626,8.5501,8.5121,8.6363,8.488,8.3673,8.3832,8.3279,8.3543,8.5163,8.5411,8.6069,8.7684,8.7838,8.8213,8.8979,8.905,8.894,8.8683,8.8353,8.8463,8.905,8.9968,9.0408,9.0445,9.1216,9.162,9.162,9.173,9.1803,9.1803,9.1803,9.1803,9.1803,9.1803,9.1803,9.1803,9.1803,9.1803,9.1803,9.1803,9.1803,9.1803,8.464,8.464,8.464,8.464,8.464,8.464,8.464,8.464,8.464,8.464,8.464,8.464,8.464,8.464,8.464,8.464,8.464,8.464,8.464,8.464,8.464,8.464,8.464,8.464,8.464,8.464,8.464,8.464,8.464,8.4437,8.4099,8.4099,8.393,8.3592,8.3592,8.3592,8.3625,8.3964,8.4099,8.4133,8.4471,8.464,8.464,8.464,8.464,8.464,8.464,8.464,8.464,8.464,8.464,8.464,8.464,8.464,8.464,8.464,8.4747,8.4958,8.5134,8.548,8.5583,8.5377,8.5411,8.5514,8.5514,8.5618,8.5686,8.5686,8.5514,8.5273,8.4861,8.4583,8.4786,8.5852,8.5195,8.4949,8.6053,8.4949,8.4018,8.4018,8.3707,8.3954,8.5224,8.535,8.5852,8.7167,8.7331,8.7493,8.7926,8.7926,8.7926,8.7926,8.8984,8.9895,9.0702,9.1069,9.1253,9.1253,9.162,9.1803,9.1803,9.1803,9.1803,9.1803,9.1803,9.1803,9.1803,9.1803,9.1803,9.1803,9.1803,9.1803,9.1803,9.1803,9.1803,9.1803,8.464,8.464,8.464,8.464,8.464,8.464,8.464,8.464,8.464,8.464,8.464,8.464,8.464,8.464,8.464,8.464,8.464,8.464,8.464,8.464,8.464,8.464,8.464,8.464,8.464,8.464,8.464,8.464,8.464,8.464,8.464,8.464,8.464,8.464,8.464,8.464,8.464,8.464,8.464,8.464,8.464,8.464,8.464,8.464,8.464,8.464,8.464,8.464,8.464,8.464,8.464,8.464,8.464,8.464,8.464,8.464,8.4747,8.4958,8.464,8.4958,8.5307,8.5063,8.5168,8.5273,8.5273,8.5377,8.5411,8.5411,8.5514,8.5309,8.4729,8.483,8.5103,8.5651,8.5133,8.4958,8.6022,8.516,8.4437,8.4535,8.4397,8.462,8.545,8.5543,8.5912,8.6893,8.6979,8.7066,8.7237,8.7237,8.7237,8.7237,8.9216,9.074,9.1803,9.1803,9.1803,9.1803,9.1803,9.1803,9.1803,9.1803,9.1803,9.1803,9.1803,9.1803,9.1803,9.1803,9.1803,9.1803,9.1803,9.1803,9.1803,9.1803,9.1803,9.1803,8.464,8.464,8.464,8.464,8.464,8.464,8.464,8.464,8.464,8.464,8.464,8.464,8.464,8.464,8.464,8.464,8.464,8.464,8.464,8.464,8.464,8.464,8.464,8.464,8.464,8.464,8.464,8.464,8.464,8.464,8.464,8.464,8.464,8.464,8.464,8.464,8.464,8.464,8.464,8.464,8.464,8.464,8.464,8.464,8.464,8.464,8.464,8.464,8.464,8.464,8.464,8.464,8.464,8.464,8.464,8.464,8.464,8.464,8.464,8.4853,8.5063,8.4747,8.464,8.464,8.464,8.4853,8.5097,8.5097,8.5307,8.548,8.5412,8.5412,8.6095,8.8286,8.7396,8.7056,8.874,8.7195,8.582,8.6122,8.5535,8.5363,8.6152,8.6221,8.6679,8.7527,8.762,8.7987,8.8841,8.8928,8.8928,8.8928,8.9239,9.0179,9.1767,9.1803,9.1803,9.1803,9.1803,9.1803,9.1803,9.1803,9.1803,9.1803,9.1803,9.1803,9.1803,9.1803,9.1803,9.1803,9.1803,9.1803,9.1803,9.1803,9.1803,9.1803,8.4426,8.464,8.464,8.464,8.464,8.464,8.464,8.464,8.464,8.464,8.464,8.464,8.464,8.464,8.464,8.464,8.464,8.464,8.464,8.464,8.464,8.464,8.464,8.464,8.464,8.464,8.464,8.464,8.464,8.464,8.464,8.464,8.464,8.464,8.464,8.464,8.464,8.464,8.464,8.464,8.464,8.464,8.464,8.464,8.464,8.464,8.464,8.464,8.464,8.464,8.464,8.464,8.464,8.464,8.464,8.464,8.464,8.464,8.464,8.4747,8.4747,8.464,8.464,8.464,8.464,8.4747,8.4747,8.4747,8.4853,8.4958,8.4958,8.5063,8.5716,8.7011,8.6503,8.6266,8.7501,8.6542,8.5686,8.5788,8.5548,8.5581,8.5958,8.589,8.5992,8.6523,8.6622,8.6685,8.7135,8.7266,8.7609,8.8219,8.8295,8.8871,9.0114,9.0114,9.0114,9.0114,9.071,9.098,9.098,9.1546,9.1803,9.1803,9.1803,9.1803,9.1803,9.1803,9.1803,9.1803,9.1803,9.1803,9.1803,9.1803,9.1803,9.1803,8.3295,8.3409,8.351,8.392,8.3954,8.4162,8.4573,8.464,8.464,8.464,8.464,8.464,8.464,8.464,8.464,8.464,8.464,8.464,8.464,8.464,8.464,8.464,8.464,8.464,8.464,8.464,8.464,8.464,8.464,8.464,8.464,8.464,8.464,8.464,8.464,8.464,8.464,8.464,8.464,8.464,8.464,8.464,8.464,8.464,8.464,8.464,8.464,8.464,8.464,8.464,8.464,8.464,8.464,8.464,8.464,8.464,8.464,8.464,8.464,8.464,8.464,8.464,8.464,8.464,8.464,8.464,8.464,8.464,8.464,8.464,8.464,8.4747,8.5128,8.5637,8.5403,8.5443,8.6059,8.5718,8.5411,8.5514,8.5514,8.5583,8.5788,8.5583,8.5618,8.5788,8.5788,8.5788,8.5788,8.589,8.6359,8.6977,8.6977,8.7326,8.7945,8.8757,8.9106,8.9106,8.9785,9.0032,9.0032,9.071,9.0943,9.0943,9.0866,9.0866,9.0943,9.0866,9.083,9.083,9.083,9.0752,9.0716,9.083,9.083,9.0866,8.0767,8.0782,8.119,8.2416,8.269,8.31,8.4365,8.4606,8.4606,8.4606,8.4606,8.4606,8.464,8.464,8.464,8.464,8.464,8.464,8.464,8.464,8.464,8.464,8.464,8.464,8.464,8.464,8.464,8.464,8.464,8.464,8.464,8.464,8.464,8.464,8.464,8.464,8.464,8.464,8.464,8.464,8.464,8.464,8.464,8.464,8.464,8.464,8.464,8.464,8.464,8.464,8.464,8.464,8.464,8.464,8.464,8.464,8.464,8.464,8.464,8.464,8.464,8.464,8.464,8.464,8.464,8.464,8.464,8.464,8.464,8.464,8.464,8.464,8.464,8.464,8.464,8.4747,8.5063,8.5097,8.5168,8.5514,8.5514,8.5514,8.5514,8.5514,8.5514,8.5514,8.5514,8.5514,8.5514,8.5514,8.5514,8.5514,8.5514,8.5514,8.5514,8.7853,8.9106,8.9106,8.9106,8.9106,8.9106,8.9106,8.9106,8.9106,8.8809,8.8897,8.9106,8.8809,8.8685,8.8685,8.8685,8.8562,8.8348,8.8597,8.8685,8.8861,8.0611,8.0799,8.0863,8.1243,8.141,8.1464,8.1839,8.1906,8.2248,8.31,8.3308,8.3577,8.4539,8.464,8.464,8.464,8.464,8.464,8.464,8.464,8.464,8.464,8.464,8.464,8.464,8.464,8.464,8.464,8.464,8.464,8.464,8.464,8.464,8.464,8.464,8.464,8.464,8.464,8.464,8.464,8.464,8.464,8.464,8.464,8.464,8.464,8.464,8.464,8.464,8.464,8.464,8.464,8.464,8.464,8.464,8.464,8.464,8.464,8.464,8.464,8.464,8.464,8.464,8.464,8.464,8.464,8.464,8.464,8.464,8.464,8.464,8.464,8.464,8.464,8.464,8.4606,8.4747,8.4747,8.4747,8.4853,8.4853,8.4958,8.5202,8.4958,8.4958,8.5168,8.5202,8.5307,8.5514,8.5514,8.5514,8.5514,8.5514,8.5514,8.5514,8.6225,8.6587,8.6587,8.7196,8.7539,8.7539,8.8204,8.8473,8.8437,8.8348,8.8348,8.8437,8.8348,8.8348,8.8348,8.8348,8.8348,8.8348,8.8597,8.8685,8.8773,7.9165,7.9258,7.9458,7.9949,7.9998,8.0246,8.0687,8.0753,8.1063,8.185,8.1916,8.2241,8.3021,8.3564,8.3784,8.3784,8.4285,8.464,8.464,8.464,8.464,8.464,8.464,8.464,8.464,8.464,8.464,8.464,8.464,8.464,8.464,8.464,8.464,8.464,8.464,8.464,8.464,8.464,8.464,8.464,8.464,8.464,8.464,8.464,8.464,8.464,8.464,8.464,8.464,8.464,8.464,8.464,8.464,8.464,8.464,8.464,8.464,8.464,8.464,8.464,8.464,8.464,8.464,8.464,8.464,8.464,8.464,8.464,8.464,8.464,8.464,8.464,8.464,8.464,8.464,8.464,8.464,8.464,8.464,8.464,8.464,8.464,8.4853,8.4747,8.464,8.4853,8.4853,8.4958,8.5168,8.5168,8.5168,8.5168,8.5168,8.5168,8.5168,8.5168,8.5273,8.5514,8.6125,8.639,8.639,8.6873,8.7126,8.7126,8.703,8.6995,8.7126,8.703,8.6995,8.6995,8.6995,8.69,8.69,8.7126,8.7256,8.7351,7.7016,7.7016,7.7414,7.8563,7.8748,7.9125,8.0292,8.0388,8.0512,8.0603,8.0603,8.0656,8.0744,8.1886,8.2605,8.2718,8.3893,8.464,8.464,8.464,8.464,8.464,8.464,8.464,8.464,8.464,8.464,8.464,8.464,8.464,8.464,8.464,8.464,8.464,8.464,8.464,8.464,8.464,8.464,8.464,8.464,8.464,8.464,8.464,8.464,8.464,8.464,8.464,8.464,8.464,8.464,8.464,8.464,8.464,8.464,8.464,8.464,8.464,8.464,8.464,8.464,8.464,8.464,8.464,8.464,8.464,8.464,8.464,8.464,8.464,8.464,8.464,8.464,8.464,8.464,8.464,8.464,8.464,8.464,8.464,8.464,8.464,8.464,8.464,8.464,8.464,8.464,8.464,8.464,8.464,8.464,8.464,8.464,8.464,8.464,8.464,8.4853,8.5377,8.5377,8.5377,8.5377,8.5377,8.5377,8.5411,8.5168,8.5168,8.5411,8.5202,8.5063,8.5063,8.5063,8.4853,8.464,8.4958,8.5063,8.5273,7.7016,7.7016,7.7116,7.7414,7.7414,7.7445,7.776,7.7792,7.8182,7.9157,7.934,7.9739,8.068,8.1036,8.1621,8.2605,8.3893,8.464,8.464,8.464,8.464,8.464,8.464,8.464,8.464,8.464,8.464,8.464,8.464,8.464,8.464,8.464,8.464,8.464,8.464,8.464,8.464,8.464,8.464,8.464,8.464,8.464,8.464,8.464,8.464,8.464,8.464,8.464,8.464,8.464,8.464,8.464,8.464,8.464,8.464,8.464,8.464,8.464,8.464,8.464,8.464,8.464,8.464,8.464,8.464,8.464,8.464,8.464,8.464,8.464,8.464,8.464,8.464,8.464,8.464,8.464,8.464,8.464,8.464,8.464,8.464,8.464,8.464,8.464,8.464,8.464,8.464,8.464,8.464,8.464,8.464,8.464,8.464,8.464,8.464,8.464,8.464,8.4853,8.4853,8.4853,8.4853,8.4853,8.4853,8.4853,8.4747,8.4747,8.4853,8.4747,8.4747,8.4747,8.4747,8.464,8.464,8.4958,8.5063,8.5168,7.7016,7.7016,7.7016,7.7016,7.7016,7.7016,7.7016,7.7016,7.7185,7.787,7.7966,7.8282,7.8879,7.9499,8.0472,8.1621,8.2942,8.3674,8.3674,8.4251,8.464,8.464,8.464,8.464,8.464,8.464,8.464,8.464,8.464,8.464,8.464,8.464,8.464,8.464,8.464,8.464,8.464,8.464,8.464,8.464,8.464,8.464,8.464,8.464,8.464,8.464,8.464,8.464,8.464,8.464,8.464,8.464,8.464,8.464,8.464,8.464,8.464,8.464,8.464,8.464,8.464,8.464,8.464,8.464,8.464,8.464,8.464,8.464,8.464,8.464,8.464,8.464,8.464,8.464,8.464,8.464,8.464,8.464,8.464,8.464,8.464,8.464,8.464,8.464,8.464,8.464,8.464,8.464,8.464,8.464,8.464,8.464,8.464,8.464,8.464,8.464,8.464,8.464,8.464,8.464,8.464,8.464,8.464,8.464,8.464,8.464,8.464,8.464,8.464,8.464,8.464,8.464,8.464,8.4747,8.4958,8.5168,7.7016,7.7016,7.7016,7.7016,7.7016,7.7016,7.7016,7.7016,7.7016,7.7016,7.7016,7.7016,7.7016,7.8088,7.9284,8.032,8.1654,8.2458,8.2718,8.3674,8.4392,8.4606,8.464,8.464,8.464,8.464,8.464,8.464,8.464,8.464,8.464,8.464,8.464,8.464,8.464,8.464,8.464,8.464,8.464,8.464,8.464,8.464,8.464,8.464,8.464,8.464,8.464,8.464,8.464,8.464,8.464,8.464,8.464,8.464,8.464,8.464,8.464,8.464,8.464,8.464,8.464,8.464,8.464,8.464,8.464,8.464,8.464,8.464,8.464,8.464,8.464,8.464,8.464,8.464,8.464,8.464,8.464,8.464,8.464,8.464,8.464,8.464,8.464,8.464,8.464,8.464,8.464,8.464,8.464,8.464,8.464,8.464,8.464,8.464,8.464,8.464,8.464,8.464,8.464,8.464,8.464,8.464,8.464,8.464,8.464,8.464,8.464,8.464,8.464,8.464,8.464,8.464,8.464,8.464,8.4853,8.5063,7.6884,7.7016,7.7016,7.7016,7.7016,7.7016,7.7016,7.7016,7.7016,7.7016,7.7016,7.7016,7.7016,7.8088,7.8942,7.916,8.0352,8.1505,8.2605,8.283,8.3421,8.45,8.464,8.464,8.464,8.464,8.464,8.464,8.464,8.464,8.464,8.464,8.464,8.464,8.464,8.464,8.464,8.464,8.464,8.464,8.464,8.464,8.464,8.464,8.464,8.464,8.464,8.464,8.464,8.464,8.464,8.464,8.464,8.464,8.464,8.464,8.464,8.464,8.464,8.464,8.464,8.464,8.464,8.464,8.464,8.464,8.464,8.464,8.464,8.464,8.464,8.464,8.464,8.464,8.464,8.464,8.464,8.464,8.464,8.464,8.464,8.464,8.464,8.464,8.464,8.464,8.464,8.464,8.464,8.464,8.464,8.464,8.464,8.464,8.464,8.464,8.464,8.464,8.464,8.464,8.464,8.464,8.464,8.464,8.464,8.464,8.464,8.464,8.464,8.464,8.464,8.464,8.464,8.464,8.4853,8.5097,7.6324,7.662,7.6752,7.6752,7.6884,7.7016,7.7016,7.7016,7.7016,7.7016,7.7016,7.7016,7.7016,7.7507,7.7863,7.7863,7.9035,7.9989,8.0592,8.1271,8.223,8.3421,8.3531,8.3893,8.4606,8.464,8.464,8.464,8.464,8.464,8.464,8.464,8.464,8.464,8.464,8.464,8.464,8.464,8.464,8.464,8.464,8.464,8.464,8.464,8.464,8.464,8.464,8.464,8.464,8.464,8.464,8.464,8.464,8.464,8.464,8.464,8.464,8.464,8.464,8.464,8.464,8.464,8.464,8.464,8.464,8.464,8.464,8.464,8.464,8.464,8.464,8.464,8.464,8.464,8.464,8.464,8.464,8.464,8.464,8.464,8.464,8.464,8.464,8.464,8.464,8.464,8.464,8.464,8.464,8.464,8.464,8.464,8.464,8.464,8.464,8.464,8.464,8.464,8.464,8.464,8.464,8.464,8.464,8.464,8.464,8.464,8.464,8.464,8.464,8.464,8.464,8.464,8.464,8.464,8.4747,8.4853]},{"header":{"parameterUnit":"m.s-1","parameterCategory":1,"la1":30.6,"la2":28.766,"lo1":-90.7593,"lo2":-88.6598,"dx":0.0162,"dy":0.0183,"nx":116,"ny":114,"refTime":"2022-12-13T18:00:00:Z","depth":0,"parameterNumber":3,"parameterNumberName":"V-component_of_WINDS"},"data":[0.0,0.0,0.0,0.0,0.0,0.0,0.0,0.0,0.0,0.0,0.0,0.0,0.0,0.0,0.0,0.0,0.0,0.0,0.0,0.0,0.0,0.0,0.0,0.0,0.0,0.0,0.0,0.0,0.0,0.0,0.0,0.0,0.0,0.0,0.0,0.0,0.0,0.0,0.0,0.0,0.0,0.0,0.0,0.0,0.0,0.0,0.0,0.0,0.0,0.0,0.0,0.0,0.0,0.0,0.0,0.0,0.0,0.0,0.0,0.0,0.0,0.0,0.0,0.0,0.0,0.0,0.0,0.0,0.0,0.0,0.0,0.0,0.0,0.0,0.0,0.0,0.0,0.0,0.0,0.0,0.0,0.0,0.0,0.0,0.0,0.0,0.0,0.0,0.0,0.0,0.0,0.0,0.0,0.0,0.0,0.0,0.0,0.0,0.0,0.0,0.0,0.0,0.0,0.0,0.0,0.0,0.0,0.0,0.0,0.0,0.0,0.0,0.0,0.0,0.0,0.0,0.0,0.0,0.0,0.0,0.0,0.0,0.0,0.0,0.0,0.0,0.0,0.0,0.0,0.0,0.0,0.0,0.0,0.0,0.0,0.0,0.0,0.0,0.0,0.0,0.0,0.0,0.0,0.0,0.0,0.0,0.0,0.0,0.0,0.0,0.0,0.0,0.0,0.0,0.0,0.0,0.0,0.0,0.0,0.0,0.0,0.0,0.0,0.0,0.0,0.0,0.0,0.0,0.0,0.0,0.0,0.0,0.0,0.0,0.0,0.0,0.0,0.0,0.0,0.0,0.0,0.0,0.0,0.0,0.0,0.0,0.0,0.0,0.0,0.0,0.0,0.0,0.0,0.0,0.0,0.0,0.0,0.0,0.0,0.0,0.0,0.0,0.0,0.0,0.0,0.0,0.0,0.0,0.0,0.0,0.0,0.0,0.0,0.0,0.0,0.0,0.0,0.0,0.0,0.0,0.0,0.0,0.0,0.0,0.0,0.0,0.0,0.0,0.0,0.0,0.0,0.0,0.0,0.0,0.0,0.0,0.0,0.0,0.0,0.0,0.0,0.0,0.0,0.0,0.0,0.0,0.0,0.0,0.0,0.0,0.0,0.0,0.0,0.0,0.0,0.0,0.0,0.0,0.0,0.0,0.0,0.0,0.0,0.0,0.0,0.0,0.0,0.0,0.0,0.0,0.0,0.0,0.0,0.0,0.0,0.0,0.0,0.0,0.0,0.0,0.0,0.0,0.0,0.0,0.0,0.0,0.0,0.0,0.0,0.0,0.0,0.0,0.0,0.0,0.0,0.0,0.0,0.0,0.0,0.0,0.0,0.0,0.0,0.0,0.0,0.0,0.0,0.0,0.0,0.0,0.0,0.0,0.0,0.0,0.0,0.0,0.0,0.0,0.0,0.0,0.0,0.0,0.0,0.0,0.0,0.0,0.0,0.0,0.0,0.0,0.0,0.0,0.0,0.0,0.0,0.0,0.0,0.0,0.0,0.0,0.0,0.0,0.0,0.0,0.0,0.0,0.0,0.0,0.0,0.0,0.0,0.0,0.0,0.0,0.0,0.0,0.0,0.0,0.0,0.0,0.0,0.0,0.0,0.0,0.0,0.0,0.0,0.0,0.0,0.0,0.0,0.0,0.0,0.0,0.0,0.0,0.0,0.0,0.0,0.0,0.0,0.0,0.0,0.0,0.0,0.0,0.0,0.0,0.0,0.0,0.0,0.0,0.0,0.0,0.0,0.0,0.0,0.0,0.0,0.0,0.0,0.0,0.0,0.0,0.0,0.0,0.0,0.0,0.0,0.0,0.0,0.0,0.0,0.0,0.0,0.0,0.0,0.0,0.0,0.0,0.0,0.0,0.0,0.0,0.0,0.0,0.0,0.0,0.0,0.0,0.0,0.0,0.0,0.0,0.0,0.0,0.0,0.0,0.0,0.0,0.0,0.0,0.0,0.0,0.0,0.0,0.0,0.0,0.0,0.0,0.0,0.0,0.0,0.0,0.0,0.0,0.0,0.0,0.0,0.0,0.0,0.0,0.0,0.0,0.0,0.0,0.0,0.0,0.0,0.0,0.0,0.0,0.0,0.0,0.0,0.0,0.0,0.0,0.0,0.0,0.0,0.0,0.0,0.0,0.0,0.0,0.0,0.0,0.0,0.0,0.0,0.0,0.0,0.0,0.0,0.0,0.0,0.0,0.0,0.0,0.0,0.0,0.0,0.0,0.0,0.0,0.0,0.0,0.0,0.0,0.0,0.0,0.0,0.0,0.0,0.0,0.0,0.0,0.0,0.0,0.0,0.0,0.0,0.0,0.0,0.0,0.0,0.0,0.0,0.0,0.0,0.0,0.0,0.0,0.0,0.0,0.0,0.0,0.0,0.0,0.0,0.0,0.0,0.0,0.0,0.0,0.0,0.0,0.0,0.0,0.0,0.0,0.0,0.0,0.0,0.0,0.0,0.0,0.0,0.0,0.0,0.0,0.0,0.0,0.0,0.0,0.0,0.0,0.0,0.0,0.0,0.0,0.0,0.0,0.0,0.0,0.0,0.0,0.0,0.0,0.0,0.0,0.0,0.0,0.0,0.0,0.0,0.0,0.0,0.0,0.0,0.0,0.0,0.0,0.0,0.0,0.0,0.0,0.0,0.0,0.0,0.0,0.0,0.0,0.0,0.0,0.0,0.0,0.0,0.0,0.0,0.0,0.0,0.0,0.0,0.0,0.0,0.0,0.0,0.0,0.0,0.0,0.0,0.0,0.0,0.0,0.0,0.0,0.0,0.0,0.0,0.0,0.0,0.0,0.0,0.0,0.0,0.0,0.0,0.0,0.0,0.0,0.0,0.0,0.0,0.0,0.0,0.0,0.0,0.0,0.0,0.0,0.0,0.0,0.0,0.0,0.0,0.0,0.0,0.0,0.0,0.0,0.0,0.0,0.0,0.0,0.0,0.0,0.0,0.0,0.0,0.0,0.0,0.0,0.0,0.0,0.0,0.0,0.0,0.0,0.0,0.0,0.0,0.0,0.0,0.0,0.0,0.0,0.0,0.0,0.0,0.0,0.0,0.0,0.0,0.0,0.0,0.0,0.0,0.0,0.0,0.0,0.0,0.0,0.0,0.0,0.0,0.0,0.0,0.0,0.0,0.0,0.0,0.0,0.0,0.0,0.0,0.0,0.0,0.0,0.0,0.0,0.0,0.0,0.0,0.0,0.0,0.0,0.0,0.0,0.0,0.0,0.0,0.0,0.0,0.0,0.0,0.0,0.0,0.0,0.0,0.0,0.0,0.0,0.0,0.0,0.0,0.0,0.0,0.0,0.0,0.0,0.0,0.0,0.0,0.0,0.0,0.0,0.0,0.0,0.0,0.0,0.0,0.0,0.0,0.0,0.0,0.0,0.0,0.0,0.0,0.0,0.0,0.0,0.0,0.0,0.0,0.0,0.0,0.0,0.0,0.0,0.0,0.0,0.0,0.0,0.0,0.0,0.0,0.0,0.0,0.0,0.0,0.0,0.0,0.0,0.0,0.0,0.0,0.0,0.0,0.0,0.0,0.0,0.0,0.0,0.0,0.0,0.0,0.0,0.0,0.0,0.0,0.0,0.0,0.0,0.0,0.0,0.0,0.0,0.0,0.0,0.0,0.0,0.0,0.0,0.0,0.0,0.0,0.0,0.0,0.0,0.0,0.0,0.0,0.0,0.0,0.0,0.0,0.0,0.0,0.0,0.0,0.0,0.0,0.0,0.0,0.0,0.0,0.0,0.0,0.0,0.0,0.0,0.0,0.0,0.0,0.0,0.0,0.0,0.0,0.0,0.0,0.0,0.0,0.0,0.0,0.0,0.0,0.0,0.0,0.0,0.0,0.0,0.0,0.0,0.0,0.0,0.0,0.0,0.0,0.0,0.0,0.0,0.0,0.0,0.0,0.0,0.0,0.0,0.0,0.0,0.0,0.0,0.0,0.0,0.0,0.0,0.0,0.0,0.0,0.0,0.0,0.0,0.0,0.0,0.0,0.0,0.0,0.0,0.0,0.0,0.0,0.0,0.0,0.0,0.0,0.0,0.0,0.0,0.0,0.0,0.0,0.0,0.0,0.0,0.0,0.0,0.0,0.0,0.0,0.0,0.0,0.0,0.0,0.0,0.0,0.0,0.0,0.0,0.0,0.0,0.0,0.0,0.0,0.0,0.0,0.0,0.0,0.0,0.0,0.0,0.0,0.0,0.0,0.0,0.0,0.0,0.0,0.0,0.0,0.0,0.0,0.0,0.0,0.0,0.0,0.0,0.0,0.0,0.0,0.0,0.0,0.0,0.0,0.0,0.0,0.0,0.0,0.0,0.0,0.0,0.0,0.0,0.0,0.0,0.0,0.0,0.0,0.0,0.0,0.0,0.0,0.0,0.0,0.0,0.0,0.0,0.0,0.0,0.0,0.0,0.0,0.0,0.0,0.0,0.0,0.0,0.0,0.0,0.0,0.0,0.0,0.0,0.0,0.0,0.0,0.0,0.0,0.0,0.0,0.0,0.0,0.0,0.0,0.0,0.0,0.0,0.0,0.0,0.0,0.0,0.0,0.0,0.0,0.0,0.0,0.0,0.0,0.0,0.0,0.0,0.0,0.0,0.0,0.0,0.0,0.0,0.0,0.0,0.0,0.0,0.0,0.0,0.0,0.0,0.0,0.0,0.0,0.0,0.0,0.0,0.0,0.0,0.0,0.0,0.0,0.0,0.0,0.0,0.0,0.0,0.0,0.0,0.0,0.0,0.0,0.0,0.0,0.0,0.0,0.0,0.0,0.0,0.0,0.0,0.0,0.0,0.0,0.0,0.0,0.0,0.0,0.0,0.0,0.0,0.0,0.0,0.0,0.0,0.0,0.0,0.0,0.0,0.0,0.0,0.0,0.0,0.0,0.0,0.0,0.0,0.0,0.0,0.0,0.0,0.0,0.0,0.0,0.0,0.0,0.0,0.0,0.0,0.0,0.0,0.0,0.0,0.0,0.0,0.0,0.0,0.0,0.0,0.0,0.0,0.0,0.0,0.0,0.0,0.0,0.0,0.0,0.0,0.0,0.0,0.0,0.0,0.0,0.0,0.0,0.0,0.0,0.0,0.0,0.0,0.0,0.0,0.0,0.0,0.0,0.0,0.0,0.0,0.0,0.0,0.0,0.0,0.0,0.0,0.0,0.0,0.0,0.0,0.0,0.0,0.0,0.0,0.0,0.0,0.0,0.0,0.0,0.0,0.0,0.0,0.0,0.0,0.0,0.0,0.0,0.0,0.0,0.0,0.0,0.0,0.0,0.0,0.0,0.0,0.0,0.0,0.0,0.0,0.0,0.0,0.0,0.0,0.0,0.0,0.0,0.0,0.0,0.0,0.0,0.0,0.0,0.0,0.0,0.0,0.0,0.0,0.0,0.0,0.0,0.0,0.0,0.0,0.0,0.0,0.0,0.0,0.0,0.0,0.0,0.0,0.0,0.0,0.0,0.0,0.0,0.0,0.0,0.0,0.0,0.0,0.0,0.0,0.0,0.0,0.0,0.0,0.0,0.0,0.0,0.0,0.0,0.0,0.0,0.0,0.0,0.0,0.0,0.0,0.0,0.0,0.0,0.0,0.0,0.0,0.0,0.0,0.0,0.0,0.0,0.0,0.0,0.0,0.0,0.0,0.0,0.0,0.0,0.0,0.0,0.0,0.0,0.0,0.0,0.0,0.0,0.0,0.0,0.0,0.0,0.0,0.0,0.0,0.0,0.0,0.0,0.0,0.0,0.0,0.0,0.0,0.0,0.0,0.0,0.0,0.0,0.0,0.0,0.0,0.0,0.0,0.0,0.0,0.0,0.0,0.0,0.0,0.0,0.0,0.0,0.0,0.0,0.0,0.0,0.0,0.0,0.0,0.0,0.0,0.0,0.0,0.0,0.0,0.0,0.0,0.0,0.0,0.0,0.0,0.0,0.0,0.0,0.0,0.0,0.0,0.0,0.0,0.0,0.0,0.0,0.0,0.0,0.0,0.0,0.0,0.0,0.0,0.0,0.0,0.0,0.0,0.0,0.0,0.0,0.0,0.0,0.0,0.0,0.0,0.0,0.0,0.0,0.0,0.0,0.0,-0.4779,-0.5524,0.0,0.0,0.0,0.0,0.0,0.0,0.0,0.0,0.0,0.0,0.0,0.0,0.0,0.0,0.0,0.0,0.0,0.0,0.0,0.0,0.0,0.0,0.0,-0.0788,-0.084,-0.0856,-0.0903,0.0,0.0,0.0,0.0,0.0,0.0,0.0,0.0,0.0,-0.2501,-0.254,-0.2477,-0.2387,-0.2384,-0.1901,-0.1715,-0.1715,0.0,0.0,0.0,0.0,0.0,0.0,0.0,0.0,0.0,0.0,0.0,0.0,0.0,0.0,0.0,0.0,0.0,0.0,0.0,0.0,0.0,0.0,0.0,0.0,0.0,0.0,0.0,0.0,0.0,0.0,0.0,0.0,0.0,0.0,0.0,0.0,0.0,0.0,0.0,0.0,0.0,0.0,0.0,0.0,0.0,0.0,0.0,0.0,0.0,0.0,0.0,0.0,0.0,0.0,0.0,0.0,0.0,0.0,0.0,0.0,0.0,0.0,0.0,0.0,0.0,0.0,0.0,0.0,0.0,0.0,-0.4504,-0.4255,0.0,0.0,0.0,0.0,0.0,0.0,0.0,0.0,0.0,0.0,0.0,0.0,0.0,0.0,0.0,0.0,0.0,0.0,0.0,0.0,0.0,-0.0744,-0.0817,-0.0826,-0.0839,-0.0813,-0.0815,-0.0807,-0.0839,-0.0804,0.0,0.0,0.0,0.0,-0.1507,-0.177,-0.1925,-0.1882,-0.2095,-0.1843,-0.1227,-0.1208,-0.1171,-0.1119,-0.1533,0.0,0.0,0.0,0.0,0.0,0.0,0.0,0.0,0.0,0.0,0.0,0.0,0.0,0.0,0.0,0.0,0.0,0.0,0.0,0.0,0.0,0.0,0.0,0.0,0.0,0.0,0.0,0.0,0.0,0.0,0.0,0.0,0.0,0.0,0.0,0.0,0.0,0.0,0.0,0.0,0.0,0.0,0.0,0.0,0.0,0.0,0.0,0.0,0.0,0.0,0.0,0.0,0.0,0.0,0.0,0.0,0.0,0.0,0.0,0.0,0.0,0.0,0.0,-0.3717,-0.317,-0.3178,-0.3283,-0.5018,-0.7874,-0.4653,-0.3052,-0.2752,-0.4273,0.0,0.0,0.0,0.0,0.0,0.0,0.0,0.0,0.0,0.0,0.0,0.0,0.0,0.0,0.0,0.0,0.0,0.0,0.0,-0.0796,-0.08,-0.0876,-0.0895,-0.0898,-0.0899,-0.091,-0.0878,-0.0913,0.0,0.0,0.0,-0.1121,-0.1672,-0.1964,-0.2271,-0.2734,-0.2466,-0.2027,-0.1291,-0.1313,-0.132,-0.1307,-0.1189,-0.1152,-0.1098,0.0,0.0,0.0,0.0,0.0,0.0,0.0,0.0,0.0,0.0,0.0,0.0,0.0,0.0,0.0,0.0,0.0,0.0,0.0,0.0,0.0,0.0,0.0,0.0,0.0,0.0,0.0,0.0,0.0,0.0,0.0,0.0,0.0,0.0,0.0,0.0,0.0,0.0,0.0,0.0,0.0,-0.1817,-0.5094,0.0,0.0,0.0,0.0,0.0,0.0,0.0,0.0,0.0,0.0,0.0,0.0,0.0,-0.354,-0.3471,-0.3794,-0.4977,-0.6747,-0.3,-0.0981,-0.0553,-0.1438,-0.411,-0.7862,-0.5286,0.0,-0.1908,-0.2095,0.0,0.0,0.0,0.0,0.0,0.0,0.0,0.0,0.0,0.0,0.0,0.0,0.0,0.0,0.0,0.0,0.0,0.0,0.0,0.0,0.0,-0.0926,-0.0968,-0.1001,-0.1018,-0.1083,-0.0999,-0.1001,0.0,0.0,-0.099,-0.1129,-0.1333,-0.1858,-0.2275,-0.2643,-0.2102,-0.1659,-0.1315,-0.1328,-0.1342,-0.1355,-0.1288,-0.1059,-0.0771,-0.0747,0.0,0.0,0.0,0.0,0.0,0.0,0.0,0.0,0.0,0.0,0.0,0.0,0.0,0.0,0.0,0.0,0.0,0.0,0.0,0.0,0.0,0.0,0.0,0.0,0.0,0.0,0.0,0.0,0.0,0.0,0.0,0.0,0.0,0.0,0.0,0.0,0.0,0.0,0.0,-0.1399,-0.263,-0.4869,-0.5152,-0.5547,0.0,0.0,0.0,0.0,0.0,0.0,0.0,0.0,0.0,-0.6027,-0.4735,-0.313,-0.1358,-0.1528,-0.2108,-0.3071,-0.1897,-0.0899,-0.0,-0.0449,-0.1683,-0.3485,-0.2399,-0.1681,-0.1287,-0.1622,-0.2459,-0.3644,0.0,0.0,0.0,0.0,-0.4897,-0.4966,0.0,0.0,0.0,0.0,0.0,0.0,0.0,0.0,0.0,0.0,0.0,0.0,-0.0972,-0.1031,-0.1088,-0.114,-0.1157,-0.1153,-0.1125,-0.1144,-0.114,-0.1104,-0.1122,-0.1133,-0.1133,-0.1714,-0.2051,-0.21,-0.1607,-0.1385,-0.14,-0.1414,-0.1431,-0.1355,-0.1335,-0.099,-0.041,-0.0408,-0.0396,-0.0378,0.0,0.0,0.0,0.0,0.0,0.0,0.0,0.0,0.0,0.0,0.0,0.0,0.0,0.0,0.0,0.0,0.0,0.0,0.0,0.0,0.0,0.0,0.0,0.0,0.0,0.0,0.0,0.0,0.0,0.0,0.0,0.0,0.0,0.0,0.0,0.0,0.0,-0.1846,-0.2989,-0.4367,-0.5041,-0.5806,0.0,0.0,0.0,0.0,0.0,0.0,-0.5952,-0.517,-0.5089,-0.5764,-0.4186,-0.2446,-0.0561,-0.0115,-0.0115,-0.0452,-0.1033,-0.1037,-0.0457,-0.0115,0.0,0.0,0.0,-0.0233,-0.069,-0.1153,-0.1601,-0.2023,-0.3392,-0.4189,-0.4552,-0.4229,-0.4123,-0.4188,0.0,0.0,0.0,0.0,0.0,0.0,0.0,0.0,0.0,0.0,0.0,-0.1066,-0.1069,-0.1123,-0.1172,-0.1204,-0.1182,-0.119,-0.1322,-0.1328,-0.1262,-0.1288,-0.129,-0.1291,-0.1291,-0.1351,-0.137,-0.1348,-0.14,-0.1356,-0.143,-0.1385,-0.1409,-0.141,-0.1308,-0.0779,-0.0,-0.0,-0.0,-0.0,-0.008,0.0,0.0,0.0,0.0,0.0,0.0,0.0,0.0,0.0,0.0,0.0,0.0,0.0,0.0,0.0,0.0,0.0,0.0,0.0,0.0,0.0,0.0,0.0,0.0,0.0,0.0,0.0,0.0,0.0,0.0,0.0,0.0,0.0,0.0,0.0,0.0,0.0,0.0,-0.4276,-0.5971,0.0,0.0,0.0,0.0,-0.3907,-0.377,-0.3767,-0.3796,-0.5757,-0.5406,-0.2176,-0.0917,-0.0797,-0.1908,-0.0674,-0.0566,-0.1724,-0.0584,-0.0711,-0.1684,-0.0488,0.0,0.0,0.0,-0.0,-0.0,-0.0119,-0.0815,-0.1945,-0.1942,-0.2851,-0.4218,-0.3987,-0.376,-0.3307,0.0,0.0,0.0,-0.072,-0.0735,-0.0758,-0.0788,-0.0842,-0.09,-0.0949,-0.1043,-0.1112,-0.1132,-0.1223,-0.1287,-0.1298,-0.1324,-0.134,-0.1343,-0.1361,-0.1359,-0.1333,-0.135,-0.1367,-0.1388,-0.1322,-0.1173,-0.0932,-0.0977,-0.1103,-0.1412,-0.1449,-0.1466,-0.1361,-0.0733,-0.0309,0.0,0.0,0.0,0.0,0.0,-0.0083,0.0,0.0,0.0,0.0,0.0,0.0,0.0,0.0,0.0,0.0,0.0,0.0,0.0,0.0,0.0,0.0,0.0,0.0,0.0,0.0,0.0,0.0,0.0,0.0,0.0,0.0,0.0,0.0,0.0,0.0,0.0,0.0,0.0,0.0,0.0,0.0,0.0,-0.1927,-0.5708,0.0,-0.5322,-0.6802,-0.7512,-0.6503,-0.3238,-0.1246,-0.1261,-0.2078,-0.1983,-0.0711,-0.024,-0.0239,-0.0706,-0.107,-0.1061,-0.069,-0.1041,-0.0926,-0.0691,-0.1043,-0.0697,0.0,0.0,0.0,0.0,0.0,-0.0236,-0.0711,-0.1184,-0.1647,-0.2099,-0.2451,-0.2568,-0.2338,0.0,0.0,0.0,-0.072,-0.0744,-0.0826,-0.0817,-0.0874,-0.0942,-0.1022,-0.1102,-0.1171,-0.1223,-0.1299,-0.1272,-0.129,-0.1403,-0.1415,-0.1406,-0.1434,-0.1433,-0.1395,-0.1411,-0.1345,-0.1191,-0.1292,-0.1137,-0.0893,-0.0614,-0.0627,-0.0953,-0.0975,-0.0986,-0.0876,-0.0331,0.0,0.0,0.0,0.0,0.0,0.0,0.0,0.0,0.0,0.0,0.0,0.0,0.0,0.0,0.0,0.0,0.0,0.0,0.0,0.0,0.0,0.0,0.0,0.0,0.0,0.0,0.0,0.0,0.0,0.0,0.0,0.0,0.0,0.0,0.0,0.0,0.0,0.0,0.0,0.0,0.0,0.0,-0.1264,-0.1116,-0.07,-0.3734,-0.5784,-0.5402,-0.535,-0.5342,-0.5342,-0.201,0.0,0.0,0.0,0.0,0.0,0.0,0.0,0.0,-0.0846,-0.1074,-0.0575,-0.1052,-0.0935,-0.0575,-0.1053,-0.0705,0.0,0.0,0.0,0.0,0.0,0.0,-0.0,-0.0485,-0.0601,-0.0718,-0.1317,-0.1557,-0.1681,0.0,0.0,-0.0675,-0.0721,-0.0746,-0.0834,-0.0897,-0.0905,-0.0927,-0.1107,-0.1176,-0.1249,-0.1255,-0.1265,-0.1287,-0.143,-0.141,-0.1406,-0.1437,-0.1467,-0.1483,-0.1483,-0.1391,-0.1216,-0.0764,-0.1071,-0.1292,-0.1318,-0.0427,0.0,0.0,0.0,0.0,0.0,0.0,0.0,0.0,0.0,0.0,0.0,0.0,0.0,0.0,0.0,0.0,0.0,0.0,0.0,0.0,0.0,0.0,0.0,0.0,0.0,0.0,0.0,0.0,0.0,0.0,0.0,0.0,0.0,0.0,0.0,0.0,0.0,0.0,0.0,0.0,0.0,0.0,0.0,0.0,0.0,0.0,0.0,-0.0694,-0.1017,-0.116,-0.0762,-0.0225,-0.2317,-0.8037,-0.3421,0.0,0.0,0.0,0.0,0.0,0.0,0.0,0.0,0.0,0.0,0.0,0.0,-0.0586,-0.1731,-0.0604,-0.0613,-0.1694,-0.0506,0.0,0.0,0.0,0.0,0.0,0.0,0.0,0.0,0.0,0.0,-0.0124,-0.0742,-0.0989,-0.1115,0.076,0.0224,-0.0317,-0.0702,-0.0776,-0.0815,-0.0875,-0.0956,-0.1044,-0.1141,-0.1226,-0.1295,-0.1259,-0.1385,-0.1418,-0.1434,-0.1448,-0.1478,-0.1531,-0.1542,-0.1547,-0.1547,-0.1449,-0.1366,-0.1193,-0.0608,-0.0418,-0.0436,-0.0111,0.0,0.0,0.0,0.0,0.0,0.0,0.0,0.0,0.0,0.0,0.0,0.0,0.0,0.0,0.0,0.0,0.0,0.0,0.0,0.0,0.0,0.0,0.0,0.0,0.0,0.0,0.0,0.0,0.0,0.0,0.0,0.0,0.0,0.0,0.0,0.0,0.0,0.0,0.0,0.0,0.0,0.0,0.0,0.0,0.0,-0.1354,-0.138,-0.115,-0.0761,-0.0337,-0.0227,-0.0117,-0.0596,-0.2276,-0.0978,0.0,0.0,0.0,0.0,0.0,0.0,0.0,0.0,0.0,0.0,0.0,0.0,-0.0124,-0.0485,-0.1105,-0.0986,-0.0491,-0.0124,0.0,0.0,0.0,0.0,0.0,0.0,0.0,0.0,0.0,0.0,-0.0,-0.0254,-0.0255,-0.0255,0.0805,0.0313,-0.0181,-0.0712,-0.0788,-0.0832,-0.0905,-0.0983,-0.1074,-0.1189,-0.125,-0.1309,-0.1377,-0.1403,-0.1426,-0.1452,-0.1471,-0.1506,-0.1568,-0.1583,-0.149,-0.1192,-0.1302,-0.1222,-0.0836,-0.0321,0.0,0.0,0.0,0.0,0.0,0.0,0.0,0.0,0.0,0.0,0.0,0.0,0.0,0.0,0.0,0.0,0.0,0.0,0.0,0.0,0.0,0.0,0.0,0.0,0.0,0.0,0.0,0.0,0.0,0.0,0.0,0.0,0.0,0.0,0.0,0.0,0.0,0.0,0.0,0.0,0.0,0.0,0.0,0.0,0.0,0.0,0.0,0.0,-0.1419,-0.1228,-0.0899,-0.0342,0.0,0.0,0.0,0.0,0.0,0.0,0.0,0.0,0.0,0.0,0.0,0.0,0.0,0.0,0.0,0.0,0.0,0.0,0.0,-0.0,-0.0757,-0.0633,0.0,0.0,0.0,0.0,0.0,0.0,0.0,0.0,0.0,0.0,0.0,0.0,0.0,0.0,0.0,0.0,0.0901,0.0406,-0.0092,-0.0624,-0.0745,-0.0842,-0.0875,-0.0999,-0.1091,-0.1238,-0.1264,-0.131,-0.1423,-0.1411,-0.1419,-0.148,-0.1486,-0.1512,-0.1572,-0.1614,-0.1327,-0.0813,-0.1039,-0.0854,-0.0,0.0,0.0,0.0,0.0,0.0,0.0,0.0,0.0,0.0,0.0,0.0,0.0,0.0,0.0,0.0,0.0592,0.0571,0.0,0.0,0.0,0.0,0.0,0.0,0.0,0.0,0.0,0.0,0.0,0.0,0.0,0.0,0.0,0.0,0.0,0.0,0.0,0.0,0.0,0.0,0.0,0.0,0.0,0.0,0.0,0.0,0.0,0.0,0.0,0.0,-0.1263,-0.095,-0.0121,0.0,0.0,0.0,0.0,0.0,0.0,0.0,0.0,0.0,0.0,0.0,0.0,0.0,0.0,0.0,0.0,0.0,0.0,0.0,0.0,0.0,0.0,0.0,0.0,0.0,0.0,0.0,0.0,0.0,0.0,0.0,0.0,0.0,0.0,0.0,0.0,0.0,0.0,0.0,0.1562,0.0941,0.0433,-0.0052,-0.0577,-0.0928,-0.0965,-0.1029,-0.1114,-0.1318,-0.1299,-0.1356,-0.1427,-0.143,-0.1451,-0.1512,-0.1517,-0.1543,-0.1605,-0.1704,-0.1631,-0.148,-0.0662,-0.0226,-0.0,0.0,0.0,0.0,0.0,0.0,0.0,0.0,0.0,0.0,0.0,0.0,0.0,0.0,0.0,0.0367,0.4658,0.3804,0.0,0.0,0.0,0.0,0.0,0.0,0.0,0.0,0.0,0.0,0.0,0.0,0.0,0.0,0.0,0.0,0.0,0.0,0.0,0.0,0.0,0.0,0.0,0.0,0.0,0.0,0.0,0.0,0.0,0.0,0.0,-0.0232,-0.0237,-0.0242,-0.0,0.0,0.0,0.0,0.0,0.0,0.0,0.0,0.0,0.0,0.0,0.0,0.0,0.0,0.0,0.0,0.0,0.0,0.0,0.0,0.0,0.0,0.0,0.0,0.0,0.0,0.0,0.0,0.0,0.0,0.0,0.0,0.0,0.0,0.0,0.0,0.0,0.0,0.0,0.0,0.2367,0.1487,0.0598,0.0106,-0.0479,-0.0939,-0.0975,-0.1027,-0.1103,-0.1239,-0.1296,-0.1347,-0.1407,-0.1426,-0.1453,-0.1406,-0.1475,-0.1421,-0.1229,-0.1532,-0.1686,-0.1644,-0.057,0.0,0.0,0.0,0.0,0.0,0.0,0.0,0.0,0.0,0.0,0.0,0.0,0.0,0.0,0.0783,0.0644,0.0505,0.578,0.6306,0.3612,0.1047,0.0,0.0,0.0,0.0,0.0,0.0,0.0,0.0,0.0,0.0,0.0,0.0,0.0,0.0,0.0,0.0,0.0,0.0,0.0,0.0,0.0,0.0,0.0,0.0,0.0,0.0,0.0,0.0,0.0,0.0,0.0,0.0,0.0,0.0,0.0,0.0,0.0,0.0,0.0,0.0,0.0,0.0,0.0,0.0,0.0,0.0,0.0,0.0,0.0,0.0,0.0,0.0,0.0,0.0,0.0,0.0,0.0,0.0,0.0,0.0,0.0,0.0,0.0,0.0,0.0,0.0,0.0,0.0,0.0,0.0,0.0,0.0,0.3091,0.1993,0.0884,0.0321,-0.0323,-0.0779,-0.0975,-0.1014,-0.1084,-0.1221,-0.1271,-0.1316,-0.1376,-0.1408,-0.1351,-0.1293,-0.1508,-0.1365,-0.1034,-0.1218,-0.1372,-0.124,-0.0467,0.0,0.0,0.0,0.0,0.0,0.0,0.0,0.0,0.0,0.0,0.0,0.0269,0.0268,0.0132,0.1456,0.1444,0.0777,0.55,0.7511,0.7461,0.3129,0.0944,0.0,0.0,0.0,0.0,0.0,0.0,0.0,0.0,0.0,0.0,0.0,0.0,0.0,0.0,0.0,0.0,0.0,0.0,0.0,0.0,0.0,0.0,0.0,0.0,0.0,0.0,0.0,0.0,0.0,0.0,0.0,0.0,0.0,0.0,0.0,0.0,0.0,0.0,0.0,0.0,0.0,0.0,0.0,0.0,0.0,0.0,0.0,0.0,0.0,0.0,0.0,0.0,0.0,0.0,0.0,0.0,0.0,0.0,0.0,0.0,0.0,0.0,0.0,0.0,0.0,0.0,0.0,0.0,0.0,0.0,0.0,0.3335,0.2662,0.1829,0.1111,0.039,-0.0285,-0.0918,-0.1014,-0.1067,-0.1164,-0.1227,-0.1286,-0.1346,-0.1293,-0.1154,-0.083,-0.1276,-0.1625,-0.1521,-0.066,-0.023,-0.0229,-0.012,0.0,0.0,0.0,0.0,0.0,0.0,0.0,0.0,0.0,0.0,0.0,0.1346,0.1211,0.0,0.094,0.1466,0.2102,0.4403,0.6404,0.7849,0.722,0.4059,0.0,0.0,0.0,0.0,0.0,0.0,0.0,0.0,0.0,0.0,0.0,0.0,0.0,0.0,0.0,0.0,0.0,0.0,0.0,0.0,0.0,0.0,0.0,0.0,0.0,0.0,0.0,0.0,0.0,0.0,0.0,0.0,0.0,0.0,0.0,0.0,0.0,0.0,0.0,0.0,0.0,0.0,0.0,0.0,0.0,0.0,0.0,0.0,0.0,0.0,0.0,0.0,0.0,0.0,0.0,0.0,0.0,0.0,0.0,0.0,0.0,0.0,0.0,0.0,0.0,0.0,0.0,0.0,0.0,0.0,0.0,0.3527,0.3188,0.2631,0.1846,0.0952,0.0057,-0.0857,-0.0999,-0.1046,-0.1152,-0.1189,-0.1157,-0.0985,-0.112,-0.0986,-0.0369,-0.0489,-0.0707,-0.0707,-0.0217,0.0,0.0,0.0,0.0,0.0,0.0,0.0,0.0,0.0,0.0,0.0,0.0943,0.1346,0.1346,0.1481,0.1481,0.1346,0.1616,0.1879,0.2265,0.2998,0.3328,0.3655,0.6743,0.4641,0.0348,0.3203,0.239,0.0,0.0,0.0,0.0,0.0,0.0,0.0,0.0,0.0,0.0,0.0,0.0,0.0,0.0,0.0,0.0,0.0,0.0,0.0,0.0,0.0,0.0,0.0,0.0,0.0,0.0,0.0,0.0,0.0,0.0,0.0,0.0,0.0,0.0,0.0,0.0,0.0,0.0,0.0,0.0,0.0,0.0,0.0,0.0,0.0,0.0,0.0,0.0,0.0,0.0,0.0,0.0,0.0,0.0,0.0,0.0,0.0,0.0,0.0,0.0,0.0,0.0,0.0,0.0,0.0,0.0,0.0,0.0,0.3583,0.3527,0.3249,0.2631,0.1623,0.0515,-0.0666,-0.0922,-0.1022,-0.0978,-0.1072,-0.0966,-0.056,-0.0766,-0.0712,-0.0091,0.0,0.0,0.0,0.0,0.0,0.0,0.0,0.0,0.0,0.0,0.0,0.0,0.0,0.0,0.0,0.1473,0.2147,0.2155,0.2153,0.2556,0.3365,0.3362,0.322,0.2933,0.2593,0.1525,0.0375,0.4231,0.4103,0.2285,0.5868,0.4936,0.1823,0.045,0.0,0.0,0.0,0.0,0.0,0.0,0.0,0.0,0.0,0.0,0.0,0.0,0.0,0.0,0.0,0.0,0.0,0.0,0.0,0.0,0.0,0.0,0.0,0.0,0.0,0.0,0.0,0.0,0.0,0.0,0.0,0.0,0.0,0.0,0.0,0.0,0.0,0.0,0.0,0.0,0.0,0.0,0.0,0.0,0.0,0.0,0.0,0.0,0.0,0.0,0.0,0.0,0.0,0.0,0.0,0.0,0.0,0.0,0.0,0.0,0.0,0.0,0.0,0.0,0.0,0.0,0.3583,0.3583,0.3583,0.3583,0.2575,0.1246,-0.0176,-0.0727,-0.0876,-0.0581,-0.0883,-0.0796,-0.0078,-0.0,-0.0,-0.0,0.0,0.0,0.0,0.0,0.0,0.0,0.0,0.0,0.0,0.0,0.0,0.0,0.0,0.0,0.0,0.1451,0.226,0.2289,0.4034,0.5383,0.6325,0.6305,0.5716,0.4714,0.356,0.187,0.0,0.0234,0.2731,0.6317,0.7002,0.7085,0.6303,0.1567,0.0,0.0,0.0,0.0,0.0,0.0,0.0,0.0,0.0,0.0,0.0,0.0,0.0,0.0,0.0,0.0,0.0,0.0,0.0,0.0,0.0,0.0,0.0,0.0,0.0,0.0,0.0,0.0,0.0,0.0,0.0,0.0,0.0,0.0,0.0,0.0,0.0,0.0,0.0,0.0,0.0,0.0,0.0,0.0,0.0,0.0,0.0,0.0,0.0,0.0,0.0,0.0,0.0,0.0,0.0,0.0,0.0,0.0,0.0,0.0,0.0,0.0,0.0,0.0,0.0,0.0,0.3583,0.3583,0.3583,0.3583,0.3249,0.2471,0.0968,-0.0293,-0.103,-0.0937,-0.0604,0.0,0.0,0.0,0.0,0.0,0.0,0.0,0.0,0.0,0.0,0.0,0.0,0.0,0.0,0.0,0.0,0.0,0.0,0.0515,0.145,0.145,0.1718,0.2257,0.3713,0.5409,0.7206,0.7187,0.7428,0.7775,0.7041,0.5904,0.4596,0.318,0.3302,0.4526,0.0,0.7176,0.6979,0.5365,0.2676,0.0,0.0,0.0,0.0,0.0,0.0,0.0,0.0,0.0,0.0,0.0,0.0,0.0,0.0,0.0,0.0,0.0,0.0,0.0,0.0,0.0,0.0,0.0,0.0,0.0,0.0,0.0,0.0,0.0,0.0,0.0,0.0,0.0,0.0,0.0,0.0,0.0,0.0,0.0,0.0,0.0,0.0,0.0,0.0,0.0,0.0,0.0,0.0,0.0,0.0,0.0,0.0,0.0,0.0,0.0,0.0,0.0,0.0,0.0,0.0,0.0,0.0,0.0,0.0,0.0,0.3583,0.3583,0.3583,0.3583,0.3583,0.0,0.0,0.0,0.0,0.0,0.0,0.0,0.0,0.0,0.0,0.0,0.0,0.0,0.0,0.0,0.0,0.0,0.0,0.0,0.0,0.0463,0.0474,0.0,0.0246,0.1007,0.2063,0.1684,0.1687,0.2206,0.3886,0.5525,0.7107,0.798,0.8872,0.9368,0.8793,0.8106,0.7269,0.5614,0.475,0.0,0.6438,0.6975,0.7006,0.7183,0.4554,0.1113,0.0228,0.0,0.0,0.0,0.0,0.0,0.0,0.0,0.0,0.0,0.0,0.0,0.0,0.0,0.0,0.0,0.0,0.0,0.0,0.0,0.0,0.0,0.0,0.0,0.0,0.0,0.0,0.0,0.0,0.0,0.0,0.0,0.0,0.0,0.0,0.0,0.0,0.0,0.0,0.0,0.0,0.0,0.0,0.0,0.0,0.0,0.0,0.0,0.0,0.0,0.0,0.0,0.0,0.0,0.0,0.0,0.0,0.0,0.0,0.0,0.0,0.0,0.0,0.0,0.3583,0.3583,0.3583,0.0,0.0,0.0,0.0,0.0,0.0,0.0,0.0,0.0,0.0,0.0,0.0,0.0,0.0,0.0,0.0,0.0,0.0,0.0,0.0,0.0,0.0,0.1205,0.1237,0.0115,0.0709,0.1331,0.197,0.1999,0.2012,0.2136,0.4765,0.5834,0.5989,0.8666,0.9761,0.9607,0.8948,0.837,0.7901,0.7107,0.6757,0.667,0.6709,0.6604,0.6632,0.7022,0.5469,0.2971,0.0684,0.0,0.0,0.0,0.0,0.0,0.0,0.0,0.0,0.0,0.0,0.0,0.0,0.0,0.0,0.0,0.0,0.0,0.0,0.0,0.0,0.0,0.0,0.0,0.0,0.0,0.0,0.0,0.0,0.0,0.0,0.0,0.0,0.0146,0.0,0.0,0.0,0.0,0.0,0.0,0.0,0.0,0.0,0.0,0.0,0.0,0.0,0.0,0.0,0.0,0.0,0.0,0.0,0.0,0.0,0.0,0.0,0.0,0.0,0.0,0.0,0.0,0.0,0.0,0.0,0.0,0.0,0.0,0.0,0.0,0.0,0.0,0.0,0.0,0.0,0.0,0.0,0.0,0.0,0.0,0.0,0.0,0.0,0.0,0.0,0.0,0.0,0.0,0.0,0.1006,0.1354,0.1197,0.0988,0.1239,0.1876,0.1906,0.1919,0.2039,0.4545,0.553,0.55,0.7915,0.8883,0.853,0.81,0.7672,0.7304,0.6829,0.6464,0.6305,0.6448,0.6399,0.629,0.6945,0.4399,0.0799,0.0236,0.0,0.0,0.0,0.0,0.0,0.0,0.0,0.0,0.0,0.0,0.0,0.0,0.0,0.0,0.0,0.0,0.0,0.0,0.0,0.0,0.0,0.0,0.0,0.0,0.0,0.0,0.0,0.0,0.0,0.0,0.0,0.045,0.1779,0.0749,0.0,0.0,0.0,0.0,0.0,0.0,0.0,0.0,0.0,0.0,0.0,0.0,0.0,0.0,0.0,0.0,0.0,0.0,0.0,0.0,0.0,0.0,0.0,0.0,0.0,0.0,0.0,0.0,0.0,0.0,0.0,0.0,0.0,0.0,0.0,0.0,0.0,0.0,0.0,0.0,0.0,0.0,0.0,0.0,0.0,0.0,0.0,0.0,0.0,0.0,0.0,0.0,0.0,0.0,0.0476,0.0981,0.1507,0.1255,0.1401,0.1764,0.182,0.1839,0.1939,0.4325,0.527,0.5356,0.7672,0.8434,0.0,0.0,0.7382,0.7143,0.6606,0.6261,0.6059,0.6116,0.6128,0.6023,0.5588,0.3022,0.0,0.0,0.0,0.0,0.0,0.0,0.0,0.0,0.0,0.0,0.0,0.0,0.0,0.0,0.0,0.0,0.0,0.0,0.0,0.0,0.0,0.0,0.0,0.0,0.0,0.0,0.0,0.0289,0.1019,0.1026,0.0885,0.0593,0.0604,0.0911,0.1952,0.1365,0.0911,0.06,0.0607,0.0458,0.0,0.0,0.0,0.0,0.0,0.0,0.0,0.0,0.0,0.0,0.0,0.0,0.0,0.0,0.0,0.0,0.0,0.0,0.0,0.0,0.0,0.0,0.0,0.0,0.0,0.0,0.0,0.0,0.0,0.0,0.0,0.0,0.0,0.0,0.0,0.0,0.0,0.0,0.0,0.0,0.0,0.0,0.0,0.0,0.0,0.0,0.0,0.0,0.0,0.0,0.0,0.0372,0.1193,0.1499,0.1652,0.1532,0.1715,0.174,0.1821,0.406,0.497,0.5093,0.7352,0.8143,0.8014,0.7517,0.7127,0.6887,0.0,0.5953,0.5786,0.5841,0.5926,0.5824,0.3843,0.1701,0.0,0.0,0.0,0.0,0.0,0.0,0.0,0.0,0.0,0.0,0.0,0.0,0.0,0.0,0.0,0.0,0.0,0.0,0.0,0.0,0.0,0.0,0.0,0.0,0.0,0.0,0.0144,0.088,0.2378,0.2533,0.2247,0.1513,0.1531,0.1382,0.1519,0.2151,0.2153,0.1519,0.1383,0.1082,0.0309,0.0156,0.0157,0.0,0.0157,0.0156,0.0,0.0,0.0,0.0,0.0,0.0,0.0,0.0,0.0,0.0,0.0,0.0,0.0,0.0,0.0,0.0,0.0,0.0,0.0,0.0,0.0,0.0,0.0,0.0,0.0,0.0,0.0,0.0,0.0,0.0,0.0,0.0,0.0,0.0,0.0,0.0,0.0,0.0,0.0,0.0,0.0,0.0,0.0,0.0,0.0,0.0255,0.0704,0.1165,0.1365,0.1475,0.1516,0.1532,0.1622,0.3616,0.4418,0.4422,0.6155,0.6936,0.6866,0.641,0.611,0.6092,0.5661,0.0,0.0,0.5409,0.5773,0.5896,0.3647,0.1644,0.0,0.0,0.0,0.0,0.0,0.0,0.0,0.0,0.0,0.0,0.0,0.0,0.0,0.0,0.0,0.0,0.0,0.0,0.0,0.0,0.0,0.0,0.0,0.0,0.0,0.0,0.1149,0.2201,0.2528,0.2552,0.2418,0.2271,0.2298,0.2312,0.2307,0.2489,0.2493,0.2308,0.2334,0.2193,0.2036,0.1413,0.0785,0.0,0.0785,0.0781,0.0,0.0,0.0,0.0,0.0,0.0,0.0,0.0,0.0,0.0,0.0,0.0,0.0,0.0,0.0,0.0,0.0,0.0,0.0,0.0,0.0,0.0,0.0,0.0,0.0,0.0,0.2501,0.086,0.0085,0.0,0.0,0.0,0.0,0.0,0.0,0.0,0.0,0.0,0.0,0.0,0.0,0.0,0.0,0.0,0.0,0.0164,0.0579,0.0,0.1305,0.1391,0.1436,0.1457,0.1547,0.3448,0.4238,0.4283,0.6011,0.6599,0.6499,0.6014,0.5791,0.5605,0.0,0.0,0.0,0.5349,0.5743,0.5957,0.4892,0.2478,0.0,0.0,0.0,0.0,0.0,0.0,0.0,0.0,0.0,0.0,0.0,0.0,0.0,0.0,0.0,0.0,0.0,0.0,0.0,0.0,0.0,0.0,0.0,0.0664,0.122,0.1246,0.1563,0.2043,0.2397,0.2567,0.2436,0.2467,0.2484,0.2492,0.2492,0.3286,0.3445,0.2493,0.2193,0.2669,0.4236,0.4395,0.345,0.1254,0.2977,0.3895,0.3854,0.354,0.3218,0.3351,0.3373,0.2485,0.0633,0.0637,0.0643,0.0651,0.0651,0.0488,0.0,0.0,0.0,0.0,0.0,0.0,0.0,0.0,0.0,0.0,0.0,0.0,0.0,0.0,0.3086,0.1603,0.0184,0.0,0.0,0.0,0.0,0.0,0.0,0.0,0.0,0.0,0.0,0.0,0.0,0.0,0.0,0.0,0.0,0.0,0.0629,0.108,0.0,0.0,0.0,0.0,0.0,0.3393,0.4173,0.4177,0.5832,0.6436,0.0,0.0,0.5536,0.5273,0.0,0.0,0.0,0.0,0.5636,0.6031,0.6111,0.3719,0.057,0.012,0.0,0.0,0.0,0.0,0.0,0.0,0.0,0.0,0.0,0.0,0.0,0.0,0.0,0.0,0.0,0.0,0.0,0.0,0.0,0.0,0.0,0.0917,0.1881,0.2193,0.183,0.1742,0.2413,0.2429,0.2455,0.2508,0.2828,0.2983,0.2983,0.4547,0.4857,0.3295,0.3295,0.4236,0.6427,0.7217,0.6427,0.3912,0.563,0.7166,0.8491,0.7386,0.7197,0.7764,0.7995,0.6544,0.38,0.3037,0.2745,0.2611,0.2611,0.2281,0.1463,0.065,0.0163,0.0,0.0,0.0,0.0,0.0,0.0,0.0,0.0,0.0,0.0,0.0,0.318,0.1555,0.0188,0.0,0.0,0.0,0.0,0.0,0.0,0.0,0.0,0.0,0.0,0.0,0.0,0.0,0.0,0.0,0.0,0.0,0.0629,0.1107,0.0,0.0,0.0,0.0,0.0,0.0,0.3726,0.3572,0.5078,0.0,0.0,0.0,0.0,0.0,0.0,0.0,0.0,0.0,0.5616,0.5898,0.6054,0.4671,0.2596,0.057,0.0,0.0,0.0,0.0,0.0,0.0,0.0,0.0,0.0,0.0,0.0,0.0,0.0,0.0,0.0,0.0,0.0,0.0,0.0,0.0,0.0,0.0127,0.0657,0.2051,0.2252,0.2324,0.2413,0.2448,0.2477,0.2511,0.3922,0.4701,0.4701,0.6264,0.6729,0.563,0.7361,0.8627,0.8939,0.7989,0.7833,0.8622,0.7829,0.8886,1.2066,0.9867,1.0075,1.2407,1.242,1.2331,1.2043,0.888,0.7237,0.708,0.708,0.7033,0.6482,0.2755,0.0649,0.0,0.0,0.0,0.0,0.0,0.0,0.0,0.0,0.0,0.0,0.4698,0.4246,0.2877,0.0383,0.0,0.0,0.0,0.0,0.0,0.0,0.0,0.0,0.0,0.0,0.0,0.0,0.0,0.0,0.0,0.0,0.0079,0.0236,0.0943,0.0,0.0,0.0,0.0,0.0,0.0,0.3756,0.4224,0.5085,0.0,0.0,0.0,0.0,0.0,0.0,0.0,0.0,0.0,0.0,0.5937,0.5883,0.4638,0.2849,0.0661,0.0,0.0,0.0,0.0,0.0,0.0,0.0,0.0,0.0,0.0,0.0,0.0,0.0,0.0,0.0,0.0,0.0,0.0,0.0716,0.1088,0.0122,0.0761,0.1451,0.1624,0.1961,0.2324,0.2413,0.3366,0.4024,0.4073,0.5483,0.6889,0.7976,0.8604,0.9226,0.9842,0.8764,0.8613,0.9703,0.9231,0.9231,0.9708,1.0164,1.0658,1.1173,1.1317,1.1867,1.2986,1.3075,1.2559,1.1564,1.0055,0.8898,0.7745,0.7689,0.794,0.8344,0.6738,0.5611,0.48,0.4117,0.3813,0.3363,0.0,0.0,0.0,0.0,0.0,0.4353,0.3993,0.4564,0.3798,0.0474,0.0,0.0,0.0,0.0,0.0,0.0,0.0,0.0,0.0,0.0,0.0,0.0,0.0,0.0,0.0,0.0,0.0,0.0,0.0707,0.1178,0.0,0.0,0.1728,0.2431,0.0,0.0,0.0,0.0,0.0,0.0,0.0,0.0,0.0,0.0,0.0,0.0,0.0,0.0,0.0,0.0,0.0,0.2766,0.0636,0.0,0.0,0.0,0.0,0.0,0.0,0.0,0.0,0.0,0.0,0.0,0.0,0.0,0.0369,0.1586,0.1182,0.046,0.0346,0.1178,0.1559,0.0719,0.1387,0.1843,0.1469,0.1949,0.2324,0.2413,0.3988,0.4976,0.5036,0.6904,0.8915,1.063,1.0785,1.1256,1.2501,1.0319,0.9537,1.063,1.0785,1.0785,1.0785,1.1921,1.1992,1.0984,1.214,1.2874,1.3024,1.3125,1.2514,1.1359,1.1359,1.052,0.9341,0.9264,0.9672,1.0253,0.977,0.9452,0.9278,0.7773,0.7806,0.7873,0.0,0.0,0.0,0.0,0.0,0.0,0.2338,0.374,0.3778,0.045,0.0,0.0,0.0,0.0,0.0,0.0,0.0,0.0,0.0,0.0,0.0,0.0,0.0,0.0,0.0,0.0,0.0,0.0,0.0393,0.0864,0.1335,0.1335,0.1649,0.2275,0.0,0.0,0.0,0.0,0.0,0.0,0.0,0.0,0.0,0.0,0.0,0.0,0.0,0.0,0.0,0.0,0.0,0.0,0.0,0.0,0.0,0.0,0.0,0.0,0.0,0.0,0.0,0.0,0.0,0.0,0.0,0.0,0.1224,0.5467,0.3957,0.1594,0.0989,0.0911,0.1296,0.2005,0.149,0.1427,0.2105,0.2214,0.2324,0.2413,0.4017,0.5195,0.5098,0.8033,1.063,1.2347,1.2501,1.2501,1.2501,1.2501,1.2501,1.2501,1.2501,1.2501,1.2501,1.2651,1.2725,1.2732,1.2888,1.303,1.3173,1.3173,1.3173,1.3173,1.3173,1.3091,1.2963,1.2963,1.2963,1.2795,1.1171,1.1344,1.2501,1.055,1.1138,1.2913,0.0,0.0,0.0,0.0,0.0,0.0,0.0,0.1808,0.1223,0.0171,0.0,0.0,0.0,0.0,0.0,0.0,0.0,0.0,0.0,0.0,0.0,0.0,0.0,0.0,0.0,0.0,0.0,0.0,0.0483,0.0886,0.1288,0.1288,0.1914,0.3057,0.3682,0.4311,0.0,0.0,0.0,0.0,0.0,0.0,0.0,0.0,0.0,0.0,0.0,0.0,0.0,0.0,0.0,0.0,0.0,0.0,0.0,0.0,0.0,0.0,0.0,0.0,0.0,0.0,0.0,0.0,0.0,0.0613,0.2456,0.666,0.5346,0.3045,0.178,0.1637,0.1826,0.207,0.1936,0.2422,0.4011,0.4095,0.442,0.536,0.7209,0.8925,1.0057,1.1119,1.1876,1.2501,1.2501,1.2501,1.2501,1.2501,1.2501,1.2501,1.2501,1.2556,1.2657,1.2705,1.2834,1.303,1.3085,1.3186,1.3329,1.3329,1.3329,1.3322,1.322,1.3146,1.3098,1.3003,1.2963,1.2963,1.2475,1.2533,1.2936,1.2192,1.2417,1.3186,0.0,0.0,0.0,0.0,0.0,0.0,0.0,0.1269,0.0,0.0,0.0,0.0,0.0,0.0,0.0,0.0,0.0,0.0,0.0,0.0,0.0,0.0,0.0,0.0,0.0,0.0,0.0,0.0,0.033,0.0745,0.1337,0.1922,0.2473,0.3054,0.3989,0.4683,0.0,0.0,0.0,0.0,0.0,0.0,0.5018,0.0,0.0,0.0,0.0,0.0,0.0,0.0,0.0,0.0,0.0,0.0,0.0,0.0,0.0,0.0,0.0,0.0,0.0,0.0,0.0384,0.0749,0.0756,0.1936,0.3819,0.666,0.618,0.48,0.3421,0.2858,0.2718,0.2859,0.3015,0.3675,0.5555,0.5713,0.6418,0.8049,0.932,1.0705,1.2427,1.2535,1.2501,1.2501,1.2501,1.2501,1.2501,1.2556,1.2589,1.2589,1.2589,1.2664,1.2813,1.2868,1.299,1.3173,1.3227,1.3275,1.3315,1.3376,1.3342,1.3234,1.3193,1.3173,0.0,1.3078,1.3078,1.3125,1.3125,1.318,1.3247,1.3159,1.318,1.3247,0.0,0.0,0.0,0.0,0.0,0.0,0.0,0.1968,0.0149,0.0,0.0,0.0,0.0,0.0,0.0,0.0,0.0,0.0,0.0,0.0,0.0,0.0,0.0,0.0,0.0,0.0,0.0,0.0,0.0,0.0514,0.1575,0.2891,0.3111,0.2527,0.4444,0.5278,0.0,0.0,0.0,0.0,0.4893,0.4915,0.0,0.0,0.0,0.0,0.0,0.0,0.0,0.0,0.0,0.0,0.0,0.0,0.0,0.0,0.0,0.0,0.0,0.0124,0.0257,0.0634,0.1513,0.2267,0.2267,0.377,0.0,0.6107,0.6706,0.671,0.553,0.459,0.397,0.429,0.4464,0.515,0.6714,0.733,0.8314,1.0144,1.0352,1.0984,1.2568,1.2589,1.2501,1.2501,1.2501,1.2508,1.2515,1.2651,1.2739,1.2759,1.2759,1.2834,1.2976,1.3105,1.318,1.3193,1.3336,1.3329,1.3193,1.3336,1.3254,1.3003,1.3132,1.3186,1.3186,1.3186,1.3275,1.3403,1.3403,1.3403,1.3403,1.3403,1.3403,1.3403,0.0,0.0,0.0,0.0,0.0,0.0,0.0,0.0,0.0,0.0,0.0,0.0,0.0,0.0,0.0,0.0,0.0,0.0,0.0,0.0,0.0,0.0,0.0,0.0,0.0,0.0,0.0,0.0,0.0,0.1181,0.3292,0.3618,0.3758,0.3795,0.4925,0.5317,0.0,0.0,0.0,0.0,0.4985,0.4991,0.0,0.0,0.0,0.0,0.5371,0.5529,0.0,0.0,0.0,0.0,0.0,0.0,0.0,0.0,0.0,0.0,0.0,0.0,0.2501,0.6441,0.5838,0.4386,0.0,0.5856,0.6915,0.822,0.729,0.6451,0.6931,0.5447,0.4494,0.5792,0.5341,0.5631,0.8318,1.0029,1.1434,1.2204,1.2166,1.2253,1.2732,1.2589,1.2501,1.2501,1.2501,1.2556,1.2671,1.2712,1.2834,1.3057,1.3071,1.3085,1.3125,1.3159,1.3227,1.3349,1.3383,1.3383,1.3349,1.3383,1.3363,1.3302,1.3336,1.3349,1.3349,1.3349,1.337,1.3403,1.3403,1.3403,1.3403,1.3403,1.3403,1.3403,0.0,0.0,0.0,0.0,0.0,0.0,0.0,0.0,0.0,0.0,0.0,0.0,0.0,0.0,0.0,0.0,0.0,0.0,0.0,0.0,0.0,0.0,0.0,0.0,0.0,0.0,0.0,0.0,0.2003,0.3648,0.5061,0.4039,0.4065,0.4994,0.5341,0.5355,0.0,0.0,0.0,0.5012,0.4953,0.0,0.0,0.0,0.0,0.0,0.5371,0.5534,0.0,0.468,0.4995,0.5041,0.0,0.0,0.0,0.0,0.021,0.0969,0.3703,0.5039,0.6202,0.9045,0.7877,0.6098,0.6503,0.7079,0.7758,0.86,0.8337,0.7948,0.8002,0.7103,0.6651,0.7425,0.7323,0.7879,1.0387,1.1841,1.2691,1.2935,1.2888,1.2807,1.2739,1.2718,1.2651,1.2515,1.263,1.2718,1.2732,1.2861,1.3003,1.3166,1.3308,1.3349,1.3275,1.3275,1.3356,1.3505,1.3505,1.3505,1.3505,1.3573,1.3566,1.3512,1.3573,1.36,1.36,1.36,1.36,1.36,1.36,1.36,1.36,1.36,1.3559,1.3505,0.0,0.0,0.0,0.0,0.0,0.0,0.0,0.0,0.0,0.0,0.0,0.0,0.0,0.0,0.0,0.0,0.0,0.0,0.0,0.0,0.0,0.0,0.0,0.0,0.0,0.0,0.0429,0.1207,0.4819,0.6401,0.5912,0.4491,0.4562,0.599,0.5534,0.5301,0.0,0.0,0.492,0.5007,0.4904,0.0,0.0,0.0,0.0,0.0,0.0,0.0,0.0,0.3539,0.3735,0.4285,0.1177,0.0,0.0,0.0,0.0,0.0,0.8326,0.9873,0.9822,0.9827,0.8587,0.7444,0.7786,0.8187,0.8477,0.8585,0.9525,0.9973,0.8961,0.8756,0.8916,0.9268,0.9689,1.0733,1.2387,1.2827,1.3003,1.3024,1.301,1.2942,1.2807,1.2895,1.2861,1.2623,1.2847,1.2949,1.284,1.3091,1.3241,1.3241,1.3512,1.36,1.3471,1.3464,1.3532,1.3661,1.3661,1.3661,1.3668,1.3783,1.3777,1.3668,1.379,1.3838,1.3838,1.3838,1.3838,1.3838,1.3838,1.3838,1.3838,1.3838,1.3763,1.3661,0.0,0.0,0.0,0.0,0.0,0.0,0.0,0.0,0.0,0.0,0.0,0.0,0.0,0.0,0.0,0.0,0.0,0.0,0.0,0.0,0.0,0.0,0.0,0.0,0.0,0.0,0.2227,0.6685,0.7339,0.6453,0.4082,0.5589,0.6225,0.5888,0.5529,0.5301,0.5175,0.5045,0.5002,0.5018,0.4996,0.0,0.0,0.0,0.0,0.0,0.0,0.0,0.0,0.3502,0.1988,0.0907,0.1117,0.0,0.0,0.0,0.0,0.0,0.8784,0.9891,1.0051,0.9829,0.8934,0.8273,0.9417,0.9771,0.9996,1.0015,1.0243,1.0541,1.0558,0.9549,0.9302,1.1031,1.1788,1.2245,1.3003,1.3112,1.3186,1.3315,1.322,1.3132,1.3105,1.3017,1.299,1.3064,1.3112,1.3186,1.3288,1.3464,1.3559,1.3559,1.3722,1.3797,1.3777,1.3777,1.3783,1.381,1.381,1.381,1.381,1.3831,1.3831,1.381,1.3831,1.3838,1.3838,1.3838,1.3838,1.3838,1.3838,1.3838,1.3838,1.3838,1.3824,1.381,0.0,0.0,0.0,0.0,0.0,0.0,0.0,0.0,0.0,0.0,0.0,0.0,0.0,0.0,0.0,0.0,0.0,0.0,0.0,0.0,0.0,0.1568,0.1588,0.2021,0.3068,0.3594,0.4459,0.5718,0.7194,0.7147,0.5643,0.6348,0.6507,0.5986,0.5627,0.5482,0.5443,0.5173,0.5096,0.5168,0.0,0.0,0.0,0.0,0.0,0.0,0.0,0.0,0.0,0.0,0.1914,0.0826,0.1325,0.0,0.0,0.0,0.0,0.0,0.763,0.8691,0.9136,0.9915,0.9735,0.9651,1.0384,1.0588,1.0663,1.0738,1.0812,1.0921,1.1145,1.0747,1.0894,1.2065,1.2488,1.2752,1.3119,1.3247,1.3322,1.339,1.3342,1.3261,1.318,1.3261,1.3281,1.318,1.3397,1.3532,1.3526,1.3661,1.3743,1.3743,1.3885,1.3966,1.3966,1.4048,1.4048,1.3966,1.3966,1.4007,1.4089,1.4089,1.4089,1.4089,1.4089,1.4089,1.4089,1.4089,1.4089,1.4089,1.4089,1.4089,1.4082,1.3994,1.3966,1.3953,0.0,0.0,0.0,0.0,0.0,0.0,0.0,0.0,0.0,0.0,0.0,0.0,0.0,0.0,0.0,0.0,0.0,0.0,0.0,0.0,0.3249,0.3374,0.3516,0.4101,0.518,0.6382,0.631,0.479,0.6866,0.7695,0.7393,0.6823,0.6469,0.6116,0.5784,0.5723,0.5733,0.5399,0.5274,0.5401,0.0,0.0,0.0,0.0,0.0,0.0,0.0,0.0,0.0,0.0,0.0,0.0,0.0,0.0,0.0,0.1534,0.2764,0.4643,0.6635,0.7898,0.8877,1.0048,1.0527,1.0724,1.0948,1.0995,1.105,1.1233,1.1267,1.1328,1.1511,1.1816,1.2203,1.2705,1.2813,1.2922,1.3193,1.3329,1.3403,1.3403,1.3403,1.337,1.3288,1.3492,1.3559,1.3397,1.3702,1.3851,1.3736,1.3871,1.3933,1.3899,1.4048,1.4122,1.4122,1.4245,1.4238,1.4122,1.4122,1.4183,1.4299,1.4299,1.4299,1.4299,1.4299,1.4299,1.4299,1.4299,1.4299,1.4299,1.4299,1.4299,1.4285,1.417,1.4122,1.4109,0.0,0.0,0.0,0.0,0.0,0.0,0.0,0.0,0.0,0.0,0.0,0.0,0.0,0.0,0.0,0.0,0.0,0.0,0.0,0.0,0.5208,0.4878,0.5532,0.5205,0.3758,0.5556,0.6799,0.7635,0.7652,0.7489,0.7265,0.6904,0.66,0.6246,0.6276,0.6109,0.586,0.5852,0.575,0.5556,0.5556,0.0,0.0,0.0,0.0,0.0,0.0,0.0,0.0,0.0,0.0,0.0,0.0,0.0,0.1479,0.1107,0.3075,0.5618,0.6985,0.8708,1.0189,1.0616,1.0595,1.0622,1.105,1.1145,1.1233,1.1525,1.1586,1.1674,1.1959,1.2372,1.2725,1.2915,1.3057,1.32,1.3363,1.3397,1.3403,1.3403,1.3403,1.3451,1.3587,1.3614,1.3736,1.3987,1.4034,1.4048,1.4041,1.4183,1.4204,1.4061,1.4204,1.4285,1.4285,1.4292,1.4292,1.4285,1.4285,1.4292,1.4299,1.4299,1.4299,1.4299,1.4299,1.4299,1.4299,1.4299,1.4299,1.4299,1.4299,1.4299,1.4299,1.4285,1.4285,1.4285,0.0,0.0,0.0,0.0,0.0,0.0,0.0,0.0,0.0,0.0,0.0,0.0,0.0,0.0,0.0,0.0,0.0,0.0,0.0,0.5217,0.5231,0.5121,0.5499,0.5621,0.5437,0.6366,0.7095,0.7455,0.7806,0.7772,0.7493,0.7506,0.7235,0.6625,0.6626,0.6569,0.6306,0.6121,0.6047,0.6,0.6,0.5792,0.0,0.0,0.0,0.0,0.0,0.0,0.0,0.0,0.3393,0.2385,0.2623,0.2905,0.302,0.2724,0.5337,0.8254,0.8027,0.9348,1.0744,1.0948,1.1023,1.1145,1.1497,1.1579,1.1667,1.1972,1.2033,1.2128,1.242,1.2691,1.2922,1.3071,1.3139,1.3227,1.3376,1.3403,1.3403,1.3403,1.3485,1.3566,1.3627,1.3797,1.3953,1.4061,1.4156,1.4211,1.4211,1.4272,1.4272,1.4217,1.4272,1.4299,1.4299,1.4299,1.4299,1.4299,1.4299,1.4299,1.4299,1.4299,1.4299,1.4299,1.4299,1.4299,1.4299,1.4299,1.4299,1.4299,1.4299,1.4299,1.4299,1.4299,1.4299,1.4299,0.0,0.0,0.0,0.0,0.0,0.0,0.0,0.0,0.0,0.0,0.0,0.0,0.0,0.0,0.0,0.0,0.0,0.0,0.4942,0.5098,0.5189,0.5201,0.5487,0.5854,0.6328,0.6995,0.7338,0.755,0.7927,0.7996,0.7651,0.7828,0.7577,0.6966,0.7019,0.6888,0.6705,0.6433,0.6357,0.6384,0.6337,0.6099,0.0,0.0,0.0,0.0,0.0,0.0,0.0,0.0,0.4347,0.368,0.3898,0.4027,0.4275,0.4293,0.6794,0.9316,0.8499,0.9571,1.0995,1.1185,1.1348,1.1579,1.2013,1.204,1.2074,1.2427,1.2501,1.2576,1.2827,1.2956,1.3078,1.322,1.3247,1.3281,1.339,1.3403,1.3417,1.3464,1.3566,1.3668,1.3763,1.3953,1.4089,1.4143,1.4238,1.4299,1.4299,1.4299,1.4299,1.4299,1.4299,1.4299,1.4299,1.4299,1.4299,1.4299,1.4299,1.4299,1.4299,1.4299,1.4299,1.4299,1.4299,1.4299,1.4299,1.4299,1.4299,1.4299,1.4299,1.4299,1.4299,1.4299,1.4299,1.4299,0.0,0.0,0.0,0.0,0.0,0.0,0.0,0.0,0.0,0.0,0.0,0.0,0.0,0.0,0.0,0.0,0.0,0.0,0.502,0.5179,0.5318,0.5318,0.5853,0.6127,0.608,0.6997,0.7706,0.8249,0.8249,0.8109,0.7834,0.7712,0.7504,0.7229,0.7394,0.7272,0.6989,0.6967,0.6844,0.6688,0.6539,0.6471,0.6458,0.0,0.0,0.0,0.0,0.0,0.0,0.0,0.4218,0.4336,0.4701,0.4851,0.4879,0.5363,0.6894,0.8296,0.8426,0.9577,1.1029,1.1321,1.1511,1.1823,1.2562,1.2508,1.242,1.2874,1.2963,1.301,1.3146,1.3173,1.3227,1.3376,1.3403,1.3403,1.3403,1.3403,1.3458,1.3614,1.3634,1.3749,1.4041,1.4075,1.4136,1.4292,1.4299,1.4299,1.4299,1.4299,1.4299,1.4299,1.4299,1.4299,1.4299,1.4299,1.4299,1.4299,1.4299,1.4299,1.4299,1.4299,1.4299,1.4299,1.4299,1.4299,1.4299,1.4299,1.4299,1.4299,1.4299,1.4299,1.4299,1.4299,1.4299,1.4299,0.0,0.0,0.0,0.0,0.0,0.0,0.0,0.0,0.0,0.0,0.0,0.0,0.0,0.0,0.0,0.0,0.0,0.0,0.5159,0.5406,0.5479,0.5479,0.5755,0.6056,0.6461,0.724,0.7776,0.8109,0.8214,0.8182,0.7912,0.8188,0.8007,0.7446,0.7707,0.7495,0.7025,0.7027,0.6993,0.6858,0.681,0.6661,0.6464,0.0,0.0,0.0,0.0,0.0,0.0,0.0,0.0,0.0,0.5686,0.5991,0.6225,0.6864,0.8137,0.9484,0.989,1.069,1.1491,1.1789,1.2054,1.2379,1.2915,1.2813,1.2698,1.3037,1.3112,1.3152,1.3308,1.3336,1.3349,1.3397,1.3403,1.3403,1.3403,1.3492,1.358,1.3627,1.381,1.3973,1.4061,1.417,1.4251,1.4299,1.4299,1.4299,1.4299,1.4299,1.4299,1.4299,1.4299,1.4299,1.4299,1.4299,1.4299,1.4299,1.4299,1.4299,1.4299,1.4299,1.4299,1.4299,1.4299,1.4299,1.4299,1.4299,1.4299,1.4299,1.4299,1.4299,1.4299,1.4299,1.4299,1.4299,0.0,0.0,0.0,0.0,0.0,0.0,0.0,0.0,0.5425,0.5425,0.5425,0.5425,0.0,0.0,0.0,0.5087,0.5351,0.0,0.5225,0.5481,0.564,0.564,0.5842,0.6204,0.6748,0.7302,0.7693,0.7884,0.8098,0.8223,0.8171,0.8474,0.835,0.7875,0.8113,0.7916,0.74,0.7285,0.7183,0.7095,0.698,0.6817,0.6647,0.0,0.0,0.0,0.0,0.0,0.0,0.0,0.0,0.0,0.6804,0.7024,0.7401,0.8256,0.9252,1.0222,1.0826,1.1382,1.185,1.2094,1.2372,1.2739,1.3308,1.3254,1.3119,1.3241,1.3261,1.3295,1.3383,1.3403,1.3403,1.3403,1.3403,1.3424,1.3485,1.3734,1.4006,1.4131,1.4312,1.4444,1.45,1.4421,1.4299,1.4299,1.4299,1.4299,1.4299,1.4299,1.4299,1.4299,1.4299,1.4299,1.4299,1.4299,1.4299,1.4299,1.4353,1.4387,1.4387,1.4387,1.4387,1.4387,1.4448,1.4441,1.4387,1.4387,1.4353,1.4299,1.4299,1.4299,1.4299,1.4299,1.4299,1.4299,0.0,0.0,0.0,0.0,0.0,0.0,0.0,0.5425,0.5425,0.5425,0.5425,0.5425,0.0,0.0,0.0,0.5087,0.5351,0.5447,0.5225,0.5487,0.5634,0.564,0.6007,0.6443,0.6878,0.7163,0.74,0.7577,0.7889,0.818,0.8445,0.8472,0.8397,0.8255,0.8397,0.8221,0.7794,0.7495,0.7373,0.7346,0.7061,0.6932,0.6892,0.6756,0.0,0.0,0.0,0.0,0.0,0.0,0.0,0.0,0.7834,0.8038,0.8282,0.9408,1.008,1.0582,1.1172,1.1687,1.2108,1.2284,1.2583,1.301,1.3688,1.3756,1.362,1.3458,1.341,1.3403,1.3403,1.3403,1.3403,1.3403,1.3576,1.3638,1.3775,1.4154,1.4444,1.4735,1.4785,1.4849,1.4985,1.4476,1.4299,1.4299,1.4299,1.4299,1.4299,1.4299,1.4299,1.4299,1.4299,1.4299,1.4299,1.4312,1.4319,1.4319,1.4462,1.4529,1.4529,1.4529,1.4529,1.4536,1.4679,1.4658,1.4529,1.4529,1.4455,1.434,1.434,1.434,1.434,1.434,1.434,1.434,0.0,0.0,0.0,0.0,0.0,0.0,0.5425,0.5425,0.5425,0.5425,0.5425,0.5425,0.5425,0.5425,0.0,0.5087,0.5351,0.5447,0.5447,0.5708,0.5944,0.6106,0.6317,0.6505,0.6566,0.6749,0.7034,0.7421,0.7834,0.8072,0.814,0.837,0.8343,0.8099,0.8248,0.8126,0.7794,0.7495,0.7373,0.7353,0.717,0.6953,0.6749,0.6715,0.6519,0.0,0.0,0.0,0.0,0.0,0.0,0.0,0.7746,0.8024,0.8343,0.8947,0.9612,1.0249,1.0731,1.145,1.2155,1.2542,1.3125,1.3648,1.4323,1.4435,1.4414,1.4133,1.3811,1.3569,1.3901,1.3901,1.3901,1.3901,1.4333,1.4594,1.463,1.4678,1.4693,1.4764,1.4534,1.4441,1.4469,1.4299,1.4299,1.4299,1.4299,1.4299,1.4299,1.4299,1.4299,1.4299,1.4299,1.4299,1.4299,1.4414,1.4468,1.4468,1.4618,1.4692,1.4692,1.4692,1.4692,1.4692,1.4726,1.4719,1.4692,1.4692,1.4672,1.4645,1.4645,1.4645,1.4645,1.4645,1.4645,1.4645,0.0,0.0,0.0,0.0,0.0,0.0,0.0,0.0,0.5425,0.5425,0.5425,0.5425,0.5425,0.5425,0.0,0.0,0.5491,0.5663,0.5663,0.5934,0.6177,0.6261,0.6329,0.6369,0.6369,0.6519,0.6776,0.7156,0.7461,0.7719,0.7936,0.8241,0.8262,0.8052,0.835,0.8316,0.8011,0.7712,0.7543,0.7461,0.7231,0.7007,0.6817,0.6885,0.6776,0.6586,0.6661,0.0,0.0,0.0,0.0,0.0,0.0,0.0,0.8397,0.9062,0.9632,1.0209,1.0948,1.1599,1.2374,1.3207,1.3784,1.4393,1.4894,1.5111,1.5046,1.5131,1.4616,1.4152,1.4081,1.4232,1.4419,1.4499,1.4747,1.5026,1.5175,1.5354,1.5496,1.5221,1.5132,1.5006,1.5006,1.4476,1.4476,1.4646,1.4476,1.4299,1.4299,1.4299,1.4299,1.4299,1.4299,1.4333,1.4401,1.4475,1.455,1.4624,1.478,1.4882,1.495,1.4882,1.4889,1.495,1.495,1.4916,1.4848,1.4848,1.4808,1.474,1.474,1.474,1.474,1.474,1.474,1.474,0.0,0.0,0.0,0.0,0.0,0.0,0.0,0.0,0.0,0.5425,0.5425,0.5425,0.5425,0.5425,0.5439,0.0,0.0,0.0,0.584,0.6105,0.6338,0.6338,0.6338,0.6338,0.6338,0.6376,0.6586,0.6892,0.7007,0.7278,0.7706,0.8065,0.816,0.8058,0.8459,0.8513,0.8289,0.7984,0.7801,0.7692,0.7407,0.721,0.7095,0.721,0.717,0.7054,0.7149,0.7197,0.7258,0.7482,0.0,0.0,0.0,0.0,0.8452,0.9164,0.968,1.0209,1.1138,1.1775,1.2678,1.3817,1.4448,1.4951,1.5418,1.592,1.6136,1.5801,1.544,1.4922,1.4426,1.4577,1.4969,1.5112,1.5516,1.5817,1.6105,1.6687,1.6933,1.6386,1.6225,1.6049,1.5704,1.5006,1.4653,1.4992,1.4646,1.4476,1.4299,1.4299,1.4299,1.4299,1.4326,1.4394,1.4509,1.4563,1.4652,1.478,1.4936,1.5072,1.5181,1.5059,1.5072,1.5181,1.5181,1.5113,1.5011,1.5011,1.493,1.4814,1.4814,1.4814,1.4814,1.4814,1.4814,1.4814,0.0,0.0,0.0,0.0,0.0,0.0,0.0,0.0,0.0,0.0,0.5425,0.5425,0.5425,0.5425,0.5413,0.5549,0.5705,0.5861,0.5989,0.0,0.0,0.6338,0.6338,0.6338,0.6338,0.6281,0.6437,0.6729,0.6749,0.6919,0.7244,0.7807,0.8058,0.8045,0.8241,0.8377,0.8431,0.8133,0.8079,0.8167,0.7991,0.7828,0.7692,0.7712,0.7631,0.7495,0.738,0.7428,0.7522,0.7434,0.757,0.0,0.0,0.0,0.8452,0.8452,0.9117,0.9944,1.0351,1.1817,1.3369,1.376,1.4536,1.5265,1.5444,1.7132,1.8052,1.5971,1.5183,1.5082,1.5247,1.5339,1.5622,1.5638,1.7578,1.9002,1.9048,2.023,2.0529,1.9003,1.8305,1.7438,1.5881,1.5528,1.5352,1.4992,1.4999,1.4646,1.4299,1.4299,1.4299,1.4299,1.4421,1.4489,1.4509,1.4774,1.4923,1.4943,1.5086,1.5167,1.5181,1.516,1.5167,1.5181,1.5181,1.5174,1.5153,1.5153,1.514,1.5126,1.5126,1.5126,1.5126,1.5126,1.5126,1.5126,0.0,0.0,0.0,0.0,0.0,0.0,0.0,0.0,0.0,0.0,0.0,0.609,0.609,0.583,0.5637,0.5705,0.584,0.5996,0.6146,0.622,0.6338,0.6338,0.6338,0.6338,0.6338,0.6338,0.6363,0.6573,0.6661,0.6851,0.7149,0.7861,0.8063,0.7994,0.8137,0.8371,0.8682,0.8459,0.8411,0.8554,0.8407,0.852,0.8664,0.8203,0.8442,0.8864,0.824,0.8147,0.8303,0.7984,0.7963,0.8052,0.7963,0.0,0.0,0.0,0.896,0.9758,1.0795,1.2036,1.3368,1.4348,1.583,1.7281,1.7639,1.955,2.0845,1.9599,1.9241,1.868,1.7216,1.732,1.8121,1.895,2.0219,2.1139,2.1261,2.1018,2.0385,1.9351,1.8139,1.6912,1.6225,1.5704,1.5352,1.5352,1.4822,1.4476,1.4299,1.4299,1.434,1.4414,1.4482,1.4597,1.4767,1.4903,1.5011,1.5092,1.5153,1.5181,1.5181,1.5181,1.5181,1.5181,1.5181,1.5181,1.5181,1.5181,1.5181,1.5181,1.5181,1.5181,1.5181,1.5181,1.5181,1.5181,0.0,0.0,0.0,0.0,0.0,0.0,0.0,0.0,0.0,0.0,0.0,0.694,0.6741,0.0,0.0,0.0,0.5962,0.6098,0.6247,0.6338,0.6338,0.6338,0.6338,0.6338,0.6338,0.6338,0.6329,0.6471,0.6627,0.6831,0.7183,0.7916,0.8196,0.8233,0.8301,0.8582,0.8905,0.8931,0.8895,0.8888,0.9123,0.9391,0.9655,0.9144,0.9618,1.0303,0.9468,0.9189,0.9314,0.8814,0.8619,0.8453,0.8254,0.8302,0.0,0.0,0.0,0.9676,1.1038,1.208,1.3166,1.5114,1.6923,1.869,1.974,2.1692,2.3016,2.2395,2.2714,2.2583,2.0316,2.0051,2.0507,2.1851,2.273,2.3121,2.3287,2.2622,2.177,2.0905,1.9516,1.8479,1.7955,1.7255,1.7088,1.7263,1.6569,1.6042,1.5866,1.5911,1.5809,1.5928,1.601,1.6174,1.6427,1.6472,1.6554,1.6666,1.6666,1.6666,1.6666,1.6666,1.6486,1.5924,1.5368,1.5181,1.5181,1.5181,1.5181,1.5181,1.5181,1.5181,1.5181,1.5181,1.5181,1.5181,0.0,0.0,0.0,0.0,0.0,0.0,0.0,0.0,0.0,0.0,0.0,0.784,0.7062,0.6928,0.6649,0.6077,0.6023,0.6098,0.6247,0.6338,0.6338,0.6338,0.6338,0.0,0.6338,0.6338,0.6329,0.6471,0.6627,0.6867,0.7289,0.7759,0.8343,0.8979,0.9188,0.9205,0.8905,0.9367,0.954,0.9485,1.0204,1.0375,1.0316,1.1034,1.1404,1.1532,1.1019,1.0726,1.0644,0.9778,0.9349,0.9062,0.8756,0.8564,0.8549,0.0,0.0,0.0,1.0229,1.1375,1.2984,1.5778,1.7114,1.8276,2.0558,2.3123,2.4397,2.2385,2.3641,2.5107,2.4663,2.327,2.2266,2.2436,2.3994,2.5191,2.5203,2.6758,2.7109,2.5203,2.5032,2.4166,2.2449,2.2277,2.2105,2.1587,2.1068,2.0722,2.0192,2.0044,1.999,1.9999,2.0383,2.0599,2.0618,2.063,2.0732,2.0742,2.0742,2.0742,2.0742,2.0742,1.9816,1.7779,1.5924,1.5181,1.5181,1.5181,1.5181,1.5181,1.5181,1.5181,1.5181,1.5181,1.5181,1.5181,0.0,0.0,0.0,0.0,0.0,0.0,0.0,0.0,0.0,0.0,0.0,0.0,0.0,0.8675,0.8347,0.7979,0.7307,0.6805,0.6331,0.6338,0.6338,0.6338,0.6338,0.6338,0.6338,0.6338,0.6288,0.6335,0.658,0.6812,0.7126,0.7986,0.8855,0.9571,0.9229,0.9165,0.9278,0.9663,0.9885,0.9954,1.0988,1.1547,1.1894,1.19,1.2204,1.265,1.1904,0.0,1.1306,1.0629,1.0074,0.9713,0.9176,0.8941,0.88,0.8955,0.9428,0.9982,1.0717,1.1702,1.3043,1.5632,1.8116,2.0348,2.2121,2.4759,2.6543,2.5781,2.6462,2.7304,2.7225,2.5701,2.4672,2.5694,2.658,2.7279,2.7279,2.6758,2.6066,2.5556,2.4349,2.3309,2.2622,2.2277,2.2105,2.1932,2.171,2.1444,2.1259,2.1469,2.1482,2.1631,2.179,2.1758,2.1896,2.1975,2.2014,2.2014,2.2014,2.2014,2.2014,2.1655,2.0538,1.8507,1.7592,1.6299,1.5181,1.5181,1.5181,1.5181,1.5181,1.5181,1.5181,1.5181,1.5181,1.5181,0.0,0.0,0.0,0.0,0.0,0.0,0.0,0.0,0.0,1.1282,0.0,0.0,0.0,0.0,0.9518,0.915,0.8466,0.7863,0.7326,0.7326,0.7326,0.7326,0.7326,0.7326,0.7326,0.7118,0.7042,0.6872,0.7009,0.7082,0.7289,0.8477,0.9233,0.9561,0.9904,1.0302,1.0509,1.0814,1.0883,1.0925,1.2755,1.3248,1.2767,1.3403,1.3604,1.3634,1.3513,1.3369,1.3195,1.3276,1.3075,1.249,1.1298,1.0572,1.0154,0.9831,1.0147,1.0689,1.1922,1.2447,1.3426,1.6661,1.9266,2.1442,2.3655,2.5577,2.7184,2.7642,2.7856,2.8083,2.839,2.7238,2.6758,2.7981,2.823,2.8297,2.8297,2.7161,2.6406,2.6406,2.5203,2.452,2.452,2.4166,2.4041,2.4132,2.3934,2.3872,2.3961,2.4019,2.4274,2.4338,2.4338,2.4426,2.458,2.4591,2.4591,2.4591,2.4591,2.4591,2.4591,2.4226,2.2933,2.1083,2.0723,1.8507,1.5181,1.5181,1.5181,1.5181,1.5181,1.5181,1.5181,1.5181,1.5181,1.5181,0.0,0.0,0.0,0.0,0.0,0.0,0.0,0.0,1.1709,1.1983,0.0,0.0,0.0,0.0,0.0,0.9463,0.9377,0.9301,0.9301,0.9301,0.9301,0.9301,0.9301,0.9301,0.9301,0.8857,0.8477,0.8161,0.7778,0.7659,0.7769,0.9051,0.9341,0.9026,1.1572,1.2671,1.2736,1.292,1.2736,1.2587,1.5855,1.5316,1.3101,1.5737,1.5777,1.4608,1.5988,1.6461,1.6554,1.7866,1.8031,1.7374,1.5159,1.3592,1.257,1.1327,1.142,1.2153,0.0,0.0,0.0,1.8948,2.0297,2.1412,2.4744,2.5634,2.6147,2.7482,2.7669,2.7776,2.8083,2.8136,2.8337,2.8938,2.8791,2.8604,2.8591,2.8337,2.815,2.8136,2.8136,2.8136,2.8136,2.8136,2.827,2.8577,2.8261,2.8048,2.8334,2.8281,2.8207,2.8474,2.8474,2.8474,2.8474,2.8474,2.8474,2.8474,2.8474,2.8474,2.8474,2.8474,2.7365,2.5503,2.5503,2.1636,1.5368,1.5368,1.5181,1.5181,1.5181,1.5181,1.5181,1.5181,1.5181,1.5181,0.0,0.0,0.0,0.0,0.0,1.2091,1.2171,1.2371,1.2457,0.0,0.0,0.0,0.0,0.0,1.1637,1.0781,1.0371,0.9895,0.9377,0.9301,0.9301,0.9301,0.9301,0.9301,0.9301,0.9155,0.908,0.8988,0.8981,0.9115,0.9409,1.009,1.0999,1.206,1.2693,1.3922,1.5532,1.4778,1.4372,1.46,1.6721,1.7149,1.6702,1.8321,1.8777,1.8509,1.9229,1.9043,1.863,1.9159,1.7917,1.5952,1.4317,1.4377,1.4872,1.3892,1.3739,1.4015,1.4395,0.0,0.0,0.0,0.0,0.0,2.3996,2.5352,2.6294,2.6707,2.7094,2.7535,2.8043,2.8136,2.8337,2.8938,2.8791,2.8524,2.831,2.839,2.839,2.8163,2.8136,2.8136,2.8136,2.8136,2.827,2.8577,2.8618,2.8871,2.9163,2.9277,2.9475,2.9554,2.9554,2.9554,2.9554,2.9554,2.9554,2.9554,2.9554,2.9554,2.9554,2.9195,2.7895,2.6048,2.5684,2.3656,2.0353,1.8693,1.7032,1.5751,1.5368,1.5181,1.5181,1.5181,1.5181,1.5181,0.0,0.0,1.2051,1.2051,1.2291,1.2492,1.2492,1.2746,1.2986,0.0,0.0,0.0,0.0,0.0,0.0,1.2251,1.1834,1.1383,1.0819,1.0732,1.0686,1.0582,1.0571,1.0571,1.0571,1.0319,1.017,1.0056,0.9938,1.0033,1.0243,1.0985,1.1708,1.2616,1.3661,1.4924,1.6188,1.6784,1.6633,1.6229,1.8559,1.8913,1.8313,2.0241,2.0553,2.0167,2.142,2.1243,2.0808,2.2138,2.0635,1.811,1.731,1.7019,1.6929,1.6042,1.5693,1.5624,1.6252,1.624,1.677,1.932,0.0,0.0,2.3733,2.49,2.583,2.6466,2.6841,2.7255,2.7843,2.7963,2.811,2.8591,2.8631,2.8537,2.8364,2.8497,2.8497,2.8177,2.8257,2.8283,2.8163,2.8136,2.827,2.8577,2.8764,2.8991,2.9285,2.9579,2.974,2.974,2.9847,2.9913,2.9913,2.9913,2.9913,2.9913,2.9913,2.9913,2.9913,2.9554,2.8809,2.7702,2.7521,2.6229,2.4398,2.2556,2.0714,1.8702,1.8321,1.8321,1.8321,1.7957,1.7957,1.7771,0.0,0.0,1.2318,1.2398,1.2625,1.2889,1.2956,1.316,1.3454,0.0,1.3774,0.0,0.0,0.0,0.0,0.0,1.3494,1.3173,1.2943,1.2889,1.2665,1.2358,1.2318,1.2305,1.2305,1.1906,1.1531,1.1267,1.0803,1.0703,1.0939,1.1766,1.2075,1.2042,1.4705,1.5843,1.5946,1.8551,1.8944,1.8056,2.0928,2.0784,1.8943,2.1678,2.1916,2.1091,2.2995,2.3322,2.3178,2.5335,2.4482,2.2337,2.1943,2.0564,1.9071,1.8141,1.7542,1.735,1.8669,1.825,1.7972,2.0552,2.1331,0.0,2.3652,2.4261,2.4822,2.6162,2.656,2.676,2.7348,2.7455,2.7589,2.7976,2.827,2.8484,2.8551,2.8591,2.8497,2.8177,2.839,2.8444,2.8177,2.8177,2.8323,2.8631,2.8684,2.8804,2.9032,2.9325,2.9486,2.9486,2.9766,2.9913,2.9913,2.9913,2.9913,2.9913,2.9913,2.9913,2.9913,2.9913,2.9913,2.9913,2.9913,2.8989,2.7341,2.6785,2.4945,2.2556,2.2556,2.2556,2.2566,2.2004,2.183,2.1646,1.2225,1.2265,1.2452,1.2946,1.308,1.328,1.3748,1.4068,1.4282,1.4335,1.4563,0.0,0.0,0.0,0.0,0.0,1.4215,1.3788,1.3494,1.3253,1.2986,1.2741,1.2425,1.2305,1.2305,1.2251,1.2091,1.2083,1.1944,1.2168,1.2724,1.3118,1.3652,1.4371,1.567,1.668,1.7622,1.8605,1.9761,2.0847,2.2403,2.2671,2.2486,2.4586,2.5205,2.5322,2.6213,2.62,2.5674,2.4414,2.4393,2.4423,2.2038,2.2165,2.2723,2.0913,2.0467,2.0552,2.0026,1.9734,1.9837,2.1216,2.1911,0.0,2.3313,2.3955,2.4289,2.4663,2.4903,2.5237,2.5825,2.5945,2.6266,2.7268,2.7482,2.7696,2.8163,2.8444,2.8497,2.8177,2.819,2.8217,2.815,2.8364,2.8644,2.8938,2.9179,2.9232,2.9045,2.9325,2.9486,2.9486,2.9766,2.9913,2.9913,2.9913,2.9913,2.9913,2.9913,2.9913,2.9913,2.9913,2.9913,2.9913,2.9913,2.9734,2.9362,2.9182,2.6785,2.3106,2.2739,2.2556,2.2566,2.2372,2.2372,2.2402,1.2305,1.2425,1.2665,1.3133,1.3454,1.3801,1.4229,1.4549,1.4843,1.5137,0.0,0.0,0.0,0.0,0.0,0.0,0.0,0.0,1.4563,1.4522,1.4188,1.344,1.3267,1.2986,1.2532,1.2518,1.2452,1.2305,1.2305,1.2692,1.3427,1.3574,1.4656,1.6486,1.6647,1.7702,1.9386,1.9826,2.0615,2.163,2.2512,2.3233,2.3928,2.5398,2.6226,2.668,2.7268,2.7388,2.6958,2.5438,2.5218,2.5445,2.3954,2.364,2.3527,2.2338,2.1777,2.139,2.0655,2.0347,2.0441,2.1336,0.0,0.0,0.0,2.3781,2.4035,2.4168,2.4436,2.477,2.5211,2.5291,2.5585,2.6466,2.6854,2.7041,2.7054,2.807,2.8657,2.819,2.8404,2.847,2.8177,2.8283,2.8497,2.8804,2.8965,2.8978,2.8831,2.9245,2.9419,2.9272,2.9686,2.9913,2.9913,2.9913,2.9913,2.9913,2.9913,2.9913,2.9913,2.9913,2.9913,2.9913,2.9913,2.9913,2.9927,3.0074,2.8834,2.6783,2.6276,2.6229,2.6253,2.6005,2.6052,2.5903,1.2378,1.262,1.2943,1.3227,1.3774,1.4309,1.471,1.503,1.5444,1.6086,0.0,0.0,0.0,0.0,0.0,0.0,0.0,0.0,1.6126,1.6179,1.5805,1.4803,1.4496,1.4001,1.3346,1.3225,1.2893,1.2478,1.2585,1.3013,1.3734,1.3908,1.5311,1.7675,1.7609,1.8637,2.0468,2.1149,2.1617,2.1951,2.2645,2.3541,2.4596,2.5825,2.6613,2.7134,2.7615,2.7749,2.7602,2.6947,2.6493,2.6186,2.6079,2.5144,2.3955,2.3313,2.2659,2.1977,2.1216,2.0802,0.0,0.0,0.0,2.175,0.0,0.0,0.0,2.3901,2.4128,2.4382,2.469,2.4743,2.4903,2.5371,2.5985,2.6213,2.5692,2.7255,2.831,2.7936,2.8417,2.8617,2.819,2.8404,2.8577,2.8604,2.8818,2.8845,2.8617,2.9165,2.9379,2.9125,2.9633,2.9913,2.9913,2.9913,2.9913,2.9913,2.9913,2.9913,2.9913,2.9913,2.9913,2.9913,2.998,3.0007,3.002,3.0327,3.0448,3.0421,3.0181,3.0087,3.0114,2.9977,2.9873,2.9546,1.2586,1.2695,1.2919,1.3494,1.4082,1.475,1.5551,1.5939,1.642,1.7275,0.0,0.0,0.0,0.0,0.0,0.0,0.0,0.0,1.8557,1.805,1.7595,1.7208,1.5939,1.5204,1.5097,1.4589,1.3921,1.3106,1.3627,1.3935,1.4055,1.483,1.5658,1.6553,1.833,1.9265,1.9653,2.1764,2.2846,2.322,2.4329,2.501,2.5518,2.6961,2.7709,2.8003,2.807,2.7923,2.7722,2.7883,2.7575,2.7028,2.6507,2.656,2.6453,2.4596,2.4168,2.3981,2.2592,2.2004,0.0,0.0,2.2098,2.2392,2.2859,0.0,2.2979,2.3006,0.0,2.3153,2.3474,0.0,0.0,2.3621,2.4329,2.477,2.4449,2.5504,2.6466,2.6921,2.7495,2.7923,2.8123,2.9339,2.9686,2.8684,2.9566,2.9713,2.8657,2.9165,2.9472,2.9432,2.9753,2.9913,2.9913,2.9913,2.9913,2.9913,2.9913,2.9913,2.9913,2.9913,2.9913,2.9927,3.0194,3.0314,3.0327,3.0621,3.0742,3.0742,3.0702,3.0688,3.0702,3.0728,3.0742,3.0597,1.2832,1.2876,1.3253,1.4015,1.4496,1.507,1.5952,1.662,1.7235,1.7782,0.0,0.0,0.0,0.0,0.0,0.0,0.0,2.0495,0.0,0.0,1.9172,1.8143,1.7341,1.6593,1.5925,1.5498,1.4856,1.3975,1.4215,1.4509,1.4856,1.5231,1.6446,1.837,1.9412,2.0535,2.175,2.3073,2.4115,2.4917,2.5571,2.6426,2.7321,2.7415,2.7856,2.8417,2.8417,2.8337,2.8217,2.8163,2.7976,2.7696,2.7281,2.7201,2.7001,2.5625,2.5184,2.4863,2.3554,2.3233,2.3153,2.2619,2.2726,0.0,2.2873,0.0,2.2819,0.0,0.0,0.0,0.0,0.0,0.0,0.0,2.3915,2.4222,2.3754,2.4703,2.5665,2.6253,2.6694,2.7188,2.7829,2.8925,2.9392,2.8898,2.9633,2.974,2.8898,2.9419,2.9659,2.9486,2.9766,2.9913,2.9913,2.9913,2.9913,2.9913,2.9913,2.9913,2.9927,3.01,3.0181,3.0194,3.0488,3.0608,3.0635,3.0929,3.1049,3.1062,3.1236,3.1089,3.0808,3.0982,3.1049,3.1089,1.3097,1.3131,1.3574,1.4055,1.469,1.5402,1.6353,1.7328,1.8063,1.837,0.0,0.0,1.9853,2.0698,0.0,0.0,2.2318,2.2406,0.0,2.1878,2.1286,2.021,1.9246,1.8317,1.759,1.6834,1.6046,1.5003,1.5164,1.5378,1.5645,1.5885,1.7275,1.9586,2.0201,2.1443,2.314,2.4048,2.4983,2.5879,2.6413,2.7428,2.8551,2.7963,2.811,2.8617,2.8698,2.8724,2.8711,2.8564,2.8404,2.823,2.8016,2.7749,2.7335,2.6453,2.6039,2.5611,2.4449,2.4289,2.4249,2.3434,2.346,0.0,0.0,0.0,0.0,0.0,0.0,0.0,0.0,0.0,0.0,0.0,0.0,2.3447,2.2712,2.3541,2.4543,2.5371,2.5945,2.6587,0.0,2.8564,2.9138,2.8818,2.9646,2.9833,2.9085,2.9593,2.982,2.9606,2.9887,2.9993,2.9913,2.9913,2.9913,2.9913,2.9913,2.9967,3.0047,3.0261,3.0408,3.0488,3.0782,3.0915,3.0929,3.1223,3.1343,3.137,3.1583,3.141,3.1062,3.1263,3.1343,3.1383,1.3346,1.32,1.3715,1.3333,1.4372,1.5735,1.7002,1.8116,1.8985,1.9292,2.0334,0.0,0.0,0.0,0.0,0.0,0.0,2.5534,2.5226,2.4648,2.433,2.4274,2.1896,2.0686,2.0602,1.9226,1.7689,1.6219,1.6794,1.678,1.6259,1.7114,1.8023,1.9011,2.0441,2.159,2.2565,2.4315,2.5237,2.5625,2.6774,2.7789,2.8631,2.8885,2.8831,2.8644,2.8925,2.9032,2.9072,2.9352,2.9058,2.8591,2.8577,2.8364,2.7936,2.7054,2.6787,2.652,2.5358,2.5037,2.4903,2.4315,2.4382,2.4449,0.0,0.0,2.3567,0.0,0.0,0.0,0.0,0.0,0.0,0.0,0.0,0.0,0.0,2.1523,2.2632,2.4088,2.5277,0.0,0.0,2.8698,2.9406,0.0,2.978,3.0261,2.9098,2.9593,2.9913,2.99,3.0194,3.0207,2.9913,2.9913,2.9913,2.9913,2.9913,3.0074,3.0341,3.0354,3.0515,3.0795,3.1089,3.1209,3.1236,3.153,3.165,3.165,3.1664,3.1664,3.1637,3.165,3.165,3.1664,1.8181,1.7574,1.6944,1.5064,1.5803,1.7468,1.9918,2.1353,2.2613,2.3857,2.4844,2.5732,2.6561,2.7336,2.8063,0.0,0.0,2.9183,2.9312,2.7366,0.0,2.604,2.3014,2.1375,0.0,2.0091,1.8824,1.7742,1.7742,1.7542,1.7141,1.7448,1.8063,1.8985,2.0454,2.1817,2.3126,2.4703,2.6092,2.7335,2.8337,2.8911,2.9152,2.8858,2.8938,2.9179,2.9072,2.9165,2.9312,2.9219,2.9192,2.9152,2.8951,2.8818,2.8604,2.7896,2.7562,2.7228,2.644,2.652,2.6533,2.5358,2.5585,2.5825,2.4863,0.0,0.0,0.0,0.0,0.0,0.0,0.0,0.0,0.0,0.0,0.0,0.0,0.0,2.1817,2.2124,0.0,0.0,0.0,0.0,0.0,0.0,2.9366,0.0,2.9352,2.9526,2.9806,3.0194,3.0114,3.0114,3.0207,3.002,2.9913,2.9913,3.0114,3.0261,3.0381,3.0755,3.0982,3.1089,3.1396,3.1517,3.153,3.1623,3.1664,3.1664,3.1664,3.1664,3.1664,3.1664,3.1664,3.1664,2.0697,2.0857,2.0183,1.7244,1.8057,1.981,2.2038,2.3617,2.5021,2.6311,2.761,2.8643,2.9379,3.0121,3.0763,3.1531,3.1623,3.1742,3.1972,3.0271,0.0,2.9232,2.6375,0.0,0.0,2.3039,2.1378,2.0557,1.9248,1.8467,1.8063,1.8063,1.8597,1.9586,2.0428,2.1977,2.3995,2.473,2.6186,2.8043,2.8738,2.9192,2.9419,2.8831,2.9032,2.9633,2.9539,2.9566,2.9633,2.9659,2.9579,2.9472,2.9379,2.9205,2.8965,2.8577,2.8323,2.8043,2.7455,2.7562,2.7575,2.6426,2.664,2.6854,2.5785,0.0,2.5317,0.0,0.0,0.0,0.0,0.0,0.0,0.0,0.0,0.0,0.0,2.1336,0.0,0.0,0.0,0.0,0.0,0.0,0.0,0.0,0.0,0.0,0.0,2.9472,2.9766,3.0034,3.006,3.0114,3.0207,3.0007,2.9913,2.9913,3.0221,3.0421,3.0528,3.1009,3.1289,3.1396,3.1583,3.1664,3.1664,3.1664,3.1664,3.1664,3.1664,3.1664,3.1664,3.1664,3.1664,3.1664,2.1212,2.2796,2.3376,1.9775,2.085,2.2534,2.3369,2.5061,2.6511,2.7159,2.8905,3.0174,3.0071,3.1333,3.2296,3.2492,3.318,3.3592,3.3668,3.3126,0.0,0.0,3.17,3.0909,3.1491,0.0,0.0,2.4255,2.1403,1.9611,1.8945,1.8958,1.9573,2.0641,2.0388,2.2058,2.5024,2.4476,2.5598,2.7762,2.807,2.8711,2.9446,2.8885,2.9205,2.9967,3.0221,3.014,3.0007,3.0568,3.0194,2.9553,2.9833,2.9526,2.9058,2.9058,2.9045,2.8911,2.8337,2.819,2.807,2.7482,2.7549,2.7535,2.6667,2.6667,2.6613,0.0,0.0,0.0,0.0,0.0,0.0,0.0,0.0,0.0,0.0,0.0,0.0,0.0,0.0,0.0,0.0,0.0,0.0,0.0,0.0,0.0,0.0,2.9446,2.9793,2.9513,3.0047,3.0207,2.994,2.9927,2.9913,2.9913,3.0234,3.0528,3.0808,3.1102,3.1396,3.1664,3.1664,3.1664,3.1664,3.1664,3.1664,3.1664,3.1664,3.1664,3.1664,3.1664,3.1664,3.1664,2.4465,2.5444,2.6094,2.5195,2.5209,2.5793,2.7382,2.949,3.1339,3.303,3.4308,3.5294,3.618,3.6948,3.7364,3.733,3.7895,3.8217,3.816,3.6085,0.0,3.5551,3.2843,3.1456,3.1885,2.8438,2.6222,2.5282,2.2377,2.0319,1.9265,1.9479,1.9853,2.0361,2.0722,2.2325,2.4756,2.4823,2.6213,2.8404,2.8684,2.9205,2.9793,2.9633,2.986,3.0194,2.9833,2.9793,2.994,3.0087,2.9993,2.982,2.9887,2.9673,2.9366,2.9366,2.9219,2.9005,2.8858,2.8965,2.8991,2.8404,2.8484,2.8524,2.7843,2.7415,0.0,0.0,0.0,0.0,0.0,0.0,0.0,0.0,0.0,0.0,0.0,0.0,0.0,0.0,0.0,0.0,0.0,0.0,0.0,0.0,0.0,0.0,2.8938,2.9553,2.9887,2.9806,2.9953,3.01,3.0247,3.002,2.9913,2.9927,3.0434,3.0715,3.0808,3.1316,3.1597,3.1664,3.1664,3.1664,3.1664,3.1664,3.1664,3.1664,3.1664,3.1664,3.1664,3.1664,3.1664,3.1664,2.6884,2.7863,2.8685,2.8437,2.9221,2.9903,3.0507,3.2382,3.4431,3.6074,3.7378,3.8409,3.8809,3.9238,3.9512,3.9512,3.9746,3.9961,3.9852,3.8443,0.0,3.8122,3.6219,3.5301,3.5778,3.2611,0.0,2.9194,2.6084,2.3464,2.1307,2.123,2.1011,2.0828,2.1162,2.2619,2.4903,2.6876,2.8139,2.8804,2.9817,3.058,0.0,3.0984,3.1657,3.2583,3.2221,3.1161,2.9953,3.0207,3.0127,2.994,3.0074,2.9913,2.9673,2.9673,2.9553,2.9392,2.9272,2.9446,2.9566,2.9098,2.9205,2.9299,2.8831,2.847,2.8217,0.0,2.7468,2.7001,0.0,0.0,0.0,0.0,0.0,0.0,0.0,0.0,0.0,0.0,0.0,0.0,0.0,0.0,0.0,0.0,0.0,0.0,0.0,2.9526,2.9793,2.9539,3.0034,3.0261,3.0167,3.0247,3.0234,3.0114,3.0568,3.0862,3.0996,3.1463,3.1664,3.1664,3.1664,3.1664,3.1664,3.1664,3.1664,3.1664,3.1664,3.1664,3.1664,3.1664,3.1664,3.1664,2.8368,2.9796,3.0953,3.0551,3.2544,3.4043,3.3204,3.4622,3.6266,3.7363,3.8828,3.9687,3.9414,3.9785,4.0078,4.0137,4.0195,4.0218,4.0279,4.0218,4.0316,4.0723,4.0316,4.0234,4.0605,3.78,3.5517,0.0,3.0681,2.7604,2.4439,2.3746,2.3164,2.2434,2.2517,2.3749,2.6267,2.9645,3.0537,2.9831,3.1597,3.2639,3.2954,3.2718,3.3868,3.5558,3.5558,3.3264,3.0339,3.1218,3.0691,2.9953,3.075,3.0474,2.9913,3.0258,3.0093,2.986,2.9606,2.9726,2.986,2.9646,2.9753,2.986,2.9646,2.9566,2.9392,2.8885,2.8537,2.839,2.8617,0.0,0.0,0.0,0.0,0.0,0.0,0.0,0.0,0.0,0.0,0.0,0.0,0.0,0.0,0.0,0.0,0.0,0.0,0.0,2.9659,2.9112,3.0087,3.0434,3.0034,3.0461,3.0608,3.0474,3.0688,3.0942,3.1236,3.153,3.1664,3.1664,3.1664,3.1664,3.1664,3.1664,3.1664,3.1664,3.1664,3.1664,3.1664,3.1664,3.1664,3.1664,2.8555,3.029,3.2119,3.2745,3.4101,3.5469,3.6367,3.6988,3.7773,3.8281,3.8926,3.957,4.0215,4.0684,4.1094,4.1445,4.1777,4.2012,4.1931,4.1699,4.1523,4.1522,4.1211,4.0996,4.1055,3.8651,3.6923,0.0,3.2526,2.9902,2.7914,2.7292,2.6921,2.681,2.7142,2.8522,3.1004,3.1857,3.2815,3.3698,3.4604,3.4922,3.4565,3.4784,3.5431,3.5907,3.5907,3.4311,3.2543,3.4059,3.263,3.0451,3.3646,3.2395,3.0258,3.182,3.1137,2.99,2.986,2.9873,2.9967,3.0154,3.006,2.9967,3.0167,3.002,2.9806,2.9713,2.9459,2.9192,2.8991,0.0,0.0,0.0,0.0,0.0,0.0,0.0,0.0,0.0,0.0,0.0,0.0,0.0,0.0,0.0,0.0,0.0,0.0,0.0,2.9766,2.9419,2.9606,3.0007,0.0,3.0261,3.0408,3.1076,3.0889,3.0942,3.1236,3.153,3.1664,3.1664,3.1664,3.1664,3.1664,3.1664,3.1664,3.1664,3.1664,3.1664,3.1664,3.1664,3.1664,3.1664,2.9794,3.206,3.4447,3.5271,3.6074,3.692,3.7871,3.8906,3.9609,3.959,4.0156,4.0723,4.1133,4.1562,4.1894,4.2109,4.2305,4.2422,4.2422,4.2246,4.2129,4.2129,4.1719,4.1601,4.1816,4.0336,3.9032,3.8027,3.6237,3.3925,3.1343,3.0746,3.0238,2.9462,3.0319,3.1531,3.3149,3.4916,3.559,3.5672,3.7403,3.7895,3.7757,3.7598,3.8421,3.9635,3.9478,3.7941,3.6195,3.6211,3.4972,3.374,3.5504,3.4794,3.3561,3.4438,3.4082,3.3382,3.3382,3.3499,3.3661,3.3823,3.3867,3.3911,3.4073,3.4167,3.396,3.3635,3.3575,3.2968,3.1119,2.9603,0.0,0.0,0.0,0.0,0.0,0.0,0.0,0.0,0.0,0.0,0.0,0.0,0.0,0.0,0.0,0.0,0.0,2.9299,2.9633,2.9486,2.9927,0.0,3.0341,0.0,3.0728,3.0996,3.0862,3.1022,3.1463,3.1597,3.1664,3.1664,3.1664,3.1664,3.1664,3.1664,3.1664,3.1664,3.1664,3.1664,3.1664,3.1664,3.1664,3.1664,3.2019,3.442,3.693,3.797,3.8132,3.8212,3.8856,4.0391,4.125,4.0723,4.1328,4.1875,4.2051,4.2363,4.2637,4.2832,4.2851,4.2891,4.2969,4.2988,4.2988,4.2988,4.248,4.2363,4.2695,4.1875,4.1074,0.0,3.9542,3.7486,3.4158,3.4158,3.3444,3.2416,3.3426,3.4348,3.556,3.7929,3.8399,3.7892,4.0037,4.07,4.0736,4.0292,4.1305,4.292,4.2573,4.1545,4.0173,3.8558,3.7566,3.69,3.7614,3.7258,3.6722,3.7258,3.7079,3.6722,3.6722,3.6913,3.6956,3.7035,3.7258,3.7648,3.7727,3.7807,3.7863,3.7237,3.7221,3.6247,3.3249,3.1409,0.0,0.0,0.0,0.0,0.0,0.0,0.0,0.0,0.0,0.0,0.0,0.0,0.0,0.0,0.0,0.0,2.9018,2.9259,2.9499,2.9753,3.0314,3.0501,3.0287,0.0,3.1076,3.0982,3.0915,3.1156,3.1664,3.1664,3.1664,3.1664,3.1664,3.1664,3.1664,3.1664,3.1664,3.1664,3.1664,3.1664,3.1664,3.1664,3.1664,3.1664,3.551,3.7072,3.8926,4.0576,3.9889,3.9567,4.016,4.1465,4.2031,4.1211,4.1504,4.209,4.2871,4.2988,4.334,4.4141,4.4219,4.4375,4.4746,4.4785,4.4785,4.4785,4.3965,4.3535,4.3574,4.2754,4.209,4.1621,4.1191,3.9129,3.5762,3.6906,3.7374,3.7378,3.6922,3.8097,4.0432,3.9759,4.0492,4.1815,4.2499,4.2499,4.2026,4.2069,4.2454,4.2978,4.2803,4.3059,4.3015,4.3015,4.0163,3.7258,4.0666,3.9402,3.7079,3.8679,3.797,3.6722,3.6722,3.6738,3.6849,3.6972,3.7083,3.7178,3.7512,3.7814,3.8111,3.7727,3.7185,3.6184,3.3916,3.3085,3.2776,0.0,0.0,0.0,0.0,0.0,0.0,0.0,0.0,0.0,0.0,0.0,0.0,0.0,2.7709,0.0,0.0,2.9072,2.9566,3.0635,3.0234,3.0488,3.149,3.1062,3.1089,3.1583,3.1316,3.1356,3.1664,3.1664,3.1664,3.1664,3.1664,3.1664,3.1664,3.1664,3.1664,3.1664,3.1664,3.1664,3.1664,3.1664,3.1664,3.1664,3.7488,3.8108,3.9141,4.0883,4.1227,4.1444,4.1876,4.2719,4.3164,4.3125,4.3008,4.3183,4.3808,4.4101,4.4394,4.4746,4.4766,4.4844,4.5019,4.5019,4.5019,4.5019,4.418,4.3828,4.4121,4.3008,4.248,4.2558,4.1894,4.0703,3.9121,3.9629,3.9946,3.9913,3.9926,4.0762,4.2318,4.2112,4.2716,4.3942,4.4122,4.4241,4.4319,4.3974,4.4121,4.4461,4.3932,4.3708,4.3837,4.3678,4.2353,4.0999,4.2456,4.1906,4.0999,4.1711,4.1355,4.082,4.082,4.082,4.0855,4.0815,4.1203,4.1413,4.1388,4.1901,4.2127,4.197,4.0402,3.8908,3.7794,3.6443,3.5357,3.5373,0.0,0.0,0.0,0.0,0.0,0.0,0.0,0.0,0.0,0.0,0.0,0.0,0.0,0.0,0.0,0.0,3.002,3.1022,3.0314,3.0314,3.1142,3.1089,3.1089,3.1142,3.1196,3.1383,3.1664,3.1664,3.1664,3.1664,3.1664,3.1664,3.1664,3.1664,3.1664,3.1664,3.1664,3.1784,3.1931,3.1931,3.2038,3.2185,3.9329,3.93,3.9872,4.1697,4.2585,4.3209,4.3209,4.3633,4.4258,4.4707,4.4492,4.4355,4.457,4.4844,4.5078,4.5195,4.5215,4.5273,4.5391,4.541,4.541,4.541,4.4687,4.4375,4.457,4.3418,4.2949,4.3262,4.2539,4.1699,4.0801,4.0664,4.0997,4.1849,4.2008,4.2728,4.3601,4.3799,4.4336,4.5039,4.4985,4.5219,4.5511,4.5126,4.5163,4.5255,4.4725,4.437,4.437,4.3837,4.3678,4.3678,4.3499,4.3499,4.3499,4.3499,4.3499,4.3499,4.3499,4.3499,4.3499,4.3499,4.3701,4.3903,4.3903,4.4306,4.4526,4.4064,4.2898,4.1804,4.0739,3.9372,3.7922,3.6897,0.0,0.0,0.0,0.0,0.0,0.0,0.0,0.0,2.9432,0.0,0.0,0.0,0.0,0.0,0.0,0.0,0.0,0.0,0.0,0.0,3.1049,3.1169,3.1116,3.0929,3.1223,3.1463,3.1664,3.1664,3.1664,3.1664,3.1664,3.1664,3.1677,3.1757,3.1797,3.181,3.1891,3.2051,3.2238,3.2238,3.2372,3.2532,4.1152,4.1187,4.1747,4.346,4.439,4.4621,4.3903,4.4499,4.5176,4.5605,4.5644,4.5488,4.5058,4.5019,4.5195,4.5625,4.5664,4.584,4.6269,4.6289,4.6289,4.6289,4.5879,4.5449,4.5019,4.4141,4.3691,4.3691,4.3262,4.1973,3.9902,3.9434,4.0586,4.3066,4.3066,4.3789,4.498,4.457,4.4629,4.5058,4.4972,4.4972,4.503,4.4907,4.4902,4.4902,4.4902,4.4902,4.4902,4.437,4.4193,4.4193,4.3678,4.3499,4.3499,4.3499,4.3499,4.3499,4.3499,4.3499,4.3499,4.3499,4.3499,4.3499,4.3499,4.4105,4.4213,4.2706,4.3937,4.4448,4.1568,4.1247,4.0494,3.8254,0.0,0.0,0.0,0.0,0.0,0.0,3.1383,3.1209,3.1196,3.0942,0.0,0.0,0.0,0.0,0.0,0.0,0.0,3.1209,3.0662,0.0,3.165,3.137,3.1223,3.1223,3.1517,3.1664,3.1664,3.1664,3.1664,3.1664,3.1664,3.1664,3.169,3.1984,3.2104,3.2131,3.2425,3.2532,3.2545,3.2545,3.2545,3.2545,4.2871,4.2934,4.3526,4.5118,4.5697,4.5956,4.6299,4.6052,4.6152,4.6875,4.6973,4.6914,4.6777,4.625,4.5957,4.6094,4.6113,4.6152,4.6289,4.6308,4.6308,4.6308,4.5898,4.5605,4.5469,4.4902,4.4473,4.418,4.373,4.3164,4.248,4.1738,4.248,4.4375,4.3769,4.4238,4.5449,4.5,4.5234,4.5879,4.5569,4.5666,4.5939,4.59,4.5783,4.5783,4.5431,4.5255,4.4902,4.437,4.4015,4.3678,4.3499,4.3499,4.3499,4.3499,4.3499,4.3499,4.3499,4.3499,4.3499,4.3499,4.3499,4.3499,4.3499,4.3903,4.4124,4.3686,4.4088,4.4197,4.3379,4.2928,4.2568,4.1827,3.9852,0.0,3.5577,0.0,3.2535,3.0966,3.0688,3.0555,0.0,3.0608,0.0,0.0,0.0,0.0,0.0,0.0,0.0,0.0,3.0768,0.0,3.1664,3.157,3.1423,3.1223,3.153,3.1664,3.1677,3.1877,3.1971,3.1971,3.2185,3.2265,3.2278,3.2372,3.2412,3.2412,3.2505,3.2666,3.2839,3.2839,3.2973,3.3133,4.402,4.4466,4.5102,4.6062,4.661,4.6892,4.7445,4.7229,4.6973,4.7519,4.7578,4.7578,4.7578,4.7109,4.6777,4.6777,4.6777,4.6777,4.6777,4.6621,4.6543,4.6543,4.6133,4.584,4.5683,4.541,4.5137,4.4883,4.459,4.4355,4.418,4.3652,4.4062,4.5254,4.4687,4.5,4.5898,4.5625,4.582,4.6289,4.6016,4.6074,4.6308,4.6308,4.6406,4.6543,4.6191,4.5934,4.5891,4.5375,4.5017,4.4659,4.43,4.43,4.4064,4.3573,4.3499,4.3499,4.3499,4.3499,4.3499,4.3499,4.3499,4.3536,4.3683,4.3903,4.4123,4.427,4.4306,4.4306,4.4306,4.4105,4.3704,4.2802,4.1482,3.9856,3.7671,3.6159,3.464,0.0,0.0,0.0,0.0,3.0969,3.1062,0.0,0.0,0.0,0.0,0.0,3.0875,3.1169,3.0755,3.0835,3.149,3.1503,3.1463,3.1396,3.169,3.1837,3.1837,3.2131,3.2265,3.2278,3.2465,3.2545,3.2559,3.2666,3.2706,3.2719,3.2826,3.2986,3.3146,3.3146,3.3253,3.3414,4.5126,4.5939,4.6501,4.6501,4.7087,4.7617,4.7637,4.7637,4.7637,4.7676,4.7676,4.7676,4.7676,4.7676,4.7676,4.7676,4.7617,4.7578,4.7578,4.7207,4.6973,4.6973,4.6601,4.6211,4.582,4.5801,4.5801,4.5762,4.5742,4.5508,4.5117,4.5078,4.5312,4.5723,4.5683,4.5918,4.6308,4.6328,4.6348,4.6348,4.6387,4.6387,4.6387,4.6387,4.6641,4.6973,4.6973,4.7226,4.7398,4.7038,4.6857,4.6676,4.575,4.5386,4.5255,4.3972,4.3573,4.3573,4.3573,4.3573,4.3573,4.3573,4.3573,4.3664,4.405,4.4123,4.4233,4.46,4.4655,4.4636,4.4636,4.46,4.3905,4.1648,4.1229,4.0542,3.8175,3.7759,3.7257,3.5824,0.0,0.0,3.2421,3.1961,3.1477,0.0,0.0,0.0,0.0,0.0,3.1583,3.0448,3.0675,3.0969,3.1249,3.1249,3.141,3.1704,3.1998,3.2131,3.2144,3.2438,3.2572,3.2572,3.2599,3.2612,3.2625,3.2893,3.3013,3.304,3.3307,3.3414,3.3414,3.3414,3.3414,3.3414,4.6873,4.774,4.8355,4.8355,4.8474,4.8632,4.8508,4.8307,4.8183,4.8516,4.8555,4.8555,4.8555,4.8555,4.8555,4.8555,4.7949,4.7578,4.7578,4.748,4.7422,4.7422,4.7324,4.7226,4.7129,4.7129,4.6973,4.6641,4.6308,4.6094,4.5996,4.5664,4.5742,4.6133,4.582,4.5918,4.6328,4.6641,4.6777,4.6816,4.7148,4.7285,4.7285,4.7285,4.7344,4.7422,4.7422,4.732,4.7038,4.6857,4.6676,4.6314,4.6133,4.5951,4.5731,4.4817,4.4398,4.4398,4.4398,4.4398,4.4398,4.4398,4.4398,4.4416,4.4508,4.4526,4.4563,4.4655,4.4435,4.4215,4.4215,4.3976,4.3558,4.309,4.2892,4.2118,4.0169,3.9789,3.9109,3.7257,3.6775,3.5837,3.3815,3.3357,3.283,0.0,0.0,3.1463,3.1677,3.1957,3.177,3.1036,3.1089,3.1263,3.1557,3.157,3.1717,3.2011,3.2305,3.2438,3.2452,3.2746,3.2879,3.2893,3.3106,3.32,3.3213,3.328,3.3307,3.332,3.3387,3.3414,3.3414,3.3414,3.3414,3.3414,4.7593,4.8267,4.8887,4.8887,4.8887,4.8946,4.8941,4.8718,4.8594,4.8828,4.8867,4.8867,4.8867,4.8867,4.8867,4.8867,4.8437,4.8164,4.8164,4.7969,4.7871,4.7871,4.7676,4.7578,4.7578,4.7578,4.7461,4.7226,4.6992,4.6894,4.6875,4.666,4.666,4.6875,4.666,4.668,4.6894,4.7129,4.7226,4.7246,4.748,4.7578,4.7578,4.7578,4.7695,4.7871,4.7871,4.7807,4.7799,4.7799,4.7617,4.7434,4.7068,4.7087,4.6884,4.6148,4.5703,4.5405,4.5039,4.5222,4.5405,4.5039,4.4856,4.4673,4.4673,4.4673,4.4673,4.4673,4.4508,4.4306,4.4123,4.3903,4.3701,4.3518,4.3499,4.3124,4.2012,4.1832,4.1093,3.9242,3.8696,3.7472,3.4729,3.4197,3.3586,3.2055,3.1757,0.0,3.1891,3.1904,3.1637,3.1049,3.141,3.1637,3.1664,3.1931,3.2144,3.2305,3.2599,3.2746,3.2759,3.304,3.3173,3.3187,3.3347,3.3414,3.3414,3.3414,3.3414,3.3414,3.3414,3.3414,3.3414,3.3414,3.3414,3.3414,4.7819,4.8352,4.8867,4.8867,4.8867,4.8867,4.8867,4.8867,4.8867,4.8867,4.8867,4.8867,4.8867,4.8867,4.8867,4.8867,4.8867,4.8867,4.8867,4.8516,4.8301,4.8301,4.7969,4.7773,4.7773,4.7773,4.7773,4.7773,4.7773,4.7734,4.7676,4.7676,4.7637,4.7578,4.7578,4.7578,4.7578,4.7656,4.7676,4.7676,4.7754,4.7773,4.7773,4.7773,4.7988,4.8301,4.8301,4.8535,4.8867,4.8867,4.8867,4.8867,4.8312,4.8127,4.8127,4.7755,4.7075,4.6504,4.5774,4.5957,4.614,4.5774,4.5408,4.504,4.504,4.504,4.504,4.504,4.4801,4.4673,4.4325,4.4215,4.4123,4.3976,4.3848,4.3811,4.3921,4.3793,4.3108,4.1249,4.1015,3.9707,3.6048,3.569,3.4768,3.2545,3.2355,3.2178,3.1797,3.1797,3.157,3.1076,3.173,3.2011,3.181,3.2345,3.2612,3.2612,3.2906,3.304,3.3053,3.3293,3.3414,3.3414,3.3414,3.3414,3.3414,3.3414,3.3414,3.3414,3.3414,3.3414,3.3414,3.3414,3.3414,3.3414,4.873,4.8808,4.8867,4.8867,4.8867,4.8867,4.8867,4.8867,4.8867,4.8867,4.8867,4.8867,4.8867,4.8867,4.8867,4.8867,4.8867,4.8867,4.8867,4.8789,4.875,4.875,4.8691,4.8652,4.8652,4.8652,4.8652,4.8652,4.8652,4.8476,4.8105,4.8105,4.793,4.7578,4.7578,4.7578,4.7598,4.7949,4.8105,4.8144,4.8516,4.8652,4.8652,4.8652,4.8691,4.875,4.875,4.8808,4.8867,4.8867,4.8867,4.8867,4.8867,4.8867,4.8682,4.8682,4.8585,4.81,4.6802,4.643,4.6635,4.7007,4.7007,4.7007,4.7007,4.6635,4.6262,4.6262,4.5797,4.5187,4.5132,4.482,4.4893,4.5865,4.5462,4.526,4.592,4.5132,4.449,4.4106,4.3815,4.2797,4.0849,4.051,3.8997,3.5427,3.5044,3.4304,3.2606,3.2412,3.2372,3.2278,3.2158,3.2198,3.2412,3.2746,3.2906,3.2919,3.32,3.3347,3.3347,3.3387,3.3414,3.3414,3.3414,3.3414,3.3414,3.3414,3.3414,3.3414,3.3414,3.3414,3.3414,3.3414,3.3414,3.3414,4.8867,4.8867,4.8867,4.8867,4.8867,4.8867,4.8867,4.8867,4.8867,4.8867,4.8867,4.8867,4.8867,4.8867,4.8867,4.8867,4.8867,4.8867,4.8867,4.8867,4.8867,4.8867,4.8867,4.8867,4.8867,4.8867,4.8867,4.8867,4.8867,4.875,4.8555,4.8555,4.8457,4.8262,4.8262,4.8262,4.8281,4.8476,4.8555,4.8574,4.8769,4.8867,4.8867,4.8867,4.8867,4.8867,4.8867,4.8867,4.8867,4.8867,4.8867,4.8867,4.8867,4.8867,4.8867,4.8867,4.8682,4.8312,4.7922,4.7382,4.7196,4.7569,4.7588,4.7401,4.7401,4.7215,4.7009,4.7009,4.6672,4.6299,4.6076,4.5686,4.5557,4.613,4.5538,4.5168,4.5755,4.5168,4.4673,4.4673,4.4508,4.3704,4.1797,4.1628,4.0491,3.7675,3.7295,3.6913,3.5972,3.5972,3.5972,3.5972,3.3713,3.2719,3.3013,3.3146,3.3213,3.3213,3.3347,3.3414,3.3414,3.3414,3.3414,3.3414,3.3414,3.3414,3.3414,3.3414,3.3414,3.3414,3.3414,3.3414,3.3414,3.3414,3.3414,3.3414,4.8867,4.8867,4.8867,4.8867,4.8867,4.8867,4.8867,4.8867,4.8867,4.8867,4.8867,4.8867,4.8867,4.8867,4.8867,4.8867,4.8867,4.8867,4.8867,4.8867,4.8867,4.8867,4.8867,4.8867,4.8867,4.8867,4.8867,4.8867,4.8867,4.8867,4.8867,4.8867,4.8867,4.8867,4.8867,4.8867,4.8867,4.8867,4.8867,4.8867,4.8867,4.8867,4.8867,4.8867,4.8867,4.8867,4.8867,4.8867,4.8867,4.8867,4.8867,4.8867,4.8867,4.8867,4.8867,4.8867,4.8682,4.8312,4.8867,4.8312,4.7774,4.8127,4.7941,4.7755,4.7755,4.7569,4.7588,4.7588,4.7401,4.7288,4.6966,4.6539,4.6448,4.6747,4.5983,4.5649,4.5979,4.5519,4.5132,4.4948,4.4875,4.4285,4.2837,4.265,4.1902,3.9828,3.9639,3.9449,3.9069,3.9069,3.9069,3.9069,3.5594,3.3701,3.3414,3.3414,3.3414,3.3414,3.3414,3.3414,3.3414,3.3414,3.3414,3.3414,3.3414,3.3414,3.3414,3.3414,3.3414,3.3414,3.3414,3.3414,3.3414,3.3414,3.3414,3.3414,4.8867,4.8867,4.8867,4.8867,4.8867,4.8867,4.8867,4.8867,4.8867,4.8867,4.8867,4.8867,4.8867,4.8867,4.8867,4.8867,4.8867,4.8867,4.8867,4.8867,4.8867,4.8867,4.8867,4.8867,4.8867,4.8867,4.8867,4.8867,4.8867,4.8867,4.8867,4.8867,4.8867,4.8867,4.8867,4.8867,4.8867,4.8867,4.8867,4.8867,4.8867,4.8867,4.8867,4.8867,4.8867,4.8867,4.8867,4.8867,4.8867,4.8867,4.8867,4.8867,4.8867,4.8867,4.8867,4.8867,4.8867,4.8867,4.8867,4.8497,4.8127,4.8682,4.8867,4.8867,4.8867,4.8497,4.8146,4.8146,4.7774,4.7382,4.7345,4.7345,4.7723,4.8686,4.8196,4.7761,4.8182,4.7097,4.6354,4.5792,4.548,4.5388,4.5567,4.5604,4.4643,4.269,4.2499,4.1732,3.9787,3.9593,3.9593,3.9593,3.7192,3.5069,3.34,3.3414,3.3414,3.3414,3.3414,3.3414,3.3414,3.3414,3.3414,3.3414,3.3414,3.3414,3.3414,3.3414,3.3414,3.3414,3.3414,3.3414,3.3414,3.3414,3.3414,3.3414,4.9236,4.8867,4.8867,4.8867,4.8867,4.8867,4.8867,4.8867,4.8867,4.8867,4.8867,4.8867,4.8867,4.8867,4.8867,4.8867,4.8867,4.8867,4.8867,4.8867,4.8867,4.8867,4.8867,4.8867,4.8867,4.8867,4.8867,4.8867,4.8867,4.8867,4.8867,4.8867,4.8867,4.8867,4.8867,4.8867,4.8867,4.8867,4.8867,4.8867,4.8867,4.8867,4.8867,4.8867,4.8867,4.8867,4.8867,4.8867,4.8867,4.8867,4.8867,4.8867,4.8867,4.8867,4.8867,4.8867,4.8867,4.8867,4.8867,4.8682,4.8682,4.8867,4.8867,4.8867,4.8867,4.8682,4.8682,4.8682,4.8497,4.8312,4.8312,4.8127,4.8003,4.8728,4.8196,4.7818,4.8005,4.7479,4.7009,4.6822,4.6691,4.6467,4.6429,4.6635,4.6447,4.5281,4.5093,4.4885,4.392,4.3747,4.2967,4.1607,4.0705,3.9336,3.7326,3.7326,3.7326,3.7326,3.596,3.538,3.538,3.4,3.3414,3.3414,3.3414,3.3414,3.3414,3.3414,3.3414,3.3414,3.3414,3.3414,3.3414,3.3414,3.3414,3.3414,4.931,4.8887,4.8946,4.8941,4.896,4.8836,4.8828,4.8867,4.8867,4.8867,4.8867,4.8867,4.8867,4.8867,4.8867,4.8867,4.8867,4.8867,4.8867,4.8867,4.8867,4.8867,4.8867,4.8867,4.8867,4.8867,4.8867,4.8867,4.8867,4.8867,4.8867,4.8867,4.8867,4.8867,4.8867,4.8867,4.8867,4.8867,4.8867,4.8867,4.8867,4.8867,4.8867,4.8867,4.8867,4.8867,4.8867,4.8867,4.8867,4.8867,4.8867,4.8867,4.8867,4.8867,4.8867,4.8867,4.8867,4.8867,4.8867,4.8867,4.8867,4.8867,4.8867,4.8867,4.8867,4.8867,4.8867,4.8867,4.8867,4.8867,4.8867,4.8682,4.8409,4.8698,4.8319,4.785,4.7949,4.7759,4.7588,4.7401,4.7401,4.7196,4.6822,4.7196,4.7215,4.6822,4.6822,4.6822,4.6822,4.6635,4.5677,4.4317,4.4317,4.3539,4.2184,4.0449,3.9673,3.9673,3.8111,3.7523,3.7523,3.596,3.5366,3.5366,3.5564,3.5564,3.5366,3.5564,3.555,3.555,3.555,3.5748,3.5734,3.555,3.555,3.5564,4.9494,4.902,4.9025,4.9032,4.8952,4.895,4.8954,4.8848,4.8848,4.8848,4.8848,4.8848,4.8867,4.8867,4.8867,4.8867,4.8867,4.8867,4.8867,4.8867,4.8867,4.8867,4.8867,4.8867,4.8867,4.8867,4.8867,4.8867,4.8867,4.8867,4.8867,4.8867,4.8867,4.8867,4.8867,4.8867,4.8867,4.8867,4.8867,4.8867,4.8867,4.8867,4.8867,4.8867,4.8867,4.8867,4.8867,4.8867,4.8867,4.8867,4.8867,4.8867,4.8867,4.8867,4.8867,4.8867,4.8867,4.8867,4.8867,4.8867,4.8867,4.8867,4.8867,4.8867,4.8867,4.8867,4.8867,4.8867,4.8867,4.8867,4.8867,4.8867,4.8867,4.8867,4.8867,4.8682,4.8127,4.8146,4.7941,4.7401,4.7401,4.7401,4.7401,4.7401,4.7401,4.7401,4.7401,4.7401,4.7401,4.7401,4.7401,4.7401,4.7401,4.7401,4.7401,4.2375,3.9673,3.9673,3.9673,3.9673,3.9673,3.9673,3.9673,3.9673,4.0239,4.0045,3.9673,4.0239,4.0416,4.0416,4.0416,4.0593,4.0963,4.061,4.0416,4.0029,5.697,5.6839,5.6884,5.6887,5.2365,4.8949,4.8931,4.8971,4.8932,4.895,4.8827,4.8985,4.8808,4.8867,4.8867,4.8867,4.8867,4.8867,4.8867,4.8867,4.8867,4.8867,4.8867,4.8867,4.8867,4.8867,4.8867,4.8867,4.8867,4.8867,4.8867,4.8867,4.8867,4.8867,4.8867,4.8867,4.8867,4.8867,4.8867,4.8867,4.8867,4.8867,4.8867,4.8867,4.8867,4.8867,4.8867,4.8867,4.8867,4.8867,4.8867,4.8867,4.8867,4.8867,4.8867,4.8867,4.8867,4.8867,4.8867,4.8867,4.8867,4.8867,4.8867,4.8867,4.8867,4.8867,4.8867,4.8867,4.8867,4.8867,4.8867,4.8867,4.8867,4.8867,4.8867,4.8848,4.8682,4.8682,4.8682,4.8497,4.8497,4.8312,4.796,4.8312,4.8312,4.7941,4.796,4.7774,4.7401,4.7401,4.7401,4.7401,4.7401,4.7401,4.7401,4.5847,4.5074,4.5074,4.3712,4.2932,4.2932,4.1365,4.0787,4.077,4.0963,4.0963,4.077,4.0963,4.0963,4.0963,4.0963,4.0963,4.0963,4.061,4.0416,4.0223,6.0198,6.0269,5.9876,5.889,5.4981,5.1863,5.19,5.1942,5.1892,5.1893,5.1935,5.164,5.1125,5.0459,5.0094,5.0094,4.94,4.8867,4.8867,4.8867,4.8867,4.8867,4.8867,4.8867,4.8867,4.8867,4.8867,4.8867,4.8867,4.8867,4.8867,4.8867,4.8867,4.8867,4.8867,4.8867,4.8867,4.8867,4.8867,4.8867,4.8867,4.8867,4.8867,4.8867,4.8867,4.8867,4.8867,4.8867,4.8867,4.8867,4.8867,4.8867,4.8867,4.8867,4.8867,4.8867,4.8867,4.8867,4.8867,4.8867,4.8867,4.8867,4.8867,4.8867,4.8867,4.8867,4.8867,4.8867,4.8867,4.8867,4.8867,4.8867,4.8867,4.8867,4.8867,4.8867,4.8867,4.8867,4.8867,4.8867,4.8867,4.8867,4.8497,4.8682,4.8867,4.8497,4.8497,4.8312,4.7941,4.7941,4.7941,4.7941,4.7941,4.7941,4.7941,4.7941,4.7755,4.7401,4.6035,4.5452,4.5452,4.4264,4.3677,4.3677,4.3867,4.3849,4.3677,4.3867,4.3849,4.3849,4.3849,4.4039,4.4039,4.3677,4.3504,4.3314,6.0171,6.0171,5.9402,5.7079,5.669,5.67,5.6745,5.6813,5.6637,5.6439,5.6439,5.5953,5.4719,5.2924,5.1868,5.1688,4.9911,4.8867,4.8867,4.8867,4.8867,4.8867,4.8867,4.8867,4.8867,4.8867,4.8867,4.8867,4.8867,4.8867,4.8867,4.8867,4.8867,4.8867,4.8867,4.8867,4.8867,4.8867,4.8867,4.8867,4.8867,4.8867,4.8867,4.8867,4.8867,4.8867,4.8867,4.8867,4.8867,4.8867,4.8867,4.8867,4.8867,4.8867,4.8867,4.8867,4.8867,4.8867,4.8867,4.8867,4.8867,4.8867,4.8867,4.8867,4.8867,4.8867,4.8867,4.8867,4.8867,4.8867,4.8867,4.8867,4.8867,4.8867,4.8867,4.8867,4.8867,4.8867,4.8867,4.8867,4.8867,4.8867,4.8867,4.8867,4.8867,4.8867,4.8867,4.8867,4.8867,4.8867,4.8867,4.8867,4.8867,4.8867,4.8867,4.8867,4.8497,4.7569,4.7569,4.7569,4.7569,4.7569,4.7569,4.7588,4.7941,4.7941,4.7588,4.796,4.8127,4.8127,4.8127,4.8497,4.8867,4.8312,4.8127,4.7755,6.0171,6.0171,5.9979,5.9402,5.9402,5.9425,5.9399,5.9422,5.8647,5.6723,5.6332,5.5834,5.4675,5.4146,5.3259,5.1868,4.9911,4.8867,4.8867,4.8867,4.8867,4.8867,4.8867,4.8867,4.8867,4.8867,4.8867,4.8867,4.8867,4.8867,4.8867,4.8867,4.8867,4.8867,4.8867,4.8867,4.8867,4.8867,4.8867,4.8867,4.8867,4.8867,4.8867,4.8867,4.8867,4.8867,4.8867,4.8867,4.8867,4.8867,4.8867,4.8867,4.8867,4.8867,4.8867,4.8867,4.8867,4.8867,4.8867,4.8867,4.8867,4.8867,4.8867,4.8867,4.8867,4.8867,4.8867,4.8867,4.8867,4.8867,4.8867,4.8867,4.8867,4.8867,4.8867,4.8867,4.8867,4.8867,4.8867,4.8867,4.8867,4.8867,4.8867,4.8867,4.8867,4.8867,4.8867,4.8867,4.8867,4.8867,4.8867,4.8867,4.8867,4.8867,4.8867,4.8867,4.8867,4.8497,4.8497,4.8497,4.8497,4.8497,4.8497,4.8497,4.8682,4.8682,4.8497,4.8682,4.8682,4.8682,4.8682,4.8867,4.8867,4.8312,4.8127,4.7941,6.0171,6.0171,6.0171,6.0171,6.0171,6.0171,6.0171,6.0171,5.9763,5.8413,5.822,5.7925,5.7309,5.6445,5.5049,5.3259,5.1326,5.0276,5.0276,4.938,4.8867,4.8867,4.8867,4.8867,4.8867,4.8867,4.8867,4.8867,4.8867,4.8867,4.8867,4.8867,4.8867,4.8867,4.8867,4.8867,4.8867,4.8867,4.8867,4.8867,4.8867,4.8867,4.8867,4.8867,4.8867,4.8867,4.8867,4.8867,4.8867,4.8867,4.8867,4.8867,4.8867,4.8867,4.8867,4.8867,4.8867,4.8867,4.8867,4.8867,4.8867,4.8867,4.8867,4.8867,4.8867,4.8867,4.8867,4.8867,4.8867,4.8867,4.8867,4.8867,4.8867,4.8867,4.8867,4.8867,4.8867,4.8867,4.8867,4.8867,4.8867,4.8867,4.8867,4.8867,4.8867,4.8867,4.8867,4.8867,4.8867,4.8867,4.8867,4.8867,4.8867,4.8867,4.8867,4.8867,4.8867,4.8867,4.8867,4.8867,4.8867,4.8867,4.8867,4.8867,4.8867,4.8867,4.8867,4.8867,4.8867,4.8867,4.8867,4.8867,4.8867,4.8682,4.8312,4.7941,6.0171,6.0171,6.0171,6.0171,6.0171,6.0171,6.0171,6.0171,6.0171,6.0171,6.0171,6.0171,6.0171,5.8577,5.6814,5.5202,5.328,5.2027,5.1688,5.0276,4.9216,4.8848,4.8867,4.8867,4.8867,4.8867,4.8867,4.8867,4.8867,4.8867,4.8867,4.8867,4.8867,4.8867,4.8867,4.8867,4.8867,4.8867,4.8867,4.8867,4.8867,4.8867,4.8867,4.8867,4.8867,4.8867,4.8867,4.8867,4.8867,4.8867,4.8867,4.8867,4.8867,4.8867,4.8867,4.8867,4.8867,4.8867,4.8867,4.8867,4.8867,4.8867,4.8867,4.8867,4.8867,4.8867,4.8867,4.8867,4.8867,4.8867,4.8867,4.8867,4.8867,4.8867,4.8867,4.8867,4.8867,4.8867,4.8867,4.8867,4.8867,4.8867,4.8867,4.8867,4.8867,4.8867,4.8867,4.8867,4.8867,4.8867,4.8867,4.8867,4.8867,4.8867,4.8867,4.8867,4.8867,4.8867,4.8867,4.8867,4.8867,4.8867,4.8867,4.8867,4.8867,4.8867,4.8867,4.8867,4.8867,4.8867,4.8867,4.8867,4.8867,4.8867,4.8497,4.8127,6.0339,6.0171,6.0171,6.0171,6.0171,6.0171,6.0171,6.0171,6.0171,6.0171,6.0171,6.0171,6.0171,5.8577,5.7355,5.6987,5.5224,5.3437,5.1868,5.1507,5.0621,4.9032,4.8867,4.8867,4.8867,4.8867,4.8867,4.8867,4.8867,4.8867,4.8867,4.8867,4.8867,4.8867,4.8867,4.8867,4.8867,4.8867,4.8867,4.8867,4.8867,4.8867,4.8867,4.8867,4.8867,4.8867,4.8867,4.8867,4.8867,4.8867,4.8867,4.8867,4.8867,4.8867,4.8867,4.8867,4.8867,4.8867,4.8867,4.8867,4.8867,4.8867,4.8867,4.8867,4.8867,4.8867,4.8867,4.8867,4.8867,4.8867,4.8867,4.8867,4.8867,4.8867,4.8867,4.8867,4.8867,4.8867,4.8867,4.8867,4.8867,4.8867,4.8867,4.8867,4.8867,4.8867,4.8867,4.8867,4.8867,4.8867,4.8867,4.8867,4.8867,4.8867,4.8867,4.8867,4.8867,4.8867,4.8867,4.8867,4.8867,4.8867,4.8867,4.8867,4.8867,4.8867,4.8867,4.8867,4.8867,4.8867,4.8867,4.8867,4.8867,4.8867,4.8497,4.8146,6.0983,6.0674,6.0507,6.0507,6.0339,6.0171,6.0171,6.0171,6.0171,6.0171,6.0171,6.0171,6.0171,5.9473,5.8941,5.8941,5.716,5.5749,5.4873,5.3792,5.2387,5.0621,5.0439,4.9911,4.8848,4.8867,4.8867,4.8867,4.8867,4.8867,4.8867,4.8867,4.8867,4.8867,4.8867,4.8867,4.8867,4.8867,4.8867,4.8867,4.8867,4.8867,4.8867,4.8867,4.8867,4.8867,4.8867,4.8867,4.8867,4.8867,4.8867,4.8867,4.8867,4.8867,4.8867,4.8867,4.8867,4.8867,4.8867,4.8867,4.8867,4.8867,4.8867,4.8867,4.8867,4.8867,4.8867,4.8867,4.8867,4.8867,4.8867,4.8867,4.8867,4.8867,4.8867,4.8867,4.8867,4.8867,4.8867,4.8867,4.8867,4.8867,4.8867,4.8867,4.8867,4.8867,4.8867,4.8867,4.8867,4.8867,4.8867,4.8867,4.8867,4.8867,4.8867,4.8867,4.8867,4.8867,4.8867,4.8867,4.8867,4.8867,4.8867,4.8867,4.8867,4.8867,4.8867,4.8867,4.8867,4.8867,4.8867,4.8867,4.8867,4.8867,4.8682,4.8497]}]]